Time,TemperatureF,DewpointF,PressureIn,WindDirection,WindDirectionDegrees,WindSpeedMPH,WindSpeedGustMPH,Humidity,HourlyPrecipIn,Conditions,Clouds,dailyrainin,SoftwareType,DateUTC
2013-02-22 00:00:00,43.7,40.1,30.06,NW,315,2.9,3.1,87,0.00,,---,0.00,VWS V14.01,2013-02-22 08:00:00,
2013-02-22 00:01:00,43.7,40.1,30.06,NNE,22,2.9,6.5,87,0.00,,---,0.00,VWS V14.01,2013-02-22 08:01:00,
2013-02-22 00:02:00,43.7,40.1,30.06,NNW,338,0.0,3.4,87,0.00,,---,0.00,VWS V14.01,2013-02-22 08:02:00,
2013-02-22 00:03:00,43.7,40.1,30.06,NNE,22,0.0,1.6,87,0.00,,---,0.00,VWS V14.01,2013-02-22 08:03:00,
2013-02-22 00:04:00,43.7,40.1,30.06,North,0,3.6,3.6,87,0.00,,---,0.00,VWS V14.01,2013-02-22 08:04:00,
2013-02-22 00:05:00,43.7,40.1,30.06,ESE,112,0.0,3.6,87,0.00,,---,0.00,VWS V14.01,2013-02-22 08:05:00,
2013-02-22 00:06:00,43.7,40.1,30.06,ESE,112,0.0,1.3,87,0.00,,---,0.00,VWS V14.01,2013-02-22 08:06:00,
2013-02-22 00:07:00,43.7,40.1,30.06,NNE,22,0.0,1.3,87,0.00,,---,0.00,VWS V14.01,2013-02-22 08:07:00,
2013-02-22 00:08:00,43.7,40.1,30.06,ESE,112,2.9,3.4,87,0.00,,---,0.00,VWS V14.01,2013-02-22 08:08:00,
2013-02-22 00:09:00,43.7,40.1,30.06,NNE,22,0.0,2.9,87,0.00,,---,0.00,VWS V14.01,2013-02-22 08:09:00,
2013-02-22 00:10:00,43.7,40.1,30.06,NNW,338,2.5,2.5,87,0.00,,---,0.00,VWS V14.01,2013-02-22 08:10:00,
2013-02-22 00:11:00,43.7,40.1,30.06,North,0,2.2,5.4,87,0.00,,---,0.00,VWS V14.01,2013-02-22 08:11:00,
2013-02-22 00:12:00,43.7,40.1,30.06,NNE,22,3.6,3.6,87,0.00,,---,0.00,VWS V14.01,2013-02-22 08:12:00,
2013-02-22 00:13:00,43.7,40.1,30.03,ENE,68,3.1,3.4,87,0.00,,---,0.00,VWS V14.01,2013-02-22 08:13:00,
2013-02-22 00:14:00,43.7,40.1,30.06,NE,45,0.0,3.6,87,0.00,,---,0.00,VWS V14.01,2013-02-22 08:14:00,
2013-02-22 00:15:00,43.7,40.1,30.06,NNW,338,1.6,1.6,87,0.00,,---,0.00,VWS V14.01,2013-02-22 08:15:00,
2013-02-22 00:16:00,43.7,40.1,30.06,ENE,68,1.3,3.6,87,0.00,,---,0.00,VWS V14.01,2013-02-22 08:16:00,
2013-02-22 00:17:00,43.7,40.1,30.03,NW,315,0.9,1.6,87,0.00,,---,0.00,VWS V14.01,2013-02-22 08:17:00,
2013-02-22 00:18:00,43.7,40.1,30.03,WNW,292,2.5,2.7,87,0.00,,---,0.00,VWS V14.01,2013-02-22 08:18:00,
2013-02-22 00:19:00,43.7,40.1,30.03,NNW,338,2.5,2.5,87,0.00,,---,0.00,VWS V14.01,2013-02-22 08:19:00,
2013-02-22 00:20:00,43.7,40.1,30.03,East,90,2.2,2.5,87,0.00,,---,0.00,VWS V14.01,2013-02-22 08:20:00,
2013-02-22 00:21:00,43.7,40.1,30.03,NNW,338,0.0,1.3,87,0.00,,---,0.00,VWS V14.01,2013-02-22 08:21:00,
2013-02-22 00:22:00,43.7,40.1,30.03,NNW,338,2.9,4.7,87,0.00,,---,0.00,VWS V14.01,2013-02-22 08:22:00,
2013-02-22 00:23:00,43.7,40.1,30.03,SE,135,2.0,3.4,87,0.00,,---,0.00,VWS V14.01,2013-02-22 08:23:00,
2013-02-22 00:24:00,43.7,40.1,30.03,NNE,22,2.7,2.7,87,0.00,,---,0.00,VWS V14.01,2013-02-22 08:24:00,
2013-02-22 00:25:00,43.7,40.1,30.03,ESE,112,1.3,2.7,87,0.00,,---,0.00,VWS V14.01,2013-02-22 08:25:00,
2013-02-22 00:26:00,43.7,40.1,30.03,North,0,2.5,3.6,87,0.00,,---,0.00,VWS V14.01,2013-02-22 08:26:00,
2013-02-22 00:27:00,43.7,40.1,30.03,NE,45,2.7,3.6,87,0.00,,---,0.00,VWS V14.01,2013-02-22 08:27:00,
2013-02-22 00:28:00,43.7,40.1,30.03,NE,45,2.7,2.7,87,0.00,,---,0.00,VWS V14.01,2013-02-22 08:28:00,
2013-02-22 00:29:00,43.7,40.1,30.03,ENE,68,2.0,2.9,87,0.00,,---,0.00,VWS V14.01,2013-02-22 08:29:00,
2013-02-22 00:30:00,43.7,40.1,30.03,East,90,2.0,2.5,87,0.00,,---,0.00,VWS V14.01,2013-02-22 08:30:00,
2013-02-22 00:31:00,43.7,40.1,30.03,SW,225,1.6,3.4,87,0.00,,---,0.00,VWS V14.01,2013-02-22 08:31:00,
2013-02-22 00:32:00,43.7,40.1,30.03,West,270,0.0,1.6,87,0.00,,---,0.00,VWS V14.01,2013-02-22 08:32:00,
2013-02-22 00:33:00,43.7,40.1,30.03,WNW,292,3.8,4.3,87,0.00,,---,0.00,VWS V14.01,2013-02-22 08:33:00,
2013-02-22 00:34:00,43.7,40.1,30.03,NNE,22,7.4,7.4,87,0.00,,---,0.00,VWS V14.01,2013-02-22 08:34:00,
2013-02-22 00:35:00,43.7,40.1,30.03,East,90,3.1,7.4,87,0.00,,---,0.00,VWS V14.01,2013-02-22 08:35:00,
2013-02-22 00:36:00,43.7,40.1,30.03,NNE,22,8.1,8.1,87,0.00,,---,0.00,VWS V14.01,2013-02-22 08:36:00,
2013-02-22 00:37:00,43.7,40.1,30.03,SE,135,0.9,8.1,87,0.00,,---,0.00,VWS V14.01,2013-02-22 08:37:00,
2013-02-22 00:38:00,43.7,40.1,30.03,NNE,22,0.0,0.9,87,0.00,,---,0.00,VWS V14.01,2013-02-22 08:38:00,
2013-02-22 00:39:00,43.7,40.1,30.03,NW,315,4.9,4.9,87,0.00,,---,0.00,VWS V14.01,2013-02-22 08:39:00,
2013-02-22 00:40:00,43.7,40.1,30.03,NW,315,4.9,4.9,87,0.00,,---,0.00,VWS V14.01,2013-02-22 08:40:00,
2013-02-22 00:41:00,43.7,40.1,30.03,WNW,292,0.0,3.4,87,0.00,,---,0.00,VWS V14.01,2013-02-22 08:41:00,
2013-02-22 00:42:00,43.7,40.1,30.03,NNE,22,1.3,2.0,87,0.00,,---,0.00,VWS V14.01,2013-02-22 08:42:00,
2013-02-22 00:43:00,43.7,40.1,30.03,NNW,338,1.6,2.9,87,0.00,,---,0.00,VWS V14.01,2013-02-22 08:43:00,
2013-02-22 00:44:00,43.7,40.1,30.03,North,0,2.5,4.3,87,0.00,,---,0.00,VWS V14.01,2013-02-22 08:44:00,
2013-02-22 00:45:00,43.7,40.1,30.03,North,0,0.0,2.5,87,0.00,,---,0.00,VWS V14.01,2013-02-22 08:45:00,
2013-02-22 00:46:00,43.7,40.1,30.03,NNW,338,2.5,3.6,87,0.00,,---,0.00,VWS V14.01,2013-02-22 08:46:00,
2013-02-22 00:47:00,43.7,40.1,30.03,NNW,338,2.5,2.5,87,0.00,,---,0.00,VWS V14.01,2013-02-22 08:47:00,
2013-02-22 00:48:00,43.7,40.1,30.03,East,90,4.3,4.3,87,0.00,,---,0.00,VWS V14.01,2013-02-22 08:48:00,
2013-02-22 00:49:00,43.7,40.1,30.03,NNW,338,0.0,6.3,87,0.00,,---,0.00,VWS V14.01,2013-02-22 08:49:00,
2013-02-22 00:50:00,43.7,40.1,30.03,NNE,22,3.6,3.6,87,0.00,,---,0.00,VWS V14.01,2013-02-22 08:50:00,
2013-02-22 00:51:00,43.7,40.1,30.03,NE,45,1.3,5.4,87,0.00,,---,0.00,VWS V14.01,2013-02-22 08:51:00,
2013-02-22 00:52:00,43.7,40.1,30.03,WNW,292,2.9,2.9,87,0.00,,---,0.00,VWS V14.01,2013-02-22 08:52:00,
2013-02-22 00:53:00,43.7,40.1,30.03,ESE,112,1.6,4.7,87,0.00,,---,0.00,VWS V14.01,2013-02-22 08:53:00,
2013-02-22 00:54:00,43.7,40.1,30.03,WNW,292,0.0,2.9,87,0.00,,---,0.00,VWS V14.01,2013-02-22 08:54:00,
2013-02-22 00:55:00,43.7,40.1,30.03,ESE,112,1.3,1.3,87,0.00,,---,0.00,VWS V14.01,2013-02-22 08:55:00,
2013-02-22 00:56:00,43.7,40.1,30.03,ESE,112,0.0,2.5,87,0.00,,---,0.00,VWS V14.01,2013-02-22 08:56:00,
2013-02-22 00:57:00,43.7,40.1,30.03,SE,135,0.0,2.0,87,0.00,,---,0.00,VWS V14.01,2013-02-22 08:57:00,
2013-02-22 00:58:00,43.7,40.1,30.03,NE,45,2.0,2.0,87,0.00,,---,0.00,VWS V14.01,2013-02-22 08:58:00,
2013-02-22 00:59:00,43.7,40.1,30.03,NE,45,2.0,2.0,87,0.00,,---,0.00,VWS V14.01,2013-02-22 08:59:00,
2013-02-22 01:00:00,43.7,40.1,30.03,North,0,1.1,2.0,87,0.00,,---,0.00,VWS V14.01,2013-02-22 09:00:00,
2013-02-22 01:01:00,43.7,40.1,30.03,NNW,338,2.2,2.2,87,0.00,,---,0.00,VWS V14.01,2013-02-22 09:01:00,
2013-02-22 01:02:00,43.7,40.1,30.03,WNW,292,2.7,2.7,87,0.00,,---,0.00,VWS V14.01,2013-02-22 09:02:00,
2013-02-22 01:03:00,43.7,40.1,30.03,SSW,202,2.9,3.8,87,0.00,,---,0.00,VWS V14.01,2013-02-22 09:03:00,
2013-02-22 01:04:00,43.7,40.1,30.03,NE,45,0.0,2.9,87,0.00,,---,0.00,VWS V14.01,2013-02-22 09:04:00,
2013-02-22 01:05:00,43.7,40.1,30.03,NNE,22,1.6,2.2,87,0.00,,---,0.00,VWS V14.01,2013-02-22 09:05:00,
2013-02-22 01:06:00,43.7,40.1,30.03,NW,315,2.5,2.7,87,0.00,,---,0.00,VWS V14.01,2013-02-22 09:06:00,
2013-02-22 01:07:00,43.7,40.1,30.03,WNW,292,1.3,2.7,87,0.00,,---,0.00,VWS V14.01,2013-02-22 09:07:00,
2013-02-22 01:08:00,43.7,40.1,30.03,NNW,338,3.8,3.8,87,0.00,,---,0.00,VWS V14.01,2013-02-22 09:08:00,
2013-02-22 01:09:00,43.7,40.1,30.03,SSE,158,3.1,5.8,87,0.00,,---,0.00,VWS V14.01,2013-02-22 09:09:00,
2013-02-22 01:10:00,43.7,40.1,30.03,North,0,5.6,5.6,87,0.00,,---,0.00,VWS V14.01,2013-02-22 09:10:00,
2013-02-22 01:11:00,43.7,40.1,30.03,SE,135,2.9,2.9,87,0.00,,---,0.00,VWS V14.01,2013-02-22 09:11:00,
2013-02-22 01:12:00,43.7,40.1,30.03,NNE,22,2.9,2.9,87,0.00,,---,0.00,VWS V14.01,2013-02-22 09:12:00,
2013-02-22 01:13:00,43.7,40.1,30.03,ENE,68,3.1,3.4,87,0.00,,---,0.00,VWS V14.01,2013-02-22 09:13:00,
2013-02-22 01:14:00,43.7,40.1,30.03,NE,45,2.2,4.7,87,0.00,,---,0.00,VWS V14.01,2013-02-22 09:14:00,
2013-02-22 01:15:00,43.7,40.1,30.03,NNW,338,3.8,3.8,87,0.00,,---,0.00,VWS V14.01,2013-02-22 09:15:00,
2013-02-22 01:16:00,43.7,40.1,30.03,NNW,338,2.0,2.9,87,0.00,,---,0.00,VWS V14.01,2013-02-22 09:16:00,
2013-02-22 01:17:00,43.7,40.1,30.03,NNW,338,2.5,3.8,87,0.00,,---,0.00,VWS V14.01,2013-02-22 09:17:00,
2013-02-22 01:18:00,43.7,40.1,30.03,East,90,0.0,2.7,87,0.00,,---,0.00,VWS V14.01,2013-02-22 09:18:00,
2013-02-22 01:19:00,43.7,40.1,30.03,NNE,22,2.2,2.2,87,0.00,,---,0.00,VWS V14.01,2013-02-22 09:19:00,
2013-02-22 01:20:00,43.7,40.1,30.03,WNW,292,1.3,2.2,87,0.00,,---,0.00,VWS V14.01,2013-02-22 09:20:00,
2013-02-22 01:21:00,43.7,40.1,30.03,NNW,338,1.3,3.1,87,0.00,,---,0.00,VWS V14.01,2013-02-22 09:21:00,
2013-02-22 01:22:00,43.7,40.1,30.03,NNW,338,2.9,4.7,87,0.00,,---,0.00,VWS V14.01,2013-02-22 09:22:00,
2013-02-22 01:23:00,43.7,40.1,30.03,SE,135,0.9,2.9,87,0.00,,---,0.00,VWS V14.01,2013-02-22 09:23:00,
2013-02-22 01:24:00,43.7,40.1,30.03,ENE,68,2.2,4.3,87,0.00,,---,0.00,VWS V14.01,2013-02-22 09:24:00,
2013-02-22 01:25:00,43.7,40.1,30.03,NNE,22,2.5,7.4,87,0.00,,---,0.00,VWS V14.01,2013-02-22 09:25:00,
2013-02-22 01:26:00,43.7,40.1,30.03,WNW,292,1.1,2.5,87,0.00,,---,0.00,VWS V14.01,2013-02-22 09:26:00,
2013-02-22 01:27:00,43.7,40.1,30.03,NNE,22,2.7,2.7,87,0.00,,---,0.00,VWS V14.01,2013-02-22 09:27:00,
2013-02-22 01:28:00,43.7,40.1,30.03,WNW,292,3.6,7.8,87,0.00,,---,0.00,VWS V14.01,2013-02-22 09:28:00,
2013-02-22 01:29:00,43.7,40.1,30.03,North,0,1.3,3.8,87,0.00,,---,0.00,VWS V14.01,2013-02-22 09:29:00,
2013-02-22 01:30:00,43.7,40.1,30.03,North,0,3.1,3.1,87,0.00,,---,0.00,VWS V14.01,2013-02-22 09:30:00,
2013-02-22 01:31:00,43.7,40.1,30.03,NNE,22,0.0,3.1,87,0.00,,---,0.00,VWS V14.01,2013-02-22 09:31:00,
2013-02-22 01:32:00,44.1,40.2,30.03,East,90,0.0,2.0,86,0.00,,---,0.00,VWS V14.01,2013-02-22 09:32:00,
2013-02-22 01:33:00,43.7,40.1,30.03,NNW,338,1.6,3.1,87,0.00,,---,0.00,VWS V14.01,2013-02-22 09:33:00,
2013-02-22 01:34:00,43.7,40.1,30.03,South,180,1.3,1.6,87,0.00,,---,0.00,VWS V14.01,2013-02-22 09:34:00,
2013-02-22 01:35:00,43.7,40.1,30.03,North,0,0.0,1.3,87,0.00,,---,0.00,VWS V14.01,2013-02-22 09:35:00,
2013-02-22 01:36:00,43.7,40.1,30.03,North,0,2.5,4.3,87,0.00,,---,0.00,VWS V14.01,2013-02-22 09:36:00,
2013-02-22 01:37:00,43.7,40.1,30.03,WNW,292,0.0,3.1,87,0.00,,---,0.00,VWS V14.01,2013-02-22 09:37:00,
2013-02-22 01:38:00,43.7,40.1,30.03,North,0,0.9,0.9,87,0.00,,---,0.00,VWS V14.01,2013-02-22 09:38:00,
2013-02-22 01:39:00,43.7,40.1,30.03,SE,135,0.0,2.0,87,0.00,,---,0.00,VWS V14.01,2013-02-22 09:39:00,
2013-02-22 01:40:00,43.7,40.1,30.03,NNE,22,7.6,7.6,87,0.00,,---,0.00,VWS V14.01,2013-02-22 09:40:00,
2013-02-22 01:41:00,43.7,40.1,30.03,ESE,112,1.3,4.7,87,0.00,,---,0.00,VWS V14.01,2013-02-22 09:41:00,
2013-02-22 01:42:00,43.9,40.3,30.03,NNW,338,2.2,3.6,87,0.00,,---,0.00,VWS V14.01,2013-02-22 09:42:00,
2013-02-22 01:43:00,43.9,40.3,30.03,NNE,22,2.0,2.7,87,0.00,,---,0.00,VWS V14.01,2013-02-22 09:43:00,
2013-02-22 01:44:00,43.9,40.3,30.03,NNW,338,3.6,3.6,87,0.00,,---,0.00,VWS V14.01,2013-02-22 09:44:00,
2013-02-22 01:45:00,43.9,40.3,30.03,NW,315,2.2,3.6,87,0.00,,---,0.00,VWS V14.01,2013-02-22 09:45:00,
2013-02-22 01:46:00,43.9,40.3,30.03,WNW,292,1.3,3.8,87,0.00,,---,0.00,VWS V14.01,2013-02-22 09:46:00,
2013-02-22 01:47:00,43.9,40.3,30.03,NNE,22,2.9,3.6,87,0.00,,---,0.00,VWS V14.01,2013-02-22 09:47:00,
2013-02-22 01:48:00,43.9,40.3,30.03,NNE,22,4.3,4.3,87,0.00,,---,0.00,VWS V14.01,2013-02-22 09:48:00,
2013-02-22 01:49:00,43.9,40.3,30.03,East,90,2.9,4.3,87,0.00,,---,0.00,VWS V14.01,2013-02-22 09:49:00,
2013-02-22 01:50:00,43.9,40.3,30.03,NNE,22,3.4,3.4,87,0.00,,---,0.00,VWS V14.01,2013-02-22 09:50:00,
2013-02-22 01:51:00,43.9,40.3,30.03,WNW,292,0.0,2.7,87,0.00,,---,0.00,VWS V14.01,2013-02-22 09:51:00,
2013-02-22 01:52:00,43.9,40.3,30.03,South,180,1.3,1.3,87,0.00,,---,0.00,VWS V14.01,2013-02-22 09:52:00,
2013-02-22 01:53:00,43.9,40.3,30.03,North,0,1.3,1.3,87,0.00,,---,0.00,VWS V14.01,2013-02-22 09:53:00,
2013-02-22 01:54:00,43.9,40.3,30.03,WNW,292,0.0,1.3,87,0.00,,---,0.00,VWS V14.01,2013-02-22 09:54:00,
2013-02-22 01:55:00,43.9,40.3,30.03,North,0,0.0,2.9,87,0.00,,---,0.00,VWS V14.01,2013-02-22 09:55:00,
2013-02-22 01:56:00,44.1,40.2,30.03,North,0,1.6,4.0,86,0.00,,---,0.00,VWS V14.01,2013-02-22 09:56:00,
2013-02-22 01:57:00,43.9,40.3,30.03,ENE,68,1.3,1.3,87,0.00,,---,0.00,VWS V14.01,2013-02-22 09:57:00,
2013-02-22 01:58:00,43.9,40.3,30.03,NNW,338,4.9,4.9,87,0.00,,---,0.00,VWS V14.01,2013-02-22 09:58:00,
2013-02-22 01:59:00,43.9,40.3,30.03,ESE,112,3.6,4.9,87,0.00,,---,0.00,VWS V14.01,2013-02-22 09:59:00,
2013-02-22 02:00:00,43.9,40.3,30.03,WNW,292,1.3,3.6,87,0.00,,---,0.00,VWS V14.01,2013-02-22 10:00:00,
2013-02-22 02:01:00,43.9,40.3,30.03,NNE,22,2.0,2.0,87,0.00,,---,0.00,VWS V14.01,2013-02-22 10:01:00,
2013-02-22 02:02:00,43.9,40.3,30.03,NE,45,0.9,2.0,87,0.00,,---,0.00,VWS V14.01,2013-02-22 10:02:00,
2013-02-22 02:03:00,43.9,40.3,30.03,NW,315,5.4,5.4,87,0.00,,---,0.00,VWS V14.01,2013-02-22 10:03:00,
2013-02-22 02:04:00,43.9,40.3,30.03,SW,225,0.0,5.4,87,0.00,,---,0.00,VWS V14.01,2013-02-22 10:04:00,
2013-02-22 02:05:00,43.9,40.3,30.03,SE,135,0.0,0.0,87,0.00,,---,0.00,VWS V14.01,2013-02-22 10:05:00,
2013-02-22 02:06:00,43.9,40.3,30.03,NNW,338,0.0,2.9,87,0.00,,---,0.00,VWS V14.01,2013-02-22 10:06:00,
2013-02-22 02:07:00,43.9,40.3,30.03,East,90,2.2,2.7,87,0.00,,---,0.00,VWS V14.01,2013-02-22 10:07:00,
2013-02-22 02:08:00,43.9,40.3,30.03,ESE,112,2.5,2.7,87,0.00,,---,0.00,VWS V14.01,2013-02-22 10:08:00,
2013-02-22 02:09:00,43.9,40.3,30.03,NNE,22,0.0,2.5,87,0.00,,---,0.00,VWS V14.01,2013-02-22 10:09:00,
2013-02-22 02:10:00,43.9,40.3,30.03,NNW,338,0.0,0.0,87,0.00,,---,0.00,VWS V14.01,2013-02-22 10:10:00,
2013-02-22 02:11:00,43.9,40.3,30.03,NNW,338,2.7,4.0,87,0.00,,---,0.00,VWS V14.01,2013-02-22 10:11:00,
2013-02-22 02:12:00,43.9,40.3,30.03,North,0,1.3,3.4,87,0.00,,---,0.00,VWS V14.01,2013-02-22 10:12:00,
2013-02-22 02:13:00,43.9,40.3,30.03,NE,45,1.3,2.7,87,0.00,,---,0.00,VWS V14.01,2013-02-22 10:13:00,
2013-02-22 02:14:00,43.9,40.3,30.03,NW,315,0.0,1.3,87,0.00,,---,0.00,VWS V14.01,2013-02-22 10:14:00,
2013-02-22 02:15:00,43.9,40.3,30.03,SSE,158,2.5,2.5,87,0.00,,---,0.00,VWS V14.01,2013-02-22 10:15:00,
2013-02-22 02:16:00,43.9,40.3,30.03,WNW,292,0.9,3.1,87,0.00,,---,0.00,VWS V14.01,2013-02-22 10:16:00,
2013-02-22 02:17:00,43.9,40.3,30.03,North,0,2.9,2.9,87,0.00,,---,0.00,VWS V14.01,2013-02-22 10:17:00,
2013-02-22 02:18:00,43.9,40.3,30.03,NNW,338,5.6,5.6,87,0.00,,---,0.00,VWS V14.01,2013-02-22 10:18:00,
2013-02-22 02:19:00,43.9,40.3,30.03,NNE,22,2.2,5.6,87,0.00,,---,0.00,VWS V14.01,2013-02-22 10:19:00,
2013-02-22 02:20:00,43.9,40.3,30.03,SW,225,1.1,2.2,87,0.00,,---,0.00,VWS V14.01,2013-02-22 10:20:00,
2013-02-22 02:21:00,43.9,40.3,30.03,North,0,5.8,5.8,87,0.00,,---,0.00,VWS V14.01,2013-02-22 10:21:00,
2013-02-22 02:22:00,43.9,40.3,30.03,NNW,338,4.9,5.8,87,0.00,,---,0.00,VWS V14.01,2013-02-22 10:22:00,
2013-02-22 02:23:00,43.9,40.3,30.03,NNE,22,3.8,5.4,87,0.00,,---,0.00,VWS V14.01,2013-02-22 10:23:00,
2013-02-22 02:24:00,43.9,40.0,30.03,NNE,22,2.7,3.8,86,0.00,,---,0.00,VWS V14.01,2013-02-22 10:24:00,
2013-02-22 02:25:00,44.1,40.2,30.03,NNW,338,3.1,3.1,86,0.00,,---,0.00,VWS V14.01,2013-02-22 10:25:00,
2013-02-22 02:26:00,44.1,40.2,30.03,North,0,2.9,3.8,86,0.00,,---,0.00,VWS V14.01,2013-02-22 10:26:00,
2013-02-22 02:27:00,44.1,40.2,30.03,NNE,22,4.9,4.9,86,0.00,,---,0.00,VWS V14.01,2013-02-22 10:27:00,
2013-02-22 02:28:00,44.1,40.2,30.03,ENE,68,1.3,4.9,86,0.00,,---,0.00,VWS V14.01,2013-02-22 10:28:00,
2013-02-22 02:29:00,44.1,40.2,30.03,WNW,292,2.7,2.7,86,0.00,,---,0.00,VWS V14.01,2013-02-22 10:29:00,
2013-02-22 02:30:00,44.1,40.2,30.03,NNW,338,2.2,2.7,86,0.00,,---,0.00,VWS V14.01,2013-02-22 10:30:00,
2013-02-22 02:31:00,44.1,40.2,30.03,North,0,2.0,2.0,86,0.00,,---,0.00,VWS V14.01,2013-02-22 10:31:00,
2013-02-22 02:32:00,44.1,40.2,30.03,East,90,0.0,2.0,86,0.00,,---,0.00,VWS V14.01,2013-02-22 10:32:00,
2013-02-22 02:33:00,44.1,40.2,30.03,NNE,22,0.0,0.9,86,0.00,,---,0.00,VWS V14.01,2013-02-22 10:33:00,
2013-02-22 02:34:00,44.1,40.2,30.03,ENE,68,3.8,3.8,86,0.00,,---,0.00,VWS V14.01,2013-02-22 10:34:00,
2013-02-22 02:35:00,44.1,40.2,30.03,NNW,338,1.3,3.8,86,0.00,,---,0.00,VWS V14.01,2013-02-22 10:35:00,
2013-02-22 02:36:00,44.1,40.2,30.03,North,0,2.7,2.7,86,0.00,,---,0.00,VWS V14.01,2013-02-22 10:36:00,
2013-02-22 02:37:00,44.1,40.2,30.03,ESE,112,4.7,4.7,86,0.00,,---,0.00,VWS V14.01,2013-02-22 10:37:00,
2013-02-22 02:38:00,44.1,40.2,30.03,NE,45,2.0,6.3,86,0.00,,---,0.00,VWS V14.01,2013-02-22 10:38:00,
2013-02-22 02:39:00,44.1,40.2,30.03,North,0,1.6,4.7,86,0.00,,---,0.00,VWS V14.01,2013-02-22 10:39:00,
2013-02-22 02:40:00,44.1,40.2,30.03,WNW,292,2.0,2.0,86,0.00,,---,0.00,VWS V14.01,2013-02-22 10:40:00,
2013-02-22 02:41:00,44.1,40.2,30.03,SSW,202,1.3,4.3,86,0.00,,---,0.00,VWS V14.01,2013-02-22 10:41:00,
2013-02-22 02:42:00,44.1,40.2,30.03,NNW,338,3.6,3.6,86,0.00,,---,0.00,VWS V14.01,2013-02-22 10:42:00,
2013-02-22 02:43:00,44.1,40.2,30.03,North,0,0.0,3.6,86,0.00,,---,0.00,VWS V14.01,2013-02-22 10:43:00,
2013-02-22 02:44:00,44.1,40.2,30.03,WNW,292,0.0,0.0,86,0.00,,---,0.00,VWS V14.01,2013-02-22 10:44:00,
2013-02-22 02:45:00,44.1,40.2,30.03,WNW,292,0.0,0.0,86,0.00,,---,0.00,VWS V14.01,2013-02-22 10:45:00,
2013-02-22 02:46:00,44.1,40.2,30.03,ENE,68,0.9,2.7,86,0.00,,---,0.00,VWS V14.01,2013-02-22 10:46:00,
2013-02-22 02:47:00,44.1,40.2,30.03,ESE,112,2.7,3.8,86,0.00,,---,0.00,VWS V14.01,2013-02-22 10:47:00,
2013-02-22 02:48:00,44.1,40.2,30.03,NE,45,2.0,2.9,86,0.00,,---,0.00,VWS V14.01,2013-02-22 10:48:00,
2013-02-22 02:49:00,44.1,40.2,30.03,NNW,338,3.4,3.6,86,0.00,,---,0.00,VWS V14.01,2013-02-22 10:49:00,
2013-02-22 02:50:00,44.1,40.2,30.03,NNE,22,2.5,5.6,86,0.00,,---,0.00,VWS V14.01,2013-02-22 10:50:00,
2013-02-22 02:51:00,44.1,40.2,30.03,North,0,2.7,3.8,86,0.00,,---,0.00,VWS V14.01,2013-02-22 10:51:00,
2013-02-22 02:52:00,44.1,40.2,30.03,SW,225,0.0,2.7,86,0.00,,---,0.00,VWS V14.01,2013-02-22 10:52:00,
2013-02-22 02:53:00,44.1,40.2,30.03,NNE,22,2.5,4.3,86,0.00,,---,0.00,VWS V14.01,2013-02-22 10:53:00,
2013-02-22 02:54:00,44.1,40.2,30.03,East,90,1.3,2.0,86,0.00,,---,0.00,VWS V14.01,2013-02-22 10:54:00,
2013-02-22 02:55:00,44.1,40.2,30.03,SSE,158,2.7,2.7,86,0.00,,---,0.00,VWS V14.01,2013-02-22 10:55:00,
2013-02-22 02:56:00,44.1,40.2,30.03,North,0,1.6,4.0,86,0.00,,---,0.00,VWS V14.01,2013-02-22 10:56:00,
2013-02-22 02:57:00,44.1,40.2,30.03,North,0,2.5,3.6,86,0.00,,---,0.00,VWS V14.01,2013-02-22 10:57:00,
2013-02-22 02:58:00,44.1,40.2,30.03,SE,135,3.1,3.1,86,0.00,,---,0.00,VWS V14.01,2013-02-22 10:58:00,
2013-02-22 02:59:00,44.1,40.2,30.03,East,90,0.0,3.1,86,0.00,,---,0.00,VWS V14.01,2013-02-22 10:59:00,
2013-02-22 03:00:00,44.1,40.2,30.03,NNE,22,2.7,2.7,86,0.00,,---,0.00,VWS V14.01,2013-02-22 11:00:00,
2013-02-22 03:01:00,44.1,40.2,30.03,WNW,292,2.0,2.0,86,0.00,,---,0.00,VWS V14.01,2013-02-22 11:01:00,
2013-02-22 03:02:00,44.1,40.2,30.03,NNW,338,2.7,4.0,86,0.00,,---,0.00,VWS V14.01,2013-02-22 11:02:00,
2013-02-22 03:03:00,44.1,40.2,30.03,NNE,22,1.6,5.8,86,0.00,,---,0.00,VWS V14.01,2013-02-22 11:03:00,
2013-02-22 03:04:00,44.1,40.2,30.03,NNE,22,3.1,3.1,86,0.00,,---,0.00,VWS V14.01,2013-02-22 11:04:00,
2013-02-22 03:05:00,44.1,40.2,30.03,NNW,338,1.6,3.8,86,0.00,,---,0.00,VWS V14.01,2013-02-22 11:05:00,
2013-02-22 03:06:00,44.1,40.2,30.03,NE,45,2.5,2.5,86,0.00,,---,0.00,VWS V14.01,2013-02-22 11:06:00,
2013-02-22 03:07:00,44.1,40.2,30.03,NE,45,0.9,4.0,86,0.00,,---,0.00,VWS V14.01,2013-02-22 11:07:00,
2013-02-22 03:08:00,44.1,40.2,30.03,East,90,0.0,1.3,86,0.00,,---,0.00,VWS V14.01,2013-02-22 11:08:00,
2013-02-22 03:09:00,44.1,40.2,30.03,NNW,338,3.6,3.6,86,0.00,,---,0.00,VWS V14.01,2013-02-22 11:09:00,
2013-02-22 03:10:00,44.1,40.2,30.03,NNE,22,2.7,3.8,86,0.00,,---,0.00,VWS V14.01,2013-02-22 11:10:00,
2013-02-22 03:11:00,44.1,40.5,30.03,East,90,0.0,2.2,87,0.00,,---,0.00,VWS V14.01,2013-02-22 11:11:00,
2013-02-22 03:12:00,44.1,40.5,30.03,East,90,3.4,3.4,87,0.00,,---,0.00,VWS V14.01,2013-02-22 11:12:00,
2013-02-22 03:13:00,43.9,40.3,30.03,SE,135,0.0,3.4,87,0.00,,---,0.00,VWS V14.01,2013-02-22 11:13:00,
2013-02-22 03:14:00,43.9,40.3,30.03,SSW,202,3.6,3.6,87,0.00,,---,0.00,VWS V14.01,2013-02-22 11:14:00,
2013-02-22 03:15:00,43.9,40.3,30.03,ENE,68,0.0,3.6,87,0.00,,---,0.00,VWS V14.01,2013-02-22 11:15:00,
2013-02-22 03:16:00,43.9,40.3,30.03,East,90,5.4,6.3,87,0.00,,---,0.00,VWS V14.01,2013-02-22 11:16:00,
2013-02-22 03:17:00,44.1,40.5,30.03,NNE,22,0.0,5.4,87,0.00,,---,0.00,VWS V14.01,2013-02-22 11:17:00,
2013-02-22 03:18:00,44.1,40.5,30.03,East,90,0.0,2.7,87,0.00,,---,0.00,VWS V14.01,2013-02-22 11:18:00,
2013-02-22 03:19:00,44.1,40.5,30.03,North,0,2.2,2.7,87,0.00,,---,0.00,VWS V14.01,2013-02-22 11:19:00,
2013-02-22 03:20:00,44.1,40.5,30.03,NW,315,0.0,2.2,87,0.00,,---,0.00,VWS V14.01,2013-02-22 11:20:00,
2013-02-22 03:21:00,44.1,40.2,30.03,North,0,2.5,3.4,86,0.00,,---,0.00,VWS V14.01,2013-02-22 11:21:00,
2013-02-22 03:22:00,44.1,40.2,30.03,NNW,338,0.9,2.5,86,0.00,,---,0.00,VWS V14.01,2013-02-22 11:22:00,
2013-02-22 03:23:00,44.1,40.2,30.03,NNW,338,1.3,1.3,86,0.00,,---,0.00,VWS V14.01,2013-02-22 11:23:00,
2013-02-22 03:24:00,44.1,40.2,30.03,NNE,22,2.5,4.3,86,0.00,,---,0.00,VWS V14.01,2013-02-22 11:24:00,
2013-02-22 03:25:00,44.1,40.2,30.03,NNW,338,2.7,2.9,86,0.00,,---,0.00,VWS V14.01,2013-02-22 11:25:00,
2013-02-22 03:26:00,44.1,40.2,30.03,North,0,2.7,6.3,86,0.00,,---,0.00,VWS V14.01,2013-02-22 11:26:00,
2013-02-22 03:27:00,44.1,40.2,30.03,NNW,338,4.3,4.3,86,0.00,,---,0.00,VWS V14.01,2013-02-22 11:27:00,
2013-02-22 03:28:00,44.2,40.3,30.00,SE,135,2.9,3.4,86,0.00,,---,0.00,VWS V14.01,2013-02-22 11:28:00,
2013-02-22 03:29:00,44.1,40.2,30.03,South,180,2.0,2.0,86,0.00,,---,0.00,VWS V14.01,2013-02-22 11:29:00,
2013-02-22 03:30:00,44.1,40.2,30.03,NNW,338,2.5,2.5,86,0.00,,---,0.00,VWS V14.01,2013-02-22 11:30:00,
2013-02-22 03:31:00,44.1,40.2,30.03,NNE,22,2.5,2.7,86,0.00,,---,0.00,VWS V14.01,2013-02-22 11:31:00,
2013-02-22 03:32:00,44.1,40.2,30.03,WSW,248,0.9,5.6,86,0.00,,---,0.00,VWS V14.01,2013-02-22 11:32:00,
2013-02-22 03:33:00,44.1,40.2,30.03,NNW,338,4.3,4.3,86,0.00,,---,0.00,VWS V14.01,2013-02-22 11:33:00,
2013-02-22 03:34:00,44.1,40.2,30.03,NW,315,4.3,6.3,86,0.00,,---,0.00,VWS V14.01,2013-02-22 11:34:00,
2013-02-22 03:35:00,44.1,40.2,30.03,NE,45,3.6,7.4,86,0.00,,---,0.00,VWS V14.01,2013-02-22 11:35:00,
2013-02-22 03:36:00,44.1,40.2,30.03,NNW,338,2.0,2.5,86,0.00,,---,0.00,VWS V14.01,2013-02-22 11:36:00,
2013-02-22 03:37:00,44.1,40.2,30.03,WNW,292,2.7,2.7,86,0.00,,---,0.00,VWS V14.01,2013-02-22 11:37:00,
2013-02-22 03:38:00,44.1,40.2,30.03,North,0,3.4,3.4,86,0.00,,---,0.00,VWS V14.01,2013-02-22 11:38:00,
2013-02-22 03:39:00,44.1,40.2,30.03,WNW,292,1.6,5.8,86,0.00,,---,0.00,VWS V14.01,2013-02-22 11:39:00,
2013-02-22 03:40:00,44.1,40.2,30.03,North,0,4.3,4.3,86,0.00,,---,0.00,VWS V14.01,2013-02-22 11:40:00,
2013-02-22 03:41:00,44.1,40.2,30.03,North,0,2.7,4.9,86,0.00,,---,0.00,VWS V14.01,2013-02-22 11:41:00,
2013-02-22 03:42:00,44.1,40.2,30.03,SE,135,0.0,2.7,86,0.00,,---,0.00,VWS V14.01,2013-02-22 11:42:00,
2013-02-22 03:43:00,44.1,40.2,30.03,WNW,292,2.5,2.5,86,0.00,,---,0.00,VWS V14.01,2013-02-22 11:43:00,
2013-02-22 03:44:00,44.1,40.2,30.03,NNE,22,2.9,2.9,86,0.00,,---,0.00,VWS V14.01,2013-02-22 11:44:00,
2013-02-22 03:45:00,44.1,40.2,30.03,WSW,248,3.4,4.3,86,0.00,,---,0.00,VWS V14.01,2013-02-22 11:45:00,
2013-02-22 03:46:00,44.1,40.2,30.03,NNE,22,3.1,3.1,86,0.00,,---,0.00,VWS V14.01,2013-02-22 11:46:00,
2013-02-22 03:47:00,44.1,40.2,30.03,WNW,292,2.7,3.1,86,0.00,,---,0.00,VWS V14.01,2013-02-22 11:47:00,
2013-02-22 03:48:00,44.2,40.3,29.97,WNW,292,4.3,4.3,86,0.00,,---,0.00,VWS V14.01,2013-02-22 11:48:00,
2013-02-22 03:49:00,44.2,40.3,29.97,SSE,158,5.4,5.4,86,0.00,,---,0.00,VWS V14.01,2013-02-22 11:49:00,
2013-02-22 03:50:00,44.1,40.2,30.03,NNE,22,3.8,3.8,86,0.00,,---,0.00,VWS V14.01,2013-02-22 11:50:00,
2013-02-22 03:51:00,44.1,40.2,30.03,ESE,112,3.1,4.5,86,0.00,,---,0.00,VWS V14.01,2013-02-22 11:51:00,
2013-02-22 03:52:00,44.1,40.2,30.03,North,0,4.3,4.3,86,0.00,,---,0.00,VWS V14.01,2013-02-22 11:52:00,
2013-02-22 03:53:00,44.1,40.2,30.03,NNE,22,2.5,4.3,86,0.00,,---,0.00,VWS V14.01,2013-02-22 11:53:00,
2013-02-22 03:54:00,44.1,40.2,30.03,WNW,292,0.0,4.0,86,0.00,,---,0.00,VWS V14.01,2013-02-22 11:54:00,
2013-02-22 03:55:00,44.1,40.2,30.03,WNW,292,0.0,0.0,86,0.00,,---,0.00,VWS V14.01,2013-02-22 11:55:00,
2013-02-22 03:57:00,44.1,40.2,30.03,West,270,2.5,3.6,86,0.00,,---,0.00,VWS V14.01,2013-02-22 11:57:00,
2013-02-22 03:58:00,44.1,40.2,30.03,NNE,22,2.5,3.1,86,0.00,,---,0.00,VWS V14.01,2013-02-22 11:58:00,
2013-02-22 03:59:00,44.1,40.2,30.03,NE,45,3.1,6.3,86,0.00,,---,0.00,VWS V14.01,2013-02-22 11:59:00,
2013-02-22 04:00:00,44.1,40.2,30.03,NE,45,3.1,3.1,86,0.00,,---,0.00,VWS V14.01,2013-02-22 12:00:00,
2013-02-22 04:01:00,44.1,40.2,30.03,North,0,2.9,2.9,86,0.00,,---,0.00,VWS V14.01,2013-02-22 12:01:00,
2013-02-22 04:02:00,44.1,40.2,30.00,NNW,338,2.7,3.4,86,0.00,,---,0.00,VWS V14.01,2013-02-22 12:02:00,
2013-02-22 04:03:00,44.1,40.2,30.00,SE,135,0.0,3.1,86,0.00,,---,0.00,VWS V14.01,2013-02-22 12:03:00,
2013-02-22 04:04:00,44.1,40.2,30.00,NNW,338,2.0,2.5,86,0.00,,---,0.00,VWS V14.01,2013-02-22 12:04:00,
2013-02-22 04:05:00,44.1,40.2,30.00,NW,315,3.4,3.4,86,0.00,,---,0.00,VWS V14.01,2013-02-22 12:05:00,
2013-02-22 04:06:00,44.1,40.2,30.00,East,90,2.9,3.8,86,0.00,,---,0.00,VWS V14.01,2013-02-22 12:06:00,
2013-02-22 04:07:00,44.1,40.2,30.00,WSW,248,2.5,2.9,86,0.00,,---,0.00,VWS V14.01,2013-02-22 12:07:00,
2013-02-22 04:08:00,44.1,40.2,30.00,NE,45,2.0,2.9,86,0.00,,---,0.00,VWS V14.01,2013-02-22 12:08:00,
2013-02-22 04:09:00,44.1,40.2,30.00,North,0,1.3,3.4,86,0.00,,---,0.00,VWS V14.01,2013-02-22 12:09:00,
2013-02-22 04:10:00,44.1,40.2,30.00,WSW,248,0.0,1.3,86,0.00,,---,0.00,VWS V14.01,2013-02-22 12:10:00,
2013-02-22 04:11:00,44.1,40.2,30.00,NNW,338,0.9,2.9,86,0.00,,---,0.00,VWS V14.01,2013-02-22 12:11:00,
2013-02-22 04:12:00,44.1,40.2,30.00,NNE,22,2.0,2.0,86,0.00,,---,0.00,VWS V14.01,2013-02-22 12:12:00,
2013-02-22 04:13:00,44.1,40.2,30.00,WNW,292,0.0,2.2,86,0.00,,---,0.00,VWS V14.01,2013-02-22 12:13:00,
2013-02-22 04:14:00,44.1,40.2,30.00,East,90,3.4,3.4,86,0.00,,---,0.00,VWS V14.01,2013-02-22 12:14:00,
2013-02-22 04:15:00,44.1,40.2,30.00,NW,315,2.7,3.4,86,0.00,,---,0.00,VWS V14.01,2013-02-22 12:15:00,
2013-02-22 04:16:00,44.1,40.2,30.00,NW,315,4.9,5.4,86,0.00,,---,0.00,VWS V14.01,2013-02-22 12:16:00,
2013-02-22 04:17:00,44.1,40.2,30.00,NNE,22,3.6,7.6,86,0.00,,---,0.00,VWS V14.01,2013-02-22 12:17:00,
2013-02-22 04:18:00,44.1,40.2,30.00,North,0,2.5,3.6,86,0.00,,---,0.00,VWS V14.01,2013-02-22 12:18:00,
2013-02-22 04:19:00,44.1,40.2,30.00,NNE,22,4.3,4.3,86,0.00,,---,0.00,VWS V14.01,2013-02-22 12:19:00,
2013-02-22 04:20:00,44.2,40.3,30.00,North,0,2.9,4.3,86,0.00,,---,0.00,VWS V14.01,2013-02-22 12:20:00,
2013-02-22 04:21:00,44.2,40.3,30.00,NNE,22,1.1,3.4,86,0.00,,---,0.00,VWS V14.01,2013-02-22 12:21:00,
2013-02-22 04:22:00,44.2,40.3,30.00,ENE,68,2.5,5.6,86,0.00,,---,0.00,VWS V14.01,2013-02-22 12:22:00,
2013-02-22 04:23:00,44.2,40.3,30.00,NNE,22,1.1,2.7,86,0.00,,---,0.00,VWS V14.01,2013-02-22 12:23:00,
2013-02-22 04:24:00,44.2,40.3,30.00,NW,315,2.0,4.3,86,0.00,,---,0.00,VWS V14.01,2013-02-22 12:24:00,
2013-02-22 04:25:00,44.2,40.3,30.00,ESE,112,1.6,4.3,86,0.00,,---,0.00,VWS V14.01,2013-02-22 12:25:00,
2013-02-22 04:26:00,44.2,40.3,30.00,East,90,2.5,6.3,86,0.00,,---,0.00,VWS V14.01,2013-02-22 12:26:00,
2013-02-22 04:27:00,44.2,40.3,30.00,ENE,68,2.0,3.8,86,0.00,,---,0.00,VWS V14.01,2013-02-22 12:27:00,
2013-02-22 04:28:00,44.2,40.3,30.00,SE,135,2.9,3.4,86,0.00,,---,0.00,VWS V14.01,2013-02-22 12:28:00,
2013-02-22 04:29:00,44.2,40.3,30.00,WNW,292,0.0,4.3,86,0.00,,---,0.00,VWS V14.01,2013-02-22 12:29:00,
2013-02-22 04:30:00,44.2,40.3,30.00,East,90,3.1,4.3,86,0.00,,---,0.00,VWS V14.01,2013-02-22 12:30:00,
2013-02-22 04:31:00,44.2,40.3,30.00,NNW,338,3.4,3.4,86,0.00,,---,0.00,VWS V14.01,2013-02-22 12:31:00,
2013-02-22 04:32:00,44.2,40.3,30.00,WSW,248,0.0,3.4,86,0.00,,---,0.00,VWS V14.01,2013-02-22 12:32:00,
2013-02-22 04:33:00,44.2,40.3,30.00,North,0,2.2,2.7,86,0.00,,---,0.00,VWS V14.01,2013-02-22 12:33:00,
2013-02-22 04:34:00,44.2,40.3,30.00,NNE,22,2.0,3.1,86,0.00,,---,0.00,VWS V14.01,2013-02-22 12:34:00,
2013-02-22 04:35:00,44.2,40.3,30.00,WNW,292,2.9,3.1,86,0.00,,---,0.00,VWS V14.01,2013-02-22 12:35:00,
2013-02-22 04:36:00,44.2,40.3,30.00,NNW,338,2.9,3.6,86,0.00,,---,0.00,VWS V14.01,2013-02-22 12:36:00,
2013-02-22 04:37:00,44.2,40.3,30.00,East,90,1.1,2.9,86,0.00,,---,0.00,VWS V14.01,2013-02-22 12:37:00,
2013-02-22 04:38:00,44.2,40.3,30.00,WNW,292,2.9,4.0,86,0.00,,---,0.00,VWS V14.01,2013-02-22 12:38:00,
2013-02-22 04:39:00,44.2,40.3,30.00,SW,225,2.9,3.4,86,0.00,,---,0.00,VWS V14.01,2013-02-22 12:39:00,
2013-02-22 04:40:00,44.2,40.3,30.00,SSW,202,0.0,3.4,86,0.00,,---,0.00,VWS V14.01,2013-02-22 12:40:00,
2013-02-22 04:41:00,44.2,40.3,30.00,NNW,338,2.0,2.5,86,0.00,,---,0.00,VWS V14.01,2013-02-22 12:41:00,
2013-02-22 04:42:00,44.2,40.3,30.00,South,180,4.3,5.4,86,0.00,,---,0.00,VWS V14.01,2013-02-22 12:42:00,
2013-02-22 04:43:00,44.2,40.3,30.00,NE,45,1.3,4.3,86,0.00,,---,0.00,VWS V14.01,2013-02-22 12:43:00,
2013-02-22 04:44:00,44.2,40.3,30.00,West,270,1.3,2.7,86,0.00,,---,0.00,VWS V14.01,2013-02-22 12:44:00,
2013-02-22 04:45:00,44.2,40.3,30.00,SE,135,0.9,2.7,86,0.00,,---,0.00,VWS V14.01,2013-02-22 12:45:00,
2013-02-22 04:46:00,44.2,40.3,30.00,NNE,22,3.4,3.4,86,0.00,,---,0.00,VWS V14.01,2013-02-22 12:46:00,
2013-02-22 04:47:00,44.2,40.3,29.97,ENE,68,2.2,3.4,86,0.00,,---,0.00,VWS V14.01,2013-02-22 12:47:00,
2013-02-22 04:48:00,44.2,40.3,29.97,WNW,292,4.3,4.3,86,0.00,,---,0.00,VWS V14.01,2013-02-22 12:48:00,
2013-02-22 04:49:00,44.2,40.3,29.97,North,0,3.8,5.4,86,0.00,,---,0.00,VWS V14.01,2013-02-22 12:49:00,
2013-02-22 04:50:00,44.2,40.3,29.97,NNW,338,4.7,8.1,86,0.00,,---,0.00,VWS V14.01,2013-02-22 12:50:00,
2013-02-22 04:51:00,44.2,40.3,29.97,NNE,22,4.3,7.4,86,0.00,,---,0.00,VWS V14.01,2013-02-22 12:51:00,
2013-02-22 04:52:00,44.2,40.3,29.97,SSW,202,0.0,4.3,86,0.00,,---,0.00,VWS V14.01,2013-02-22 12:52:00,
2013-02-22 04:53:00,44.2,40.3,29.97,NNW,338,1.1,4.0,86,0.00,,---,0.00,VWS V14.01,2013-02-22 12:53:00,
2013-02-22 04:54:00,44.2,40.3,29.97,ESE,112,4.0,4.9,86,0.00,,---,0.00,VWS V14.01,2013-02-22 12:54:00,
2013-02-22 04:55:00,44.2,40.3,29.97,SE,135,2.9,4.9,86,0.00,,---,0.00,VWS V14.01,2013-02-22 12:55:00,
2013-02-22 04:56:00,44.2,40.3,29.97,WNW,292,1.6,5.6,86,0.00,,---,0.00,VWS V14.01,2013-02-22 12:56:00,
2013-02-22 04:57:00,44.2,40.3,29.97,NNW,338,1.6,4.3,86,0.00,,---,0.00,VWS V14.01,2013-02-22 12:57:00,
2013-02-22 04:58:00,44.2,40.3,29.97,SSE,158,2.5,2.9,86,0.00,,---,0.00,VWS V14.01,2013-02-22 12:58:00,
2013-02-22 04:59:00,44.2,40.3,29.97,East,90,1.6,1.6,86,0.00,,---,0.00,VWS V14.01,2013-02-22 12:59:00,
2013-02-22 05:00:00,44.2,40.3,29.97,ENE,68,3.4,3.4,86,0.00,,---,0.00,VWS V14.01,2013-02-22 13:00:00,
2013-02-22 05:01:00,44.2,40.3,29.97,SW,225,0.0,4.7,86,0.00,,---,0.00,VWS V14.01,2013-02-22 13:01:00,
2013-02-22 05:02:00,44.2,40.3,29.97,East,90,2.0,2.0,86,0.00,,---,0.00,VWS V14.01,2013-02-22 13:02:00,
2013-02-22 05:03:00,44.2,40.3,29.97,SSE,158,2.2,3.4,86,0.00,,---,0.00,VWS V14.01,2013-02-22 13:03:00,
2013-02-22 05:04:00,44.2,40.3,29.97,NNW,338,8.5,8.5,86,0.00,,---,0.00,VWS V14.01,2013-02-22 13:04:00,
2013-02-22 05:05:00,44.2,40.3,29.97,West,270,6.5,8.5,86,0.00,,---,0.00,VWS V14.01,2013-02-22 13:05:00,
2013-02-22 05:06:00,44.2,40.3,29.97,North,0,2.9,8.5,86,0.00,,---,0.00,VWS V14.01,2013-02-22 13:06:00,
2013-02-22 05:07:00,44.2,40.3,29.97,NNW,338,2.0,2.9,86,0.00,,---,0.00,VWS V14.01,2013-02-22 13:07:00,
2013-02-22 05:08:00,44.2,40.3,29.97,NNW,338,0.9,2.7,86,0.00,,---,0.00,VWS V14.01,2013-02-22 13:08:00,
2013-02-22 05:09:00,44.2,40.3,29.97,NNW,338,2.0,2.0,86,0.00,,---,0.00,VWS V14.01,2013-02-22 13:09:00,
2013-02-22 05:10:00,44.2,40.3,29.97,NW,315,3.4,3.4,86,0.00,,---,0.00,VWS V14.01,2013-02-22 13:10:00,
2013-02-22 05:11:00,44.2,40.3,29.97,NW,315,3.4,3.4,86,0.00,,---,0.00,VWS V14.01,2013-02-22 13:11:00,
2013-02-22 05:12:00,44.2,40.3,29.97,East,90,0.9,3.6,86,0.00,,---,0.00,VWS V14.01,2013-02-22 13:12:00,
2013-02-22 05:13:00,44.2,40.3,29.97,SSE,158,1.6,4.7,86,0.00,,---,0.00,VWS V14.01,2013-02-22 13:13:00,
2013-02-22 05:14:00,44.2,40.3,29.97,WSW,248,3.8,3.8,86,0.00,,---,0.00,VWS V14.01,2013-02-22 13:14:00,
2013-02-22 05:15:00,44.2,40.3,29.97,NNE,22,5.6,5.6,86,0.00,,---,0.00,VWS V14.01,2013-02-22 13:15:00,
2013-02-22 05:16:00,44.4,40.5,29.97,NNW,338,0.9,5.6,86,0.00,,---,0.00,VWS V14.01,2013-02-22 13:16:00,
2013-02-22 05:17:00,44.4,40.5,29.97,North,0,2.5,3.1,86,0.00,,---,0.00,VWS V14.01,2013-02-22 13:17:00,
2013-02-22 05:18:00,44.4,40.5,29.97,NNE,22,1.6,4.0,86,0.00,,---,0.00,VWS V14.01,2013-02-22 13:18:00,
2013-02-22 05:19:00,44.4,40.5,29.97,NNE,22,3.1,3.1,86,0.00,,---,0.00,VWS V14.01,2013-02-22 13:19:00,
2013-02-22 05:20:00,44.4,40.2,29.97,NNE,22,0.0,4.3,85,0.00,,---,0.00,VWS V14.01,2013-02-22 13:20:00,
2013-02-22 05:21:00,44.4,40.2,29.97,NNW,338,3.6,3.6,85,0.00,,---,0.00,VWS V14.01,2013-02-22 13:21:00,
2013-02-22 05:22:00,44.4,40.2,29.97,NE,45,0.0,3.6,85,0.00,,---,0.00,VWS V14.01,2013-02-22 13:22:00,
2013-02-22 05:23:00,44.4,40.2,29.97,SSE,158,0.0,4.7,85,0.00,,---,0.00,VWS V14.01,2013-02-22 13:23:00,
2013-02-22 05:24:00,44.4,40.2,29.97,ESE,112,3.4,3.4,85,0.00,,---,0.00,VWS V14.01,2013-02-22 13:24:00,
2013-02-22 05:25:00,44.8,39.6,29.94,NE,45,1.6,3.4,82,0.00,,---,0.00,VWS V14.01,2013-02-22 13:25:00,
2013-02-22 05:26:00,44.4,40.2,29.97,ESE,112,3.4,3.4,85,0.00,,---,0.00,VWS V14.01,2013-02-22 13:26:00,
2013-02-22 05:27:00,44.4,40.2,29.97,North,0,2.7,3.4,85,0.00,,---,0.00,VWS V14.01,2013-02-22 13:27:00,
2013-02-22 05:28:00,44.4,40.2,29.97,ESE,112,3.4,3.4,85,0.00,,---,0.00,VWS V14.01,2013-02-22 13:28:00,
2013-02-22 05:29:00,44.4,40.2,29.97,WNW,292,2.2,2.2,85,0.00,,---,0.00,VWS V14.01,2013-02-22 13:29:00,
2013-02-22 05:30:00,44.4,40.2,29.97,North,0,2.5,2.9,85,0.00,,---,0.00,VWS V14.01,2013-02-22 13:30:00,
2013-02-22 05:31:00,44.4,40.2,29.97,NNW,338,2.9,2.9,85,0.00,,---,0.00,VWS V14.01,2013-02-22 13:31:00,
2013-02-22 05:32:00,44.4,40.2,30.00,NNW,338,2.5,2.9,85,0.00,,---,0.00,VWS V14.01,2013-02-22 13:32:00,
2013-02-22 05:33:00,44.4,40.2,30.00,SE,135,1.6,2.5,85,0.00,,---,0.00,VWS V14.01,2013-02-22 13:33:00,
2013-02-22 05:34:00,44.6,40.4,30.00,NE,45,2.5,2.5,85,0.00,,---,0.00,VWS V14.01,2013-02-22 13:34:00,
2013-02-22 05:35:00,44.6,40.4,30.00,NNE,22,2.5,3.8,85,0.00,,---,0.00,VWS V14.01,2013-02-22 13:35:00,
2013-02-22 05:36:00,44.6,40.4,30.00,East,90,2.5,4.3,85,0.00,,---,0.00,VWS V14.01,2013-02-22 13:36:00,
2013-02-22 05:37:00,44.6,40.4,30.00,WSW,248,1.3,2.5,85,0.00,,---,0.00,VWS V14.01,2013-02-22 13:37:00,
2013-02-22 05:38:00,44.6,40.4,30.00,WNW,292,0.0,1.3,85,0.00,,---,0.00,VWS V14.01,2013-02-22 13:38:00,
2013-02-22 05:39:00,44.6,40.1,30.00,NW,315,1.3,3.1,84,0.00,,---,0.00,VWS V14.01,2013-02-22 13:39:00,
2013-02-22 05:40:00,44.6,40.1,30.00,WNW,292,1.6,3.1,84,0.00,,---,0.00,VWS V14.01,2013-02-22 13:40:00,
2013-02-22 05:41:00,44.6,40.1,30.00,NNE,22,5.4,5.4,84,0.00,,---,0.00,VWS V14.01,2013-02-22 13:41:00,
2013-02-22 05:42:00,44.6,40.1,30.00,ESE,112,2.7,5.4,84,0.00,,---,0.00,VWS V14.01,2013-02-22 13:42:00,
2013-02-22 05:43:00,44.6,40.1,30.00,NE,45,1.6,4.0,84,0.00,,---,0.00,VWS V14.01,2013-02-22 13:43:00,
2013-02-22 05:44:00,44.6,40.1,30.00,NW,315,2.7,2.9,84,0.00,,---,0.00,VWS V14.01,2013-02-22 13:44:00,
2013-02-22 05:45:00,44.6,40.1,30.00,NW,315,2.7,2.9,84,0.00,,---,0.00,VWS V14.01,2013-02-22 13:45:00,
2013-02-22 05:46:00,44.6,40.1,30.00,North,0,2.9,4.3,84,0.00,,---,0.00,VWS V14.01,2013-02-22 13:46:00,
2013-02-22 05:47:00,44.6,40.1,29.97,North,0,3.8,3.8,84,0.00,,---,0.00,VWS V14.01,2013-02-22 13:47:00,
2013-02-22 05:48:00,44.6,40.1,29.97,East,90,3.1,5.6,84,0.00,,---,0.00,VWS V14.01,2013-02-22 13:48:00,
2013-02-22 05:49:00,44.6,40.1,29.97,North,0,2.0,2.5,84,0.00,,---,0.00,VWS V14.01,2013-02-22 13:49:00,
2013-02-22 05:50:00,44.6,40.1,29.97,East,90,3.8,3.8,84,0.00,,---,0.00,VWS V14.01,2013-02-22 13:50:00,
2013-02-22 05:51:00,44.6,40.1,29.97,NW,315,2.2,4.0,84,0.00,,---,0.00,VWS V14.01,2013-02-22 13:51:00,
2013-02-22 05:52:00,44.6,40.1,29.97,NNE,22,0.9,2.2,84,0.00,,---,0.00,VWS V14.01,2013-02-22 13:52:00,
2013-02-22 05:53:00,44.6,40.1,29.97,WNW,292,5.4,5.4,84,0.00,,---,0.00,VWS V14.01,2013-02-22 13:53:00,
2013-02-22 05:54:00,44.6,40.1,29.97,SE,135,2.2,3.1,84,0.00,,---,0.00,VWS V14.01,2013-02-22 13:54:00,
2013-02-22 05:55:00,44.8,40.2,29.97,SE,135,1.1,3.1,84,0.00,,---,0.00,VWS V14.01,2013-02-22 13:55:00,
2013-02-22 05:56:00,44.8,40.2,29.97,NNW,338,4.3,4.3,84,0.00,,---,0.00,VWS V14.01,2013-02-22 13:56:00,
2013-02-22 05:57:00,45.1,39.3,29.97,North,0,2.5,7.2,80,0.00,,---,0.00,VWS V14.01,2013-02-22 13:57:00,
2013-02-22 05:58:00,44.6,40.1,29.97,ENE,68,2.9,4.3,84,0.00,,---,0.00,VWS V14.01,2013-02-22 13:58:00,
2013-02-22 05:59:00,44.8,39.9,29.97,SE,135,2.5,3.8,83,0.00,,---,0.00,VWS V14.01,2013-02-22 13:59:00,
2013-02-22 06:00:00,44.8,39.9,29.97,North,0,2.7,3.8,83,0.00,,---,0.00,VWS V14.01,2013-02-22 14:00:00,
2013-02-22 06:01:00,44.8,39.9,29.97,North,0,1.3,4.7,83,0.00,,---,0.00,VWS V14.01,2013-02-22 14:01:00,
2013-02-22 06:02:00,44.8,39.9,29.97,ENE,68,3.4,4.7,83,0.00,,---,0.00,VWS V14.01,2013-02-22 14:02:00,
2013-02-22 06:03:00,44.8,39.9,29.97,East,90,2.9,3.4,83,0.00,,---,0.00,VWS V14.01,2013-02-22 14:03:00,
2013-02-22 06:04:00,44.8,39.9,29.97,North,0,0.9,2.0,83,0.00,,---,0.00,VWS V14.01,2013-02-22 14:04:00,
2013-02-22 06:05:00,44.8,39.9,29.97,NNE,22,2.0,2.7,83,0.00,,---,0.00,VWS V14.01,2013-02-22 14:05:00,
2013-02-22 06:06:00,44.8,39.9,29.97,NNE,22,2.5,5.4,83,0.00,,---,0.00,VWS V14.01,2013-02-22 14:06:00,
2013-02-22 06:07:00,45.1,39.3,29.94,NNE,22,4.7,4.7,80,0.00,,---,0.00,VWS V14.01,2013-02-22 14:07:00,
2013-02-22 06:08:00,44.8,39.9,29.97,ESE,112,0.0,3.1,83,0.00,,---,0.00,VWS V14.01,2013-02-22 14:08:00,
2013-02-22 06:09:00,44.8,39.9,29.97,ENE,68,1.6,1.6,83,0.00,,---,0.00,VWS V14.01,2013-02-22 14:09:00,
2013-02-22 06:10:00,44.8,39.9,29.97,NW,315,1.1,3.4,83,0.00,,---,0.00,VWS V14.01,2013-02-22 14:10:00,
2013-02-22 06:11:00,44.8,39.9,29.97,NNE,22,2.9,4.3,83,0.00,,---,0.00,VWS V14.01,2013-02-22 14:11:00,
2013-02-22 06:12:00,44.8,39.9,29.97,WNW,292,3.6,4.0,83,0.00,,---,0.00,VWS V14.01,2013-02-22 14:12:00,
2013-02-22 06:13:00,44.8,39.9,29.97,NNW,338,1.1,3.6,83,0.00,,---,0.00,VWS V14.01,2013-02-22 14:13:00,
2013-02-22 06:14:00,44.8,39.9,29.97,NE,45,2.2,3.6,83,0.00,,---,0.00,VWS V14.01,2013-02-22 14:14:00,
2013-02-22 06:15:00,44.8,39.9,29.97,ESE,112,3.8,3.8,83,0.00,,---,0.00,VWS V14.01,2013-02-22 14:15:00,
2013-02-22 06:16:00,44.8,39.9,29.97,ESE,112,2.5,5.6,83,0.00,,---,0.00,VWS V14.01,2013-02-22 14:16:00,
2013-02-22 06:17:00,44.8,39.9,29.94,North,0,4.0,4.0,83,0.00,,---,0.00,VWS V14.01,2013-02-22 14:17:00,
2013-02-22 06:18:00,44.8,39.9,29.94,NNE,22,2.2,4.0,83,0.00,,---,0.00,VWS V14.01,2013-02-22 14:18:00,
2013-02-22 06:19:00,44.8,39.9,29.94,NNE,22,4.0,4.3,83,0.00,,---,0.00,VWS V14.01,2013-02-22 14:19:00,
2013-02-22 06:20:00,44.8,39.6,29.94,NNW,338,2.5,4.3,82,0.00,,---,0.00,VWS V14.01,2013-02-22 14:20:00,
2013-02-22 06:21:00,44.8,39.6,29.94,WNW,292,1.6,2.5,82,0.00,,---,0.00,VWS V14.01,2013-02-22 14:21:00,
2013-02-22 06:22:00,44.8,39.6,29.94,NNE,22,2.5,3.6,82,0.00,,---,0.00,VWS V14.01,2013-02-22 14:22:00,
2013-02-22 06:23:00,44.8,39.6,29.94,NNW,338,0.9,2.5,82,0.00,,---,0.00,VWS V14.01,2013-02-22 14:23:00,
2013-02-22 06:24:00,44.8,39.6,29.94,North,0,2.2,3.4,82,0.00,,---,0.00,VWS V14.01,2013-02-22 14:24:00,
2013-02-22 06:25:00,44.8,39.6,29.94,NE,45,1.6,3.4,82,0.00,,---,0.00,VWS V14.01,2013-02-22 14:25:00,
2013-02-22 06:26:00,45.0,39.8,29.94,East,90,3.8,5.6,82,0.00,,---,0.00,VWS V14.01,2013-02-22 14:26:00,
2013-02-22 06:27:00,45.0,39.8,29.94,NNW,338,0.0,3.8,82,0.00,,---,0.00,VWS V14.01,2013-02-22 14:27:00,
2013-02-22 06:28:00,45.0,39.8,29.94,NNE,22,2.2,2.2,82,0.00,,---,0.00,VWS V14.01,2013-02-22 14:28:00,
2013-02-22 06:29:00,45.0,39.8,29.94,NW,315,2.9,3.1,82,0.00,,---,0.00,VWS V14.01,2013-02-22 14:29:00,
2013-02-22 06:30:00,45.0,39.8,29.94,NE,45,0.0,4.0,82,0.00,,---,0.00,VWS V14.01,2013-02-22 14:30:00,
2013-02-22 06:31:00,45.0,39.8,29.94,NW,315,3.1,3.8,82,0.00,,---,0.00,VWS V14.01,2013-02-22 14:31:00,
2013-02-22 06:32:00,45.0,39.8,29.97,NE,45,2.0,3.1,82,0.00,,---,0.00,VWS V14.01,2013-02-22 14:32:00,
2013-02-22 06:33:00,45.0,39.8,29.97,NNW,338,0.9,2.0,82,0.00,,---,0.00,VWS V14.01,2013-02-22 14:33:00,
2013-02-22 06:34:00,45.0,39.8,29.97,East,90,5.8,5.8,82,0.00,,---,0.00,VWS V14.01,2013-02-22 14:34:00,
2013-02-22 06:35:00,45.0,39.8,29.97,NNE,22,7.6,7.6,82,0.00,,---,0.00,VWS V14.01,2013-02-22 14:35:00,
2013-02-22 06:36:00,45.0,39.8,29.97,North,0,5.4,7.6,82,0.00,,---,0.00,VWS V14.01,2013-02-22 14:36:00,
2013-02-22 06:37:00,45.0,39.8,29.97,NNW,338,2.0,5.4,82,0.00,,---,0.00,VWS V14.01,2013-02-22 14:37:00,
2013-02-22 06:38:00,45.1,39.7,29.97,SSW,202,6.0,6.0,81,0.00,,---,0.00,VWS V14.01,2013-02-22 14:38:00,
2013-02-22 06:39:00,45.1,39.7,29.97,East,90,2.7,6.3,81,0.00,,---,0.00,VWS V14.01,2013-02-22 14:39:00,
2013-02-22 06:40:00,45.1,39.7,29.97,East,90,2.7,6.3,81,0.00,,---,0.00,VWS V14.01,2013-02-22 14:40:00,
2013-02-22 06:41:00,45.1,39.7,29.97,NW,315,10.5,10.5,81,0.00,,---,0.00,VWS V14.01,2013-02-22 14:41:00,
2013-02-22 06:42:00,45.1,39.7,29.97,North,0,3.1,10.5,81,0.00,,---,0.00,VWS V14.01,2013-02-22 14:42:00,
2013-02-22 06:43:00,45.1,39.7,29.97,WNW,292,1.1,3.6,81,0.00,,---,0.00,VWS V14.01,2013-02-22 14:43:00,
2013-02-22 06:44:00,45.1,39.7,29.97,ENE,68,4.3,4.3,81,0.00,,---,0.00,VWS V14.01,2013-02-22 14:44:00,
2013-02-22 06:45:00,45.1,39.7,29.97,NNE,22,3.4,4.9,81,0.00,,---,0.00,VWS V14.01,2013-02-22 14:45:00,
2013-02-22 06:46:00,45.1,39.7,29.97,ENE,68,4.9,4.9,81,0.00,,---,0.00,VWS V14.01,2013-02-22 14:46:00,
2013-02-22 06:47:00,45.1,39.7,29.97,East,90,2.9,4.9,81,0.00,,---,0.00,VWS V14.01,2013-02-22 14:47:00,
2013-02-22 06:48:00,45.1,39.7,29.97,ENE,68,2.7,2.9,81,0.00,,---,0.00,VWS V14.01,2013-02-22 14:48:00,
2013-02-22 06:49:00,45.1,39.3,29.97,North,0,3.6,3.6,80,0.00,,---,0.00,VWS V14.01,2013-02-22 14:49:00,
2013-02-22 06:50:00,45.1,39.3,29.97,NE,45,3.1,3.6,80,0.00,,---,0.00,VWS V14.01,2013-02-22 14:50:00,
2013-02-22 06:51:00,45.1,39.3,29.97,SE,135,3.8,6.5,80,0.00,,---,0.00,VWS V14.01,2013-02-22 14:51:00,
2013-02-22 06:52:00,45.3,39.8,29.94,WNW,292,2.0,5.6,81,0.00,,---,0.00,VWS V14.01,2013-02-22 14:52:00,
2013-02-22 06:53:00,45.3,39.8,29.94,ENE,68,6.3,6.3,81,0.00,,---,0.00,VWS V14.01,2013-02-22 14:53:00,
2013-02-22 06:54:00,45.1,39.3,29.97,ESE,112,4.0,4.0,80,0.00,,---,0.00,VWS V14.01,2013-02-22 14:54:00,
2013-02-22 06:55:00,45.1,39.3,29.97,NNW,338,1.6,4.0,80,0.00,,---,0.00,VWS V14.01,2013-02-22 14:55:00,
2013-02-22 06:56:00,45.1,39.3,29.97,NNW,338,7.2,7.2,80,0.00,,---,0.00,VWS V14.01,2013-02-22 14:56:00,
2013-02-22 06:57:00,45.1,39.3,29.97,North,0,2.5,7.2,80,0.00,,---,0.00,VWS V14.01,2013-02-22 14:57:00,
2013-02-22 06:58:00,45.1,39.3,29.97,East,90,4.0,4.0,80,0.00,,---,0.00,VWS V14.01,2013-02-22 14:58:00,
2013-02-22 06:59:00,45.1,39.3,29.97,South,180,2.7,3.1,80,0.00,,---,0.00,VWS V14.01,2013-02-22 14:59:00,
2013-02-22 07:00:00,45.1,39.3,29.97,NNW,338,4.0,4.0,80,0.00,,---,0.00,VWS V14.01,2013-02-22 15:00:00,
2013-02-22 07:01:00,45.1,39.3,29.97,ENE,68,4.0,4.0,80,0.00,,---,0.00,VWS V14.01,2013-02-22 15:01:00,
2013-02-22 07:02:00,45.1,39.3,29.94,ENE,68,2.7,6.3,80,0.00,,---,0.00,VWS V14.01,2013-02-22 15:02:00,
2013-02-22 07:03:00,45.1,39.3,29.94,ESE,112,4.3,8.7,80,0.00,,---,0.00,VWS V14.01,2013-02-22 15:03:00,
2013-02-22 07:04:00,45.1,39.3,29.94,SSE,158,3.4,4.9,80,0.00,,---,0.00,VWS V14.01,2013-02-22 15:04:00,
2013-02-22 07:05:00,45.1,39.3,29.94,SSW,202,2.5,4.9,80,0.00,,---,0.00,VWS V14.01,2013-02-22 15:05:00,
2013-02-22 07:06:00,45.1,39.3,29.94,East,90,2.7,2.7,80,0.00,,---,0.00,VWS V14.01,2013-02-22 15:06:00,
2013-02-22 07:07:00,45.1,39.3,29.94,NNE,22,4.7,4.7,80,0.00,,---,0.00,VWS V14.01,2013-02-22 15:07:00,
2013-02-22 07:08:00,45.1,39.3,29.94,SSE,158,3.6,4.7,80,0.00,,---,0.00,VWS V14.01,2013-02-22 15:08:00,
2013-02-22 07:09:00,45.1,39.3,29.94,East,90,2.0,5.4,80,0.00,,---,0.00,VWS V14.01,2013-02-22 15:09:00,
2013-02-22 07:10:00,45.1,39.3,29.94,WNW,292,3.1,5.4,80,0.00,,---,0.00,VWS V14.01,2013-02-22 15:10:00,
2013-02-22 07:11:00,45.1,39.3,29.94,NNW,338,2.5,3.1,80,0.00,,---,0.00,VWS V14.01,2013-02-22 15:11:00,
2013-02-22 07:12:00,45.1,39.3,29.94,NNE,22,2.5,3.8,80,0.00,,---,0.00,VWS V14.01,2013-02-22 15:12:00,
2013-02-22 07:13:00,45.1,39.3,29.94,NNE,22,1.6,2.9,80,0.00,,---,0.00,VWS V14.01,2013-02-22 15:13:00,
2013-02-22 07:14:00,45.1,39.3,29.94,WNW,292,2.5,4.0,80,0.00,,---,0.00,VWS V14.01,2013-02-22 15:14:00,
2013-02-22 07:15:00,45.1,39.3,29.94,NNE,22,3.6,5.4,80,0.00,,---,0.00,VWS V14.01,2013-02-22 15:15:00,
2013-02-22 07:16:00,45.1,39.3,29.94,North,0,4.9,4.9,80,0.00,,---,0.00,VWS V14.01,2013-02-22 15:16:00,
2013-02-22 07:17:00,45.1,39.3,29.94,East,90,4.7,7.8,80,0.00,,---,0.00,VWS V14.01,2013-02-22 15:17:00,
2013-02-22 07:18:00,45.1,39.3,29.94,WNW,292,3.1,4.7,80,0.00,,---,0.00,VWS V14.01,2013-02-22 15:18:00,
2013-02-22 07:19:00,45.1,39.3,29.94,WNW,292,3.6,4.0,80,0.00,,---,0.00,VWS V14.01,2013-02-22 15:19:00,
2013-02-22 07:20:00,45.1,39.3,29.94,WNW,292,3.6,4.0,80,0.00,,---,0.00,VWS V14.01,2013-02-22 15:20:00,
2013-02-22 07:21:00,45.1,39.3,29.94,NNE,22,6.9,6.9,80,0.00,,---,0.00,VWS V14.01,2013-02-22 15:21:00,
2013-02-22 07:22:00,45.1,39.3,29.94,NE,45,2.5,7.2,80,0.00,,---,0.00,VWS V14.01,2013-02-22 15:22:00,
2013-02-22 07:23:00,45.1,39.3,29.94,NNE,22,2.5,6.0,80,0.00,,---,0.00,VWS V14.01,2013-02-22 15:23:00,
2013-02-22 07:24:00,45.1,39.3,29.94,NNE,22,2.5,3.1,80,0.00,,---,0.00,VWS V14.01,2013-02-22 15:24:00,
2013-02-22 07:25:00,45.1,39.3,29.94,WNW,292,3.4,4.0,80,0.00,,---,0.00,VWS V14.01,2013-02-22 15:25:00,
2013-02-22 07:26:00,45.1,39.3,29.94,West,270,4.3,5.4,80,0.00,,---,0.00,VWS V14.01,2013-02-22 15:26:00,
2013-02-22 07:27:00,45.1,39.3,29.94,North,0,3.1,5.4,80,0.00,,---,0.00,VWS V14.01,2013-02-22 15:27:00,
2013-02-22 07:28:00,45.1,39.3,29.94,NNE,22,4.9,4.9,80,0.00,,---,0.00,VWS V14.01,2013-02-22 15:28:00,
2013-02-22 07:29:00,45.1,39.3,29.94,NNW,338,2.0,3.4,80,0.00,,---,0.00,VWS V14.01,2013-02-22 15:29:00,
2013-02-22 07:30:00,45.1,39.3,29.94,NNE,22,3.8,4.9,80,0.00,,---,0.00,VWS V14.01,2013-02-22 15:30:00,
2013-02-22 07:31:00,45.1,39.7,29.94,NNE,22,3.8,5.8,81,0.00,,---,0.00,VWS V14.01,2013-02-22 15:31:00,
2013-02-22 07:32:00,45.1,39.7,29.91,NW,315,3.4,4.0,81,0.00,,---,0.00,VWS V14.01,2013-02-22 15:32:00,
2013-02-22 07:33:00,45.3,39.8,29.91,East,90,3.4,5.6,81,0.00,,---,0.00,VWS V14.01,2013-02-22 15:33:00,
2013-02-22 07:34:00,45.3,39.8,29.91,North,0,3.8,4.3,81,0.00,,---,0.00,VWS V14.01,2013-02-22 15:34:00,
2013-02-22 07:35:00,45.3,39.8,29.91,NNE,22,3.4,4.3,81,0.00,,---,0.00,VWS V14.01,2013-02-22 15:35:00,
2013-02-22 07:36:00,45.3,39.8,29.91,NE,45,4.9,5.4,81,0.00,,---,0.00,VWS V14.01,2013-02-22 15:36:00,
2013-02-22 07:37:00,45.3,39.8,29.91,NNE,22,3.6,4.9,81,0.00,,---,0.00,VWS V14.01,2013-02-22 15:37:00,
2013-02-22 07:38:00,45.3,39.8,29.91,NNW,338,2.5,3.6,81,0.00,,---,0.00,VWS V14.01,2013-02-22 15:38:00,
2013-02-22 07:39:00,45.3,39.8,29.91,West,270,2.2,3.8,81,0.00,,---,0.00,VWS V14.01,2013-02-22 15:39:00,
2013-02-22 07:40:00,45.3,39.8,29.91,NNW,338,1.6,3.8,81,0.00,,---,0.00,VWS V14.01,2013-02-22 15:40:00,
2013-02-22 07:41:00,45.3,39.8,29.91,East,90,2.9,4.0,81,0.00,,---,0.00,VWS V14.01,2013-02-22 15:41:00,
2013-02-22 07:42:00,45.3,39.8,29.91,North,0,6.9,6.9,81,0.00,,---,0.00,VWS V14.01,2013-02-22 15:42:00,
2013-02-22 07:43:00,45.3,39.8,29.91,NNW,338,2.0,6.9,81,0.00,,---,0.00,VWS V14.01,2013-02-22 15:43:00,
2013-02-22 07:44:00,45.3,39.8,29.91,East,90,4.9,5.6,81,0.00,,---,0.00,VWS V14.01,2013-02-22 15:44:00,
2013-02-22 07:45:00,45.3,39.8,29.91,SSE,158,2.9,5.6,81,0.00,,---,0.00,VWS V14.01,2013-02-22 15:45:00,
2013-02-22 07:46:00,45.3,39.8,29.91,WNW,292,3.1,4.3,81,0.00,,---,0.00,VWS V14.01,2013-02-22 15:46:00,
2013-02-22 07:47:00,45.3,39.8,29.91,WNW,292,3.1,3.1,81,0.00,,---,0.00,VWS V14.01,2013-02-22 15:47:00,
2013-02-22 07:48:00,45.3,39.8,29.94,NNW,338,3.4,4.0,81,0.00,,---,0.00,VWS V14.01,2013-02-22 15:48:00,
2013-02-22 07:49:00,45.3,39.8,29.94,NE,45,3.1,3.6,81,0.00,,---,0.00,VWS V14.01,2013-02-22 15:49:00,
2013-02-22 07:50:00,45.3,39.8,29.94,North,0,2.5,4.3,81,0.00,,---,0.00,VWS V14.01,2013-02-22 15:50:00,
2013-02-22 07:51:00,45.3,39.8,29.94,North,0,2.9,3.6,81,0.00,,---,0.00,VWS V14.01,2013-02-22 15:51:00,
2013-02-22 07:52:00,45.3,39.8,29.94,WNW,292,2.0,5.6,81,0.00,,---,0.00,VWS V14.01,2013-02-22 15:52:00,
2013-02-22 07:53:00,45.3,39.8,29.94,ENE,68,6.3,6.3,81,0.00,,---,0.00,VWS V14.01,2013-02-22 15:53:00,
2013-02-22 07:54:00,45.3,39.8,29.94,WNW,292,3.6,3.6,81,0.00,,---,0.00,VWS V14.01,2013-02-22 15:54:00,
2013-02-22 07:55:00,45.3,39.8,29.94,NNW,338,3.4,4.9,81,0.00,,---,0.00,VWS V14.01,2013-02-22 15:55:00,
2013-02-22 07:56:00,45.3,39.8,29.94,East,90,0.0,4.3,81,0.00,,---,0.00,VWS V14.01,2013-02-22 15:56:00,
2013-02-22 07:57:00,45.3,39.8,29.94,ENE,68,1.3,3.8,81,0.00,,---,0.00,VWS V14.01,2013-02-22 15:57:00,
2013-02-22 07:58:00,45.3,40.2,29.94,SE,135,2.5,3.4,82,0.00,,---,0.00,VWS V14.01,2013-02-22 15:58:00,
2013-02-22 07:59:00,45.3,40.2,29.94,NNE,22,3.8,6.5,82,0.00,,---,0.00,VWS V14.01,2013-02-22 15:59:00,
2013-02-22 08:00:00,45.3,40.2,29.94,NNE,22,2.9,6.5,82,0.00,,---,0.00,VWS V14.01,2013-02-22 16:00:00,
2013-02-22 08:01:00,45.3,40.2,29.94,SSW,202,7.8,9.8,82,0.00,,---,0.00,VWS V14.01,2013-02-22 16:01:00,
2013-02-22 08:02:00,45.3,39.8,29.91,WSW,248,4.7,7.8,81,0.00,,---,0.00,VWS V14.01,2013-02-22 16:02:00,
2013-02-22 08:03:00,45.3,40.2,29.91,ENE,68,3.6,4.9,82,0.00,,---,0.00,VWS V14.01,2013-02-22 16:03:00,
2013-02-22 08:04:00,45.3,40.2,29.91,NNW,338,4.3,4.3,82,0.00,,---,0.00,VWS V14.01,2013-02-22 16:04:00,
2013-02-22 08:05:00,45.3,40.2,29.91,NNW,338,4.3,4.3,82,0.00,,---,0.00,VWS V14.01,2013-02-22 16:05:00,
2013-02-22 08:06:00,45.3,40.2,29.91,SE,135,2.5,4.3,82,0.00,,---,0.00,VWS V14.01,2013-02-22 16:06:00,
2013-02-22 08:07:00,45.3,40.2,29.91,WNW,292,3.1,3.1,82,0.00,,---,0.00,VWS V14.01,2013-02-22 16:07:00,
2013-02-22 08:08:00,45.3,40.2,29.91,SE,135,6.3,6.3,82,0.00,,---,0.00,VWS V14.01,2013-02-22 16:08:00,
2013-02-22 08:09:00,45.3,40.2,29.91,NNW,338,1.6,3.8,82,0.00,,---,0.00,VWS V14.01,2013-02-22 16:09:00,
2013-02-22 08:10:00,45.3,40.2,29.91,SE,135,2.9,6.0,82,0.00,,---,0.00,VWS V14.01,2013-02-22 16:10:00,
2013-02-22 08:11:00,45.3,40.2,29.91,NNW,338,2.0,4.7,82,0.00,,---,0.00,VWS V14.01,2013-02-22 16:11:00,
2013-02-22 08:12:00,45.3,40.2,29.91,NNE,22,2.5,4.7,82,0.00,,---,0.00,VWS V14.01,2013-02-22 16:12:00,
2013-02-22 08:13:00,45.3,40.2,29.91,NNW,338,4.9,4.9,82,0.00,,---,0.00,VWS V14.01,2013-02-22 16:13:00,
2013-02-22 08:14:00,45.3,40.2,29.91,WNW,292,8.5,8.5,82,0.00,,---,0.00,VWS V14.01,2013-02-22 16:14:00,
2013-02-22 08:15:00,45.3,40.2,29.91,WNW,292,8.5,8.5,82,0.00,,---,0.00,VWS V14.01,2013-02-22 16:15:00,
2013-02-22 08:16:00,45.3,40.2,29.91,WNW,292,2.9,8.5,82,0.00,,---,0.00,VWS V14.01,2013-02-22 16:16:00,
2013-02-22 08:17:00,45.3,40.2,29.88,ENE,68,3.8,5.8,82,0.00,,---,0.00,VWS V14.01,2013-02-22 16:17:00,
2013-02-22 08:18:00,45.3,40.2,29.88,NNW,338,5.6,5.6,82,0.00,,---,0.00,VWS V14.01,2013-02-22 16:18:00,
2013-02-22 08:19:00,45.3,40.2,29.88,North,0,7.2,7.2,82,0.00,,---,0.00,VWS V14.01,2013-02-22 16:19:00,
2013-02-22 08:20:00,45.3,40.2,29.88,North,0,7.2,7.2,82,0.00,,---,0.00,VWS V14.01,2013-02-22 16:20:00,
2013-02-22 08:21:00,45.3,40.2,29.88,NNE,22,6.5,7.2,82,0.00,,---,0.00,VWS V14.01,2013-02-22 16:21:00,
2013-02-22 08:22:00,45.3,39.8,29.88,NNW,338,3.6,8.7,81,0.00,,---,0.00,VWS V14.01,2013-02-22 16:22:00,
2013-02-22 08:23:00,45.3,39.8,29.88,ESE,112,4.3,4.3,81,0.00,,---,0.00,VWS V14.01,2013-02-22 16:23:00,
2013-02-22 08:24:00,45.3,40.2,29.88,NNW,338,4.0,4.0,82,0.00,,---,0.00,VWS V14.01,2013-02-22 16:24:00,
2013-02-22 08:25:00,45.3,40.2,29.88,North,0,2.7,4.0,82,0.00,,---,0.00,VWS V14.01,2013-02-22 16:25:00,
2013-02-22 08:26:00,45.3,40.2,29.88,North,0,2.7,2.7,82,0.00,,---,0.00,VWS V14.01,2013-02-22 16:26:00,
2013-02-22 08:27:00,45.3,40.2,29.88,West,270,3.6,7.8,82,0.00,,---,0.00,VWS V14.01,2013-02-22 16:27:00,
2013-02-22 08:28:00,45.3,40.2,29.88,NNW,338,2.9,3.6,82,0.00,,---,0.00,VWS V14.01,2013-02-22 16:28:00,
2013-02-22 08:29:00,45.3,40.2,29.88,North,0,2.5,2.5,82,0.00,,---,0.00,VWS V14.01,2013-02-22 16:29:00,
2013-02-22 08:30:00,45.3,40.2,29.88,NNW,338,5.8,5.8,82,0.00,,---,0.00,VWS V14.01,2013-02-22 16:30:00,
2013-02-22 08:31:00,45.5,40.3,29.88,NE,45,4.7,5.8,82,0.00,,---,0.00,VWS V14.01,2013-02-22 16:31:00,
2013-02-22 08:32:00,45.5,40.3,29.88,South,180,2.5,4.7,82,0.00,,---,0.00,VWS V14.01,2013-02-22 16:32:00,
2013-02-22 08:33:00,45.3,40.2,29.91,NNE,22,3.6,3.6,82,0.00,,---,0.00,VWS V14.01,2013-02-22 16:33:00,
2013-02-22 08:34:00,45.3,40.2,29.91,NNE,22,3.8,4.0,82,0.00,,---,0.00,VWS V14.01,2013-02-22 16:34:00,
2013-02-22 08:35:00,45.3,40.2,29.91,NNE,22,2.7,4.0,82,0.00,,---,0.00,VWS V14.01,2013-02-22 16:35:00,
2013-02-22 08:36:00,45.7,40.5,29.91,WNW,292,4.9,8.7,82,0.00,,---,0.00,VWS V14.01,2013-02-22 16:36:00,
2013-02-22 08:37:00,45.3,40.2,29.91,SSW,202,3.8,5.8,82,0.00,,---,0.00,VWS V14.01,2013-02-22 16:37:00,
2013-02-22 08:38:00,45.3,40.2,29.91,WSW,248,2.2,4.0,82,0.00,,---,0.00,VWS V14.01,2013-02-22 16:38:00,
2013-02-22 08:39:00,45.3,40.2,29.91,NNE,22,2.9,2.9,82,0.00,,---,0.00,VWS V14.01,2013-02-22 16:39:00,
2013-02-22 08:40:00,45.3,40.2,29.91,NNW,338,3.4,4.9,82,0.00,,---,0.00,VWS V14.01,2013-02-22 16:40:00,
2013-02-22 08:41:00,45.3,40.5,29.91,NNW,338,6.3,6.3,83,0.00,,---,0.00,VWS V14.01,2013-02-22 16:41:00,
2013-02-22 08:42:00,45.3,40.5,29.91,North,0,7.4,7.4,83,0.00,,---,0.00,VWS V14.01,2013-02-22 16:42:00,
2013-02-22 08:43:00,45.5,40.7,29.91,NNE,22,2.7,5.4,83,0.00,,---,0.00,VWS V14.01,2013-02-22 16:43:00,
2013-02-22 08:44:00,45.3,40.5,29.91,NNW,338,3.6,3.6,83,0.00,,---,0.00,VWS V14.01,2013-02-22 16:44:00,
2013-02-22 08:45:00,45.3,40.5,29.91,NNW,338,3.6,3.6,83,0.00,,---,0.00,VWS V14.01,2013-02-22 16:45:00,
2013-02-22 08:46:00,45.3,40.2,29.91,SSW,202,3.6,5.8,82,0.00,,---,0.00,VWS V14.01,2013-02-22 16:46:00,
2013-02-22 08:47:00,45.3,40.2,29.91,ENE,68,2.9,7.4,82,0.00,,---,0.00,VWS V14.01,2013-02-22 16:47:00,
2013-02-22 08:48:00,45.3,40.2,29.91,NNE,22,3.6,3.6,82,0.00,,---,0.00,VWS V14.01,2013-02-22 16:48:00,
2013-02-22 08:49:00,45.3,40.2,29.91,NNW,338,4.3,7.6,82,0.00,,---,0.00,VWS V14.01,2013-02-22 16:49:00,
2013-02-22 08:50:00,45.5,41.0,29.91,East,90,2.5,2.5,84,0.04,,---,0.04,VWS V14.01,2013-02-22 16:50:00,
2013-02-22 08:51:00,45.5,40.3,29.91,North,0,3.4,7.6,82,0.00,,---,0.00,VWS V14.01,2013-02-22 16:51:00,
2013-02-22 08:52:00,45.5,40.3,29.91,North,0,3.6,5.8,82,0.00,,---,0.00,VWS V14.01,2013-02-22 16:52:00,
2013-02-22 08:53:00,45.5,40.3,29.91,NE,45,3.4,8.7,82,0.00,,---,0.00,VWS V14.01,2013-02-22 16:53:00,
2013-02-22 08:54:00,45.5,40.3,29.91,NNE,22,3.1,3.8,82,0.00,,---,0.00,VWS V14.01,2013-02-22 16:54:00,
2013-02-22 08:55:00,45.5,40.3,29.91,NE,45,0.9,3.8,82,0.00,,---,0.00,VWS V14.01,2013-02-22 16:55:00,
2013-02-22 08:56:00,45.5,40.3,29.91,SSW,202,2.5,2.9,82,0.00,,---,0.00,VWS V14.01,2013-02-22 16:56:00,
2013-02-22 08:57:00,45.5,40.3,29.91,NNW,338,2.0,5.6,82,0.00,,---,0.00,VWS V14.01,2013-02-22 16:57:00,
2013-02-22 08:58:00,45.5,40.3,29.91,NNW,338,4.0,6.3,82,0.00,,---,0.00,VWS V14.01,2013-02-22 16:58:00,
2013-02-22 08:59:00,45.5,40.3,29.91,NNE,22,2.2,3.8,82,0.00,,---,0.00,VWS V14.01,2013-02-22 16:59:00,
2013-02-22 09:00:00,45.5,40.3,29.91,NW,315,5.4,5.8,82,0.00,,---,0.00,VWS V14.01,2013-02-22 17:00:00,
2013-02-22 09:01:00,45.5,40.3,29.91,NNW,338,3.8,7.2,82,0.00,,---,0.00,VWS V14.01,2013-02-22 17:01:00,
2013-02-22 09:02:00,45.5,40.3,29.91,NW,315,8.7,8.7,82,0.00,,---,0.00,VWS V14.01,2013-02-22 17:02:00,
2013-02-22 09:03:00,45.5,40.0,29.91,North,0,3.6,12.8,81,0.00,,---,0.00,VWS V14.01,2013-02-22 17:03:00,
2013-02-22 09:04:00,45.5,40.0,29.91,East,90,3.1,3.6,81,0.00,,---,0.00,VWS V14.01,2013-02-22 17:04:00,
2013-02-22 09:05:00,45.5,40.0,29.91,NNE,22,5.8,5.8,81,0.00,,---,0.00,VWS V14.01,2013-02-22 17:05:00,
2013-02-22 09:06:00,45.5,40.0,29.91,SW,225,2.9,6.5,81,0.00,,---,0.00,VWS V14.01,2013-02-22 17:06:00,
2013-02-22 09:07:00,45.7,40.2,29.91,WNW,292,4.3,4.3,81,0.00,,---,0.00,VWS V14.01,2013-02-22 17:07:00,
2013-02-22 09:08:00,45.7,40.2,29.91,North,0,3.6,6.0,81,0.00,,---,0.00,VWS V14.01,2013-02-22 17:08:00,
2013-02-22 09:09:00,45.7,40.2,29.91,ENE,68,3.8,5.4,81,0.00,,---,0.00,VWS V14.01,2013-02-22 17:09:00,
2013-02-22 09:10:00,45.7,40.2,29.91,SSW,202,2.5,6.5,81,0.00,,---,0.00,VWS V14.01,2013-02-22 17:10:00,
2013-02-22 09:11:00,45.7,40.2,29.91,WSW,248,2.7,4.3,81,0.00,,---,0.00,VWS V14.01,2013-02-22 17:11:00,
2013-02-22 09:12:00,45.7,40.2,29.91,WNW,292,3.4,3.4,81,0.00,,---,0.00,VWS V14.01,2013-02-22 17:12:00,
2013-02-22 09:13:00,45.7,39.9,29.91,East,90,2.9,8.5,80,0.00,,---,0.00,VWS V14.01,2013-02-22 17:13:00,
2013-02-22 09:14:00,45.7,39.9,29.91,East,90,3.1,3.1,80,0.00,,---,0.00,VWS V14.01,2013-02-22 17:14:00,
2013-02-22 09:15:00,45.7,39.9,29.91,NNE,22,3.1,4.7,80,0.00,,---,0.00,VWS V14.01,2013-02-22 17:15:00,
2013-02-22 09:16:00,45.7,40.2,29.91,NNE,22,2.7,6.0,81,0.00,,---,0.00,VWS V14.01,2013-02-22 17:16:00,
2013-02-22 09:17:00,45.7,40.2,29.91,ENE,68,4.0,7.4,81,0.00,,---,0.00,VWS V14.01,2013-02-22 17:17:00,
2013-02-22 09:18:00,45.7,39.9,29.91,North,0,2.7,8.1,80,0.00,,---,0.00,VWS V14.01,2013-02-22 17:18:00,
2013-02-22 09:19:00,45.7,39.9,29.91,WNW,292,0.9,5.8,80,0.00,,---,0.00,VWS V14.01,2013-02-22 17:19:00,
2013-02-22 09:20:00,45.9,40.0,29.91,SE,135,2.2,3.1,80,0.00,,---,0.00,VWS V14.01,2013-02-22 17:20:00,
2013-02-22 09:21:00,45.9,40.0,29.91,WNW,292,2.9,2.9,80,0.00,,---,0.00,VWS V14.01,2013-02-22 17:21:00,
2013-02-22 09:22:00,45.9,40.0,29.91,North,0,1.3,5.4,80,0.00,,---,0.00,VWS V14.01,2013-02-22 17:22:00,
2013-02-22 09:23:00,45.9,40.0,29.91,NNW,338,6.5,6.5,80,0.00,,---,0.00,VWS V14.01,2013-02-22 17:23:00,
2013-02-22 09:24:00,45.9,40.0,29.91,North,0,7.4,7.4,80,0.00,,---,0.00,VWS V14.01,2013-02-22 17:24:00,
2013-02-22 09:25:00,45.9,40.0,29.91,East,90,2.5,9.8,80,0.00,,---,0.00,VWS V14.01,2013-02-22 17:25:00,
2013-02-22 09:26:00,45.9,40.0,29.91,North,0,5.8,5.8,80,0.00,,---,0.00,VWS V14.01,2013-02-22 17:26:00,
2013-02-22 09:27:00,45.9,40.0,29.91,WSW,248,8.7,8.7,80,0.00,,---,0.00,VWS V14.01,2013-02-22 17:27:00,
2013-02-22 09:28:00,45.9,40.0,29.91,East,90,2.9,8.7,80,0.00,,---,0.00,VWS V14.01,2013-02-22 17:28:00,
2013-02-22 09:29:00,45.9,40.0,29.91,WSW,248,2.7,3.4,80,0.00,,---,0.00,VWS V14.01,2013-02-22 17:29:00,
2013-02-22 09:30:00,45.9,40.0,29.91,NNE,22,2.7,2.7,80,0.00,,---,0.00,VWS V14.01,2013-02-22 17:30:00,
2013-02-22 09:31:00,45.9,40.0,29.91,SE,135,4.0,4.0,80,0.00,,---,0.00,VWS V14.01,2013-02-22 17:31:00,
2013-02-22 09:32:00,45.9,40.4,29.91,NNW,338,2.0,8.7,81,0.00,,---,0.00,VWS V14.01,2013-02-22 17:32:00,
2013-02-22 09:33:00,45.9,40.4,29.91,WNW,292,2.5,5.6,81,0.00,,---,0.00,VWS V14.01,2013-02-22 17:33:00,
2013-02-22 09:34:00,45.9,40.4,29.91,NNW,338,2.7,2.7,81,0.00,,---,0.00,VWS V14.01,2013-02-22 17:34:00,
2013-02-22 09:35:00,45.9,40.4,29.91,NNW,338,4.3,5.6,81,0.00,,---,0.00,VWS V14.01,2013-02-22 17:35:00,
2013-02-22 09:36:00,45.7,40.5,29.91,WNW,292,4.9,8.7,82,0.00,,---,0.00,VWS V14.01,2013-02-22 17:36:00,
2013-02-22 09:37:00,45.7,40.5,29.91,ENE,68,5.6,5.6,82,0.00,,---,0.00,VWS V14.01,2013-02-22 17:37:00,
2013-02-22 09:38:00,45.7,40.5,29.91,NNE,22,2.9,8.1,82,0.00,,---,0.00,VWS V14.01,2013-02-22 17:38:00,
2013-02-22 09:39:00,45.7,40.5,29.91,ENE,68,4.0,4.0,82,0.00,,---,0.00,VWS V14.01,2013-02-22 17:39:00,
2013-02-22 09:40:00,45.7,40.5,29.91,ENE,68,3.4,7.6,82,0.00,,---,0.00,VWS V14.01,2013-02-22 17:40:00,
2013-02-22 09:41:00,45.7,40.5,29.91,NNW,338,3.4,4.7,82,0.00,,---,0.00,VWS V14.01,2013-02-22 17:41:00,
2013-02-22 09:42:00,45.5,40.7,29.91,NE,45,5.4,5.4,83,0.00,,---,0.00,VWS V14.01,2013-02-22 17:42:00,
2013-02-22 09:43:00,45.5,40.7,29.91,NNE,22,2.7,5.4,83,0.00,,---,0.00,VWS V14.01,2013-02-22 17:43:00,
2013-02-22 09:44:00,45.5,40.7,29.91,NE,45,7.2,7.2,83,0.00,,---,0.00,VWS V14.01,2013-02-22 17:44:00,
2013-02-22 09:45:00,45.5,40.7,29.91,NW,315,3.8,9.6,83,0.00,,---,0.00,VWS V14.01,2013-02-22 17:45:00,
2013-02-22 09:46:00,45.5,40.7,29.91,NNE,22,3.6,6.0,83,0.00,,---,0.00,VWS V14.01,2013-02-22 17:46:00,
2013-02-22 09:47:00,45.5,40.7,29.91,NNE,22,3.6,3.6,83,0.00,,---,0.00,VWS V14.01,2013-02-22 17:47:00,
2013-02-22 09:48:00,45.5,40.7,29.91,ESE,112,1.6,4.0,83,0.00,,---,0.00,VWS V14.01,2013-02-22 17:48:00,
2013-02-22 09:49:00,45.5,41.0,29.91,ENE,68,3.6,4.0,84,0.00,,---,0.00,VWS V14.01,2013-02-22 17:49:00,
2013-02-22 09:50:00,45.5,41.0,29.91,East,90,2.5,2.5,84,0.04,,---,0.04,VWS V14.01,2013-02-22 17:50:00,
2013-02-22 09:51:00,45.5,41.0,29.91,North,0,4.5,4.5,84,0.04,,---,0.04,VWS V14.01,2013-02-22 17:51:00,
2013-02-22 09:52:00,45.5,41.3,29.91,ENE,68,1.6,4.5,85,0.04,,---,0.04,VWS V14.01,2013-02-22 17:52:00,
2013-02-22 09:53:00,45.5,41.3,29.91,NNW,338,2.5,4.9,85,0.04,,---,0.04,VWS V14.01,2013-02-22 17:53:00,
2013-02-22 09:54:00,45.3,41.1,29.91,North,0,3.1,3.8,85,0.04,,---,0.04,VWS V14.01,2013-02-22 17:54:00,
2013-02-22 09:55:00,45.5,41.3,29.91,SSE,158,1.3,3.1,85,0.04,,---,0.04,VWS V14.01,2013-02-22 17:55:00,
2013-02-22 09:56:00,45.3,41.4,29.91,ENE,68,3.1,3.8,86,0.04,,---,0.04,VWS V14.01,2013-02-22 17:56:00,
2013-02-22 09:57:00,45.3,41.4,29.91,ENE,68,7.2,7.2,86,0.04,,---,0.04,VWS V14.01,2013-02-22 17:57:00,
2013-02-22 09:58:00,45.3,41.4,29.91,SW,225,4.3,7.2,86,0.04,,---,0.04,VWS V14.01,2013-02-22 17:58:00,
2013-02-22 09:59:00,45.3,41.4,29.91,ENE,68,2.5,3.6,86,0.04,,---,0.04,VWS V14.01,2013-02-22 17:59:00,
2013-02-22 10:00:00,45.3,41.4,29.91,North,0,0.0,3.6,86,0.04,,---,0.04,VWS V14.01,2013-02-22 18:00:00,
2013-02-22 10:01:00,45.3,41.4,29.91,ENE,68,2.2,5.4,86,0.04,,---,0.04,VWS V14.01,2013-02-22 18:01:00,
2013-02-22 10:02:00,45.3,41.4,29.91,ENE,68,3.6,6.5,86,0.04,,---,0.04,VWS V14.01,2013-02-22 18:02:00,
2013-02-22 10:03:00,45.3,41.4,29.91,NNW,338,2.2,6.0,86,0.04,,---,0.04,VWS V14.01,2013-02-22 18:03:00,
2013-02-22 10:04:00,45.3,41.7,29.91,NNW,338,2.9,3.6,87,0.04,,---,0.04,VWS V14.01,2013-02-22 18:04:00,
2013-02-22 10:05:00,45.3,41.4,29.91,NNE,22,2.5,8.5,86,0.04,,---,0.04,VWS V14.01,2013-02-22 18:05:00,
2013-02-22 10:06:00,45.3,41.4,29.91,WNW,292,2.5,5.6,86,0.04,,---,0.04,VWS V14.01,2013-02-22 18:06:00,
2013-02-22 10:07:00,45.3,41.4,29.91,North,0,0.0,2.5,86,0.04,,---,0.04,VWS V14.01,2013-02-22 18:07:00,
2013-02-22 10:08:00,45.3,41.7,29.91,East,90,1.3,2.7,87,0.04,,---,0.04,VWS V14.01,2013-02-22 18:08:00,
2013-02-22 10:09:00,45.3,41.7,29.91,West,270,3.4,4.0,87,0.04,,---,0.04,VWS V14.01,2013-02-22 18:09:00,
2013-02-22 10:10:00,45.3,41.7,29.91,NNW,338,1.6,4.0,87,0.04,,---,0.04,VWS V14.01,2013-02-22 18:10:00,
2013-02-22 10:11:00,45.3,41.7,29.91,ENE,68,4.3,4.3,87,0.04,,---,0.04,VWS V14.01,2013-02-22 18:11:00,
2013-02-22 10:12:00,45.3,41.7,29.91,NNW,338,5.4,5.4,87,0.04,,---,0.04,VWS V14.01,2013-02-22 18:12:00,
2013-02-22 10:13:00,45.3,41.7,29.91,NNE,22,2.7,5.4,87,0.04,,---,0.04,VWS V14.01,2013-02-22 18:13:00,
2013-02-22 10:14:00,45.3,41.7,29.91,NNW,338,1.6,3.6,87,0.04,,---,0.04,VWS V14.01,2013-02-22 18:14:00,
2013-02-22 10:15:00,45.3,41.7,29.91,SW,225,3.4,3.4,87,0.04,,---,0.04,VWS V14.01,2013-02-22 18:15:00,
2013-02-22 10:16:00,45.3,41.7,29.91,WNW,292,3.1,3.4,87,0.04,,---,0.04,VWS V14.01,2013-02-22 18:16:00,
2013-02-22 10:17:00,45.3,42.0,29.88,WNW,292,3.1,4.0,88,0.04,,---,0.04,VWS V14.01,2013-02-22 18:17:00,
2013-02-22 10:18:00,45.3,42.0,29.88,NNW,338,2.9,8.7,88,0.04,,---,0.04,VWS V14.01,2013-02-22 18:18:00,
2013-02-22 10:19:00,45.3,42.3,29.88,NNW,338,2.7,2.7,89,0.04,,---,0.04,VWS V14.01,2013-02-22 18:19:00,
2013-02-22 10:20:00,45.3,42.3,29.88,NE,45,8.1,8.1,89,0.04,,---,0.04,VWS V14.01,2013-02-22 18:20:00,
2013-02-22 10:21:00,45.3,42.3,29.88,ENE,68,1.6,8.1,89,0.04,,---,0.04,VWS V14.01,2013-02-22 18:21:00,
2013-02-22 10:22:00,45.3,42.3,29.88,North,0,2.2,3.1,89,0.04,,---,0.04,VWS V14.01,2013-02-22 18:22:00,
2013-02-22 10:23:00,45.3,42.3,29.88,ENE,68,3.4,5.6,89,0.04,,---,0.04,VWS V14.01,2013-02-22 18:23:00,
2013-02-22 10:24:00,45.3,42.3,29.88,ESE,112,5.4,5.4,89,0.04,,---,0.04,VWS V14.01,2013-02-22 18:24:00,
2013-02-22 10:25:00,45.3,42.3,29.88,NNW,338,3.6,5.6,89,0.04,,---,0.04,VWS V14.01,2013-02-22 18:25:00,
2013-02-22 10:26:00,45.3,42.3,29.88,NNE,22,3.8,8.1,89,0.04,,---,0.04,VWS V14.01,2013-02-22 18:26:00,
2013-02-22 10:27:00,45.3,42.3,29.88,WNW,292,0.0,3.8,89,0.04,,---,0.04,VWS V14.01,2013-02-22 18:27:00,
2013-02-22 10:28:00,45.3,42.3,29.88,West,270,2.7,5.4,89,0.04,,---,0.04,VWS V14.01,2013-02-22 18:28:00,
2013-02-22 10:29:00,45.3,42.3,29.88,NE,45,3.1,3.1,89,0.04,,---,0.04,VWS V14.01,2013-02-22 18:29:00,
2013-02-22 10:30:00,45.3,42.6,29.88,SSE,158,2.7,3.8,90,0.04,,---,0.04,VWS V14.01,2013-02-22 18:30:00,
2013-02-22 10:31:00,45.3,42.6,29.88,NE,45,4.0,4.0,90,0.08,,---,0.08,VWS V14.01,2013-02-22 18:31:00,
2013-02-22 10:32:00,45.3,42.6,29.88,NNE,22,2.0,4.3,90,0.08,,---,0.08,VWS V14.01,2013-02-22 18:32:00,
2013-02-22 10:33:00,45.3,42.6,29.88,South,180,2.5,9.2,90,0.08,,---,0.08,VWS V14.01,2013-02-22 18:33:00,
2013-02-22 10:34:00,45.3,42.6,29.88,NE,45,3.1,3.1,90,0.08,,---,0.08,VWS V14.01,2013-02-22 18:34:00,
2013-02-22 10:35:00,45.3,42.6,29.88,SE,135,1.6,3.1,90,0.08,,---,0.08,VWS V14.01,2013-02-22 18:35:00,
2013-02-22 10:36:00,45.3,42.6,29.88,North,0,4.0,5.6,90,0.08,,---,0.08,VWS V14.01,2013-02-22 18:36:00,
2013-02-22 10:37:00,45.3,42.6,29.88,NNW,338,4.7,6.5,90,0.08,,---,0.08,VWS V14.01,2013-02-22 18:37:00,
2013-02-22 10:38:00,45.3,42.8,29.88,NW,315,6.0,6.0,91,0.08,,---,0.08,VWS V14.01,2013-02-22 18:38:00,
2013-02-22 10:39:00,45.3,42.8,29.88,ENE,68,4.7,6.3,91,0.08,,---,0.08,VWS V14.01,2013-02-22 18:39:00,
2013-02-22 10:40:00,45.3,42.8,29.88,WNW,292,3.1,7.6,91,0.08,,---,0.08,VWS V14.01,2013-02-22 18:40:00,
2013-02-22 10:41:00,45.3,42.8,29.88,WNW,292,3.1,3.1,91,0.08,,---,0.08,VWS V14.01,2013-02-22 18:41:00,
2013-02-22 10:42:00,45.3,42.8,29.88,NE,45,3.8,3.8,91,0.08,,---,0.08,VWS V14.01,2013-02-22 18:42:00,
2013-02-22 10:43:00,45.3,42.8,29.88,SSE,158,2.0,3.8,91,0.08,,---,0.08,VWS V14.01,2013-02-22 18:43:00,
2013-02-22 10:44:00,45.3,42.8,29.88,NNE,22,2.0,2.9,91,0.08,,---,0.08,VWS V14.01,2013-02-22 18:44:00,
2013-02-22 10:45:00,45.3,42.8,29.88,WNW,292,3.6,4.3,91,0.08,,---,0.08,VWS V14.01,2013-02-22 18:45:00,
2013-02-22 10:46:00,45.3,42.8,29.88,ESE,112,3.6,3.8,91,0.08,,---,0.08,VWS V14.01,2013-02-22 18:46:00,
2013-02-22 10:47:00,45.3,42.8,29.85,East,90,2.7,3.8,91,0.08,,---,0.08,VWS V14.01,2013-02-22 18:47:00,
2013-02-22 10:48:00,45.3,42.8,29.85,NNW,338,2.2,2.9,91,0.08,,---,0.08,VWS V14.01,2013-02-22 18:48:00,
2013-02-22 10:49:00,45.3,42.8,29.85,NNE,22,6.7,6.7,91,0.08,,---,0.08,VWS V14.01,2013-02-22 18:49:00,
2013-02-22 10:50:00,45.3,42.8,29.85,ENE,68,4.0,6.7,91,0.08,,---,0.08,VWS V14.01,2013-02-22 18:50:00,
2013-02-22 10:51:00,45.3,42.8,29.85,North,0,3.4,6.3,91,0.04,,---,0.08,VWS V14.01,2013-02-22 18:51:00,
2013-02-22 10:52:00,45.3,42.8,29.85,NNE,22,4.0,4.0,91,0.04,,---,0.08,VWS V14.01,2013-02-22 18:52:00,
2013-02-22 10:53:00,45.5,43.9,29.85,SE,135,1.3,2.7,94,0.12,,---,0.20,VWS V14.01,2013-02-22 18:53:00,
2013-02-22 10:54:00,45.3,42.8,29.85,SE,135,0.9,4.0,91,0.04,,---,0.08,VWS V14.01,2013-02-22 18:54:00,
2013-02-22 10:55:00,45.1,42.7,29.85,NNE,22,3.8,6.0,91,0.04,,---,0.08,VWS V14.01,2013-02-22 18:55:00,
2013-02-22 10:56:00,45.1,42.7,29.85,North,0,6.5,6.5,91,0.04,,---,0.08,VWS V14.01,2013-02-22 18:56:00,
2013-02-22 10:57:00,45.1,42.7,29.85,NE,45,7.2,10.3,91,0.04,,---,0.08,VWS V14.01,2013-02-22 18:57:00,
2013-02-22 10:58:00,45.1,42.7,29.85,WSW,248,2.5,7.2,91,0.04,,---,0.08,VWS V14.01,2013-02-22 18:58:00,
2013-02-22 10:59:00,45.1,42.7,29.85,ENE,68,1.1,7.4,91,0.04,,---,0.08,VWS V14.01,2013-02-22 18:59:00,
2013-02-22 11:00:00,45.1,42.7,29.85,NNW,338,0.0,6.0,91,0.04,,---,0.08,VWS V14.01,2013-02-22 19:00:00,
2013-02-22 11:01:00,45.1,42.7,29.85,NNE,22,3.4,3.8,91,0.08,,---,0.12,VWS V14.01,2013-02-22 19:01:00,
2013-02-22 11:02:00,45.1,42.7,29.85,ESE,112,2.9,6.0,91,0.08,,---,0.12,VWS V14.01,2013-02-22 19:02:00,
2013-02-22 11:03:00,45.1,42.7,29.85,WNW,292,2.5,5.4,91,0.08,,---,0.12,VWS V14.01,2013-02-22 19:03:00,
2013-02-22 11:04:00,45.1,42.7,29.85,WNW,292,2.5,6.0,91,0.08,,---,0.12,VWS V14.01,2013-02-22 19:04:00,
2013-02-22 11:05:00,45.1,42.7,29.85,ENE,68,2.7,6.7,91,0.08,,---,0.12,VWS V14.01,2013-02-22 19:05:00,
2013-02-22 11:06:00,45.1,42.7,29.85,West,270,2.5,3.4,91,0.08,,---,0.12,VWS V14.01,2013-02-22 19:06:00,
2013-02-22 11:07:00,45.5,43.9,29.85,NW,315,2.9,2.9,94,0.13,,---,0.25,VWS V14.01,2013-02-22 19:07:00,
2013-02-22 11:08:00,45.1,42.7,29.85,ENE,68,1.3,2.5,91,0.08,,---,0.12,VWS V14.01,2013-02-22 19:08:00,
2013-02-22 11:09:00,45.1,42.7,29.85,WNW,292,1.6,2.5,91,0.08,,---,0.12,VWS V14.01,2013-02-22 19:09:00,
2013-02-22 11:10:00,45.1,42.7,29.85,WNW,292,1.6,4.3,91,0.08,,---,0.12,VWS V14.01,2013-02-22 19:10:00,
2013-02-22 11:11:00,45.1,42.7,29.85,NNE,22,3.6,7.8,91,0.08,,---,0.12,VWS V14.01,2013-02-22 19:11:00,
2013-02-22 11:12:00,45.1,43.0,29.85,NNE,22,3.6,3.6,92,0.08,,---,0.12,VWS V14.01,2013-02-22 19:12:00,
2013-02-22 11:13:00,45.1,43.0,29.85,NNE,22,2.2,9.8,92,0.08,,---,0.12,VWS V14.01,2013-02-22 19:13:00,
2013-02-22 11:14:00,45.1,43.0,29.85,NNE,22,2.2,2.2,92,0.08,,---,0.12,VWS V14.01,2013-02-22 19:14:00,
2013-02-22 11:15:00,45.1,43.0,29.85,WNW,292,3.1,3.4,92,0.08,,---,0.12,VWS V14.01,2013-02-22 19:15:00,
2013-02-22 11:16:00,45.1,43.0,29.85,SE,135,2.7,5.6,92,0.08,,---,0.12,VWS V14.01,2013-02-22 19:16:00,
2013-02-22 11:17:00,45.1,43.0,29.85,NNE,22,1.6,6.9,92,0.08,,---,0.12,VWS V14.01,2013-02-22 19:17:00,
2013-02-22 11:18:00,45.1,43.0,29.85,South,180,2.7,3.4,92,0.08,,---,0.12,VWS V14.01,2013-02-22 19:18:00,
2013-02-22 11:19:00,45.1,43.0,29.85,North,0,1.6,5.6,92,0.12,,---,0.16,VWS V14.01,2013-02-22 19:19:00,
2013-02-22 11:20:00,45.1,43.2,29.85,NNE,22,1.3,4.3,93,0.12,,---,0.16,VWS V14.01,2013-02-22 19:20:00,
2013-02-22 11:21:00,45.1,43.2,29.85,WNW,292,3.8,3.8,93,0.12,,---,0.16,VWS V14.01,2013-02-22 19:21:00,
2013-02-22 11:22:00,45.1,43.2,29.85,NNE,22,3.1,6.0,93,0.12,,---,0.16,VWS V14.01,2013-02-22 19:22:00,
2013-02-22 11:23:00,45.1,43.2,29.85,North,0,1.1,4.0,93,0.12,,---,0.16,VWS V14.01,2013-02-22 19:23:00,
2013-02-22 11:24:00,45.1,43.2,29.85,WNW,292,3.6,3.6,93,0.12,,---,0.16,VWS V14.01,2013-02-22 19:24:00,
2013-02-22 11:25:00,45.1,43.2,29.85,NNE,22,2.7,7.4,93,0.12,,---,0.16,VWS V14.01,2013-02-22 19:25:00,
2013-02-22 11:26:00,45.1,43.2,29.85,NNW,338,3.4,6.3,93,0.12,,---,0.16,VWS V14.01,2013-02-22 19:26:00,
2013-02-22 11:27:00,45.1,43.2,29.85,North,0,4.0,4.0,93,0.12,,---,0.16,VWS V14.01,2013-02-22 19:27:00,
2013-02-22 11:28:00,45.1,43.2,29.85,SSW,202,4.0,6.0,93,0.12,,---,0.16,VWS V14.01,2013-02-22 19:28:00,
2013-02-22 11:29:00,45.1,43.2,29.85,NNW,338,4.0,4.7,93,0.12,,---,0.16,VWS V14.01,2013-02-22 19:29:00,
2013-02-22 11:30:00,45.1,43.2,29.85,East,90,3.6,4.0,93,0.16,,---,0.20,VWS V14.01,2013-02-22 19:30:00,
2013-02-22 11:31:00,45.1,43.2,29.85,North,0,3.1,3.6,93,0.16,,---,0.20,VWS V14.01,2013-02-22 19:31:00,
2013-02-22 11:32:00,45.1,43.2,29.85,NW,315,5.8,5.8,93,0.12,,---,0.20,VWS V14.01,2013-02-22 19:32:00,
2013-02-22 11:33:00,45.1,43.2,29.85,NNW,338,5.4,8.1,93,0.12,,---,0.20,VWS V14.01,2013-02-22 19:33:00,
2013-02-22 11:34:00,45.1,43.2,29.85,NNW,338,2.5,5.4,93,0.12,,---,0.20,VWS V14.01,2013-02-22 19:34:00,
2013-02-22 11:35:00,45.1,43.2,29.85,North,0,5.8,5.8,93,0.12,,---,0.20,VWS V14.01,2013-02-22 19:35:00,
2013-02-22 11:36:00,45.1,43.2,29.85,SE,135,1.3,5.8,93,0.12,,---,0.20,VWS V14.01,2013-02-22 19:36:00,
2013-02-22 11:37:00,45.1,43.2,29.85,NNE,22,2.0,2.7,93,0.12,,---,0.20,VWS V14.01,2013-02-22 19:37:00,
2013-02-22 11:38:00,45.1,43.2,29.85,ENE,68,2.7,4.9,93,0.12,,---,0.20,VWS V14.01,2013-02-22 19:38:00,
2013-02-22 11:39:00,45.1,43.2,29.85,WSW,248,2.2,2.9,93,0.12,,---,0.20,VWS V14.01,2013-02-22 19:39:00,
2013-02-22 11:40:00,45.1,43.2,29.85,SSE,158,2.7,3.4,93,0.12,,---,0.20,VWS V14.01,2013-02-22 19:40:00,
2013-02-22 11:41:00,45.1,43.2,29.85,ENE,68,4.9,4.9,93,0.12,,---,0.20,VWS V14.01,2013-02-22 19:41:00,
2013-02-22 11:42:00,45.1,43.2,29.85,WNW,292,2.5,4.9,93,0.12,,---,0.20,VWS V14.01,2013-02-22 19:42:00,
2013-02-22 11:43:00,45.1,43.2,29.85,East,90,1.1,2.5,93,0.12,,---,0.20,VWS V14.01,2013-02-22 19:43:00,
2013-02-22 11:44:00,45.1,43.2,29.85,ENE,68,4.0,4.9,93,0.12,,---,0.20,VWS V14.01,2013-02-22 19:44:00,
2013-02-22 11:45:00,45.1,43.2,29.85,NW,315,2.9,7.4,93,0.12,,---,0.20,VWS V14.01,2013-02-22 19:45:00,
2013-02-22 11:46:00,45.1,43.2,29.85,NNW,338,3.8,5.6,93,0.12,,---,0.20,VWS V14.01,2013-02-22 19:46:00,
2013-02-22 11:47:00,45.1,43.2,29.85,NNE,22,2.5,4.9,93,0.12,,---,0.20,VWS V14.01,2013-02-22 19:47:00,
2013-02-22 11:48:00,45.3,43.7,29.85,South,180,2.7,2.7,94,0.12,,---,0.20,VWS V14.01,2013-02-22 19:48:00,
2013-02-22 11:49:00,45.5,43.9,29.85,North,0,3.8,3.8,94,0.12,,---,0.20,VWS V14.01,2013-02-22 19:49:00,
2013-02-22 11:50:00,45.5,43.9,29.85,ENE,68,2.2,3.4,94,0.12,,---,0.20,VWS V14.01,2013-02-22 19:50:00,
2013-02-22 11:51:00,45.5,43.9,29.85,NNW,338,5.8,5.8,94,0.12,,---,0.20,VWS V14.01,2013-02-22 19:51:00,
2013-02-22 11:52:00,45.5,43.9,29.85,SW,225,1.3,5.8,94,0.12,,---,0.20,VWS V14.01,2013-02-22 19:52:00,
2013-02-22 11:53:00,45.5,43.9,29.85,SE,135,1.3,2.7,94,0.12,,---,0.20,VWS V14.01,2013-02-22 19:53:00,
2013-02-22 11:54:00,45.5,43.9,29.85,SSW,202,3.8,3.8,94,0.12,,---,0.20,VWS V14.01,2013-02-22 19:54:00,
2013-02-22 11:55:00,45.5,43.9,29.85,NNW,338,2.7,3.8,94,0.17,,---,0.25,VWS V14.01,2013-02-22 19:55:00,
2013-02-22 11:56:00,45.5,43.9,29.85,NNW,338,2.9,3.4,94,0.17,,---,0.25,VWS V14.01,2013-02-22 19:56:00,
2013-02-22 11:57:00,45.5,43.9,29.85,NNW,338,4.0,5.8,94,0.17,,---,0.25,VWS V14.01,2013-02-22 19:57:00,
2013-02-22 11:58:00,45.5,43.9,29.85,NNE,22,2.9,4.0,94,0.17,,---,0.25,VWS V14.01,2013-02-22 19:58:00,
2013-02-22 11:59:00,45.5,43.9,29.85,SSE,158,1.1,3.8,94,0.17,,---,0.25,VWS V14.01,2013-02-22 19:59:00,
2013-02-22 12:00:00,45.5,43.9,29.85,NW,315,2.0,2.9,94,0.17,,---,0.25,VWS V14.01,2013-02-22 20:00:00,
2013-02-22 12:01:00,45.5,43.9,29.85,East,90,2.9,6.0,94,0.17,,---,0.25,VWS V14.01,2013-02-22 20:01:00,
2013-02-22 12:02:00,45.7,44.1,29.85,SSE,158,5.4,5.4,94,0.13,,---,0.25,VWS V14.01,2013-02-22 20:02:00,
2013-02-22 12:03:00,45.7,44.1,29.85,SE,135,2.9,5.4,94,0.13,,---,0.25,VWS V14.01,2013-02-22 20:03:00,
2013-02-22 12:04:00,45.5,43.9,29.85,SE,135,3.8,3.8,94,0.13,,---,0.25,VWS V14.01,2013-02-22 20:04:00,
2013-02-22 12:05:00,45.5,43.9,29.85,NE,45,5.4,7.6,94,0.13,,---,0.25,VWS V14.01,2013-02-22 20:05:00,
2013-02-22 12:06:00,45.5,43.9,29.85,NW,315,2.5,5.4,94,0.13,,---,0.25,VWS V14.01,2013-02-22 20:06:00,
2013-02-22 12:07:00,45.5,43.9,29.85,NW,315,2.9,2.9,94,0.13,,---,0.25,VWS V14.01,2013-02-22 20:07:00,
2013-02-22 12:08:00,45.5,43.9,29.85,WNW,292,1.6,4.3,94,0.13,,---,0.25,VWS V14.01,2013-02-22 20:08:00,
2013-02-22 12:09:00,45.5,43.9,29.85,NNE,22,3.1,5.4,94,0.13,,---,0.25,VWS V14.01,2013-02-22 20:09:00,
2013-02-22 12:10:00,45.5,43.9,29.85,NNE,22,2.5,3.8,94,0.13,,---,0.25,VWS V14.01,2013-02-22 20:10:00,
2013-02-22 12:11:00,45.5,43.9,29.85,North,0,7.6,11.4,94,0.13,,---,0.25,VWS V14.01,2013-02-22 20:11:00,
2013-02-22 12:12:00,45.5,43.9,29.85,East,90,3.1,7.6,94,0.13,,---,0.25,VWS V14.01,2013-02-22 20:12:00,
2013-02-22 12:13:00,45.5,43.9,29.85,SSW,202,3.1,7.6,94,0.13,,---,0.25,VWS V14.01,2013-02-22 20:13:00,
2013-02-22 12:14:00,45.5,43.9,29.85,East,90,3.1,5.6,94,0.13,,---,0.25,VWS V14.01,2013-02-22 20:14:00,
2013-02-22 12:15:00,45.5,43.9,29.85,NNW,338,3.4,3.8,94,0.13,,---,0.25,VWS V14.01,2013-02-22 20:15:00,
2013-02-22 12:16:00,45.5,43.9,29.85,WNW,292,13.2,13.2,94,0.13,,---,0.25,VWS V14.01,2013-02-22 20:16:00,
2013-02-22 12:17:00,45.5,43.9,29.82,NNW,338,3.4,13.2,94,0.13,,---,0.25,VWS V14.01,2013-02-22 20:17:00,
2013-02-22 12:18:00,45.5,43.9,29.82,NE,45,5.8,7.8,94,0.13,,---,0.25,VWS V14.01,2013-02-22 20:18:00,
2013-02-22 12:19:00,45.5,43.9,29.82,SSE,158,3.4,6.0,94,0.13,,---,0.25,VWS V14.01,2013-02-22 20:19:00,
2013-02-22 12:20:00,45.5,43.9,29.82,SSW,202,1.6,4.3,94,0.09,,---,0.25,VWS V14.01,2013-02-22 20:20:00,
2013-02-22 12:21:00,45.5,43.9,29.82,WNW,292,1.6,5.4,94,0.09,,---,0.25,VWS V14.01,2013-02-22 20:21:00,
2013-02-22 12:22:00,45.5,43.9,29.82,WNW,292,2.7,5.6,94,0.09,,---,0.25,VWS V14.01,2013-02-22 20:22:00,
2013-02-22 12:23:00,45.5,43.9,29.82,ESE,112,3.8,7.2,94,0.09,,---,0.25,VWS V14.01,2013-02-22 20:23:00,
2013-02-22 12:24:00,45.5,43.9,29.82,SSW,202,3.4,3.8,94,0.09,,---,0.25,VWS V14.01,2013-02-22 20:24:00,
2013-02-22 12:25:00,45.5,43.9,29.82,SSW,202,3.6,5.6,94,0.09,,---,0.25,VWS V14.01,2013-02-22 20:25:00,
2013-02-22 12:26:00,45.5,44.2,29.82,NNE,22,2.7,4.3,95,0.08,,---,0.33,VWS V14.01,2013-02-22 20:26:00,
2013-02-22 12:27:00,45.5,43.9,29.82,NNW,338,3.1,3.8,94,0.13,,---,0.29,VWS V14.01,2013-02-22 20:27:00,
2013-02-22 12:28:00,45.3,43.7,29.82,East,90,1.3,3.1,94,0.13,,---,0.29,VWS V14.01,2013-02-22 20:28:00,
2013-02-22 12:29:00,45.3,43.7,29.82,SSE,158,2.0,5.4,94,0.13,,---,0.29,VWS V14.01,2013-02-22 20:29:00,
2013-02-22 12:30:00,45.3,43.7,29.82,ENE,68,4.3,4.9,94,0.13,,---,0.29,VWS V14.01,2013-02-22 20:30:00,
2013-02-22 12:31:00,45.3,43.7,29.82,WNW,292,3.4,7.6,94,0.09,,---,0.29,VWS V14.01,2013-02-22 20:31:00,
2013-02-22 12:32:00,45.3,43.7,29.82,SE,135,6.5,6.5,94,0.09,,---,0.29,VWS V14.01,2013-02-22 20:32:00,
2013-02-22 12:33:00,45.3,43.7,29.82,SSE,158,0.0,6.5,94,0.09,,---,0.29,VWS V14.01,2013-02-22 20:33:00,
2013-02-22 12:34:00,45.3,43.7,29.82,SE,135,2.9,2.9,94,0.09,,---,0.29,VWS V14.01,2013-02-22 20:34:00,
2013-02-22 12:35:00,45.3,43.7,29.82,SW,225,8.1,8.1,94,0.09,,---,0.29,VWS V14.01,2013-02-22 20:35:00,
2013-02-22 12:36:00,45.3,43.7,29.82,East,90,3.4,8.1,94,0.09,,---,0.29,VWS V14.01,2013-02-22 20:36:00,
2013-02-22 12:37:00,45.3,43.7,29.82,ESE,112,4.7,7.6,94,0.09,,---,0.29,VWS V14.01,2013-02-22 20:37:00,
2013-02-22 12:38:00,45.3,43.7,29.82,East,90,2.0,5.6,94,0.09,,---,0.29,VWS V14.01,2013-02-22 20:38:00,
2013-02-22 12:39:00,45.3,43.7,29.82,NW,315,3.4,3.4,94,0.09,,---,0.29,VWS V14.01,2013-02-22 20:39:00,
2013-02-22 12:40:00,45.3,43.7,29.82,NNE,22,4.0,4.3,94,0.09,,---,0.29,VWS V14.01,2013-02-22 20:40:00,
2013-02-22 12:41:00,45.3,43.7,29.82,South,180,3.6,4.3,94,0.09,,---,0.29,VWS V14.01,2013-02-22 20:41:00,
2013-02-22 12:42:00,45.3,43.7,29.82,NNW,338,3.4,3.6,94,0.09,,---,0.29,VWS V14.01,2013-02-22 20:42:00,
2013-02-22 12:43:00,45.3,43.7,29.82,NNE,22,4.0,9.6,94,0.09,,---,0.29,VWS V14.01,2013-02-22 20:43:00,
2013-02-22 12:44:00,45.3,43.7,29.82,North,0,4.0,4.5,94,0.09,,---,0.29,VWS V14.01,2013-02-22 20:44:00,
2013-02-22 12:45:00,45.3,43.7,29.82,NW,315,3.1,3.1,94,0.09,,---,0.29,VWS V14.01,2013-02-22 20:45:00,
2013-02-22 12:46:00,45.3,43.7,29.82,East,90,2.9,3.6,94,0.09,,---,0.29,VWS V14.01,2013-02-22 20:46:00,
2013-02-22 12:47:00,45.3,43.7,29.82,NNE,22,4.9,4.9,94,0.09,,---,0.29,VWS V14.01,2013-02-22 20:47:00,
2013-02-22 12:48:00,45.3,43.7,29.82,ESE,112,7.8,7.8,94,0.09,,---,0.29,VWS V14.01,2013-02-22 20:48:00,
2013-02-22 12:49:00,45.3,43.7,29.82,WSW,248,2.0,7.8,94,0.09,,---,0.29,VWS V14.01,2013-02-22 20:49:00,
2013-02-22 12:50:00,45.3,43.7,29.82,NE,45,4.7,4.7,94,0.09,,---,0.29,VWS V14.01,2013-02-22 20:50:00,
2013-02-22 12:51:00,45.3,43.7,29.82,WNW,292,0.9,6.0,94,0.09,,---,0.29,VWS V14.01,2013-02-22 20:51:00,
2013-02-22 12:52:00,45.3,43.7,29.82,West,270,2.5,2.5,94,0.09,,---,0.29,VWS V14.01,2013-02-22 20:52:00,
2013-02-22 12:53:00,45.3,43.7,29.82,NW,315,2.7,6.5,94,0.09,,---,0.29,VWS V14.01,2013-02-22 20:53:00,
2013-02-22 12:54:00,45.3,43.7,29.82,NNE,22,2.7,4.7,94,0.09,,---,0.29,VWS V14.01,2013-02-22 20:54:00,
2013-02-22 12:55:00,45.3,43.7,29.82,NNW,338,2.9,6.0,94,0.09,,---,0.29,VWS V14.01,2013-02-22 20:55:00,
2013-02-22 12:56:00,45.3,43.7,29.82,ENE,68,2.9,4.3,94,0.04,,---,0.29,VWS V14.01,2013-02-22 20:56:00,
2013-02-22 12:57:00,45.3,43.7,29.82,SE,135,2.5,6.5,94,0.04,,---,0.29,VWS V14.01,2013-02-22 20:57:00,
2013-02-22 12:58:00,45.3,43.7,29.82,SSW,202,3.6,3.8,94,0.08,,---,0.33,VWS V14.01,2013-02-22 20:58:00,
2013-02-22 12:59:00,45.3,43.7,29.82,SE,135,3.6,4.0,94,0.08,,---,0.33,VWS V14.01,2013-02-22 20:59:00,
2013-02-22 13:00:00,45.3,43.7,29.82,South,180,2.9,4.9,94,0.08,,---,0.33,VWS V14.01,2013-02-22 21:00:00,
2013-02-22 13:01:00,45.3,43.7,29.82,NW,315,3.4,3.4,94,0.08,,---,0.33,VWS V14.01,2013-02-22 21:01:00,
2013-02-22 13:02:00,45.5,44.2,29.80,SW,225,2.7,4.7,95,0.08,,---,0.41,VWS V14.01,2013-02-22 21:02:00,
2013-02-22 13:03:00,45.3,43.7,29.82,WNW,292,2.7,3.4,94,0.08,,---,0.33,VWS V14.01,2013-02-22 21:03:00,
2013-02-22 13:04:00,45.3,43.7,29.82,WNW,292,1.3,3.6,94,0.08,,---,0.33,VWS V14.01,2013-02-22 21:04:00,
2013-02-22 13:05:00,45.3,43.7,29.82,North,0,4.7,4.7,94,0.08,,---,0.33,VWS V14.01,2013-02-22 21:05:00,
2013-02-22 13:06:00,45.5,44.2,29.80,NNW,338,3.4,3.6,95,0.08,,---,0.41,VWS V14.01,2013-02-22 21:06:00,
2013-02-22 13:07:00,45.3,43.7,29.82,East,90,4.7,4.7,94,0.08,,---,0.33,VWS V14.01,2013-02-22 21:07:00,
2013-02-22 13:08:00,45.3,43.7,29.82,ESE,112,2.9,4.7,94,0.08,,---,0.33,VWS V14.01,2013-02-22 21:08:00,
2013-02-22 13:09:00,45.3,43.7,29.82,SSE,158,3.6,3.6,94,0.08,,---,0.33,VWS V14.01,2013-02-22 21:09:00,
2013-02-22 13:10:00,45.5,43.9,29.82,SW,225,1.6,6.0,94,0.08,,---,0.33,VWS V14.01,2013-02-22 21:10:00,
2013-02-22 13:11:00,45.3,43.7,29.82,NNW,338,3.1,3.1,94,0.08,,---,0.33,VWS V14.01,2013-02-22 21:11:00,
2013-02-22 13:12:00,45.3,43.7,29.82,SE,135,5.8,9.6,94,0.08,,---,0.33,VWS V14.01,2013-02-22 21:12:00,
2013-02-22 13:13:00,45.7,44.3,29.80,SE,135,3.8,4.0,95,0.08,,---,0.41,VWS V14.01,2013-02-22 21:13:00,
2013-02-22 13:14:00,45.5,43.9,29.82,West,270,4.9,5.8,94,0.08,,---,0.33,VWS V14.01,2013-02-22 21:14:00,
2013-02-22 13:15:00,45.5,44.2,29.82,NE,45,0.9,3.4,95,0.08,,---,0.33,VWS V14.01,2013-02-22 21:15:00,
2013-02-22 13:16:00,45.7,44.3,29.80,NNW,338,4.9,5.6,95,0.08,,---,0.41,VWS V14.01,2013-02-22 21:16:00,
2013-02-22 13:17:00,45.5,44.2,29.82,WNW,292,2.7,4.3,95,0.08,,---,0.33,VWS V14.01,2013-02-22 21:17:00,
2013-02-22 13:18:00,45.7,44.3,29.82,SE,135,2.5,2.5,95,0.08,,---,0.41,VWS V14.01,2013-02-22 21:18:00,
2013-02-22 13:19:00,45.5,44.2,29.82,NNE,22,3.6,3.6,95,0.08,,---,0.33,VWS V14.01,2013-02-22 21:19:00,
2013-02-22 13:20:00,45.5,44.2,29.82,WNW,292,4.3,4.3,95,0.08,,---,0.33,VWS V14.01,2013-02-22 21:20:00,
2013-02-22 13:21:00,45.5,44.2,29.82,SSW,202,4.7,5.4,95,0.08,,---,0.33,VWS V14.01,2013-02-22 21:21:00,
2013-02-22 13:22:00,45.5,44.2,29.82,NNW,338,2.5,4.7,95,0.08,,---,0.41,VWS V14.01,2013-02-22 21:22:00,
2013-02-22 13:23:00,45.5,44.2,29.82,WNW,292,4.7,4.7,95,0.08,,---,0.41,VWS V14.01,2013-02-22 21:23:00,
2013-02-22 13:24:00,45.5,44.2,29.82,East,90,2.2,2.9,95,0.08,,---,0.33,VWS V14.01,2013-02-22 21:24:00,
2013-02-22 13:25:00,45.5,44.2,29.82,NNE,22,3.1,3.6,95,0.08,,---,0.41,VWS V14.01,2013-02-22 21:25:00,
2013-02-22 13:26:00,45.7,44.3,29.82,NNW,338,5.4,5.4,95,0.08,,---,0.41,VWS V14.01,2013-02-22 21:26:00,
2013-02-22 13:27:00,45.5,44.2,29.82,East,90,1.3,2.7,95,0.04,,---,0.33,VWS V14.01,2013-02-22 21:27:00,
2013-02-22 13:28:00,45.5,44.2,29.82,East,90,3.4,5.4,95,0.08,,---,0.41,VWS V14.01,2013-02-22 21:28:00,
2013-02-22 13:29:00,45.5,44.2,29.82,East,90,1.1,3.4,95,0.04,,---,0.33,VWS V14.01,2013-02-22 21:29:00,
2013-02-22 13:30:00,45.5,44.2,29.82,SSE,158,2.2,3.8,95,0.04,,---,0.33,VWS V14.01,2013-02-22 21:30:00,
2013-02-22 13:31:00,45.5,44.2,29.82,ENE,68,3.4,3.4,95,0.08,,---,0.41,VWS V14.01,2013-02-22 21:31:00,
2013-02-22 13:32:00,45.5,44.2,29.80,SE,135,2.9,6.0,95,0.08,,---,0.41,VWS V14.01,2013-02-22 21:32:00,
2013-02-22 13:33:00,45.5,44.2,29.80,West,270,2.7,7.4,95,0.08,,---,0.41,VWS V14.01,2013-02-22 21:33:00,
2013-02-22 13:34:00,45.5,44.2,29.82,NE,45,3.1,5.8,95,0.04,,---,0.33,VWS V14.01,2013-02-22 21:34:00,
2013-02-22 13:35:00,45.5,44.2,29.80,ESE,112,4.0,4.0,95,0.08,,---,0.41,VWS V14.01,2013-02-22 21:35:00,
2013-02-22 13:36:00,45.5,44.2,29.80,WNW,292,1.3,4.3,95,0.08,,---,0.41,VWS V14.01,2013-02-22 21:36:00,
2013-02-22 13:37:00,45.3,44.0,29.82,SSW,202,2.5,2.9,95,0.04,,---,0.33,VWS V14.01,2013-02-22 21:37:00,
2013-02-22 13:38:00,45.3,44.0,29.82,ESE,112,2.7,2.9,95,0.04,,---,0.33,VWS V14.01,2013-02-22 21:38:00,
2013-02-22 13:39:00,45.3,44.0,29.82,East,90,5.4,6.0,95,0.04,,---,0.33,VWS V14.01,2013-02-22 21:39:00,
2013-02-22 13:40:00,45.5,44.2,29.80,WNW,292,2.2,4.3,95,0.08,,---,0.41,VWS V14.01,2013-02-22 21:40:00,
2013-02-22 13:41:00,45.5,44.2,29.80,NW,315,2.0,7.4,95,0.08,,---,0.41,VWS V14.01,2013-02-22 21:41:00,
2013-02-22 13:42:00,45.3,44.0,29.82,NNW,338,3.8,3.8,95,0.04,,---,0.33,VWS V14.01,2013-02-22 21:42:00,
2013-02-22 13:43:00,45.3,44.0,29.82,NNW,338,4.0,4.0,95,0.04,,---,0.33,VWS V14.01,2013-02-22 21:43:00,
2013-02-22 13:44:00,45.3,44.0,29.82,SE,135,1.1,4.7,95,0.08,,---,0.37,VWS V14.01,2013-02-22 21:44:00,
2013-02-22 13:45:00,45.3,44.0,29.82,SSW,202,3.6,4.0,95,0.08,,---,0.37,VWS V14.01,2013-02-22 21:45:00,
2013-02-22 13:46:00,45.3,44.0,29.82,East,90,1.3,3.6,95,0.08,,---,0.37,VWS V14.01,2013-02-22 21:46:00,
2013-02-22 13:47:00,45.3,44.0,29.82,NNW,338,4.3,7.8,95,0.08,,---,0.37,VWS V14.01,2013-02-22 21:47:00,
2013-02-22 13:48:00,45.3,44.0,29.82,WNW,292,3.8,5.6,95,0.08,,---,0.37,VWS V14.01,2013-02-22 21:48:00,
2013-02-22 13:49:00,45.3,44.0,29.82,North,0,2.7,3.8,95,0.08,,---,0.37,VWS V14.01,2013-02-22 21:49:00,
2013-02-22 13:50:00,45.3,44.0,29.82,NNE,22,7.8,7.8,95,0.08,,---,0.37,VWS V14.01,2013-02-22 21:50:00,
2013-02-22 13:51:00,45.3,44.0,29.82,NNE,22,3.1,7.8,95,0.08,,---,0.37,VWS V14.01,2013-02-22 21:51:00,
2013-02-22 13:52:00,45.3,44.0,29.82,NNW,338,4.7,8.1,95,0.08,,---,0.37,VWS V14.01,2013-02-22 21:52:00,
2013-02-22 13:53:00,45.3,44.0,29.82,WNW,292,3.4,4.7,95,0.08,,---,0.37,VWS V14.01,2013-02-22 21:53:00,
2013-02-22 13:54:00,45.3,44.0,29.82,NE,45,4.0,4.0,95,0.08,,---,0.37,VWS V14.01,2013-02-22 21:54:00,
2013-02-22 13:55:00,45.3,44.0,29.82,WNW,292,3.8,3.8,95,0.12,,---,0.41,VWS V14.01,2013-02-22 21:55:00,
2013-02-22 13:56:00,45.3,44.0,29.82,East,90,2.5,3.8,95,0.12,,---,0.41,VWS V14.01,2013-02-22 21:56:00,
2013-02-22 13:57:00,45.3,44.0,29.82,NNW,338,3.4,3.4,95,0.12,,---,0.41,VWS V14.01,2013-02-22 21:57:00,
2013-02-22 13:58:00,45.3,44.0,29.82,WNW,292,3.6,6.0,95,0.12,,---,0.41,VWS V14.01,2013-02-22 21:58:00,
2013-02-22 13:59:00,45.5,44.2,29.82,WNW,292,6.0,6.0,95,0.08,,---,0.41,VWS V14.01,2013-02-22 21:59:00,
2013-02-22 14:00:00,45.5,44.2,29.82,WNW,292,3.1,3.8,95,0.08,,---,0.41,VWS V14.01,2013-02-22 22:00:00,
2013-02-22 14:01:00,45.5,44.2,29.82,South,180,3.4,6.0,95,0.08,,---,0.41,VWS V14.01,2013-02-22 22:01:00,
2013-02-22 14:02:00,45.5,44.2,29.80,SW,225,2.7,4.7,95,0.08,,---,0.41,VWS V14.01,2013-02-22 22:02:00,
2013-02-22 14:03:00,45.5,44.2,29.80,SE,135,2.9,8.7,95,0.08,,---,0.41,VWS V14.01,2013-02-22 22:03:00,
2013-02-22 14:04:00,45.5,44.2,29.79,NNE,22,2.7,3.6,95,0.08,,---,0.41,VWS V14.01,2013-02-22 22:04:00,
2013-02-22 14:05:00,45.5,44.2,29.80,SE,135,3.6,4.5,95,0.08,,---,0.41,VWS V14.01,2013-02-22 22:05:00,
2013-02-22 14:06:00,45.5,44.2,29.80,NNW,338,3.4,3.6,95,0.08,,---,0.41,VWS V14.01,2013-02-22 22:06:00,
2013-02-22 14:07:00,45.7,44.3,29.80,North,0,0.0,3.4,95,0.08,,---,0.41,VWS V14.01,2013-02-22 22:07:00,
2013-02-22 14:08:00,45.5,44.2,29.80,WNW,292,2.5,4.0,95,0.08,,---,0.41,VWS V14.01,2013-02-22 22:08:00,
2013-02-22 14:09:00,45.5,44.2,29.79,NNE,22,4.3,6.0,95,0.08,,---,0.41,VWS V14.01,2013-02-22 22:09:00,
2013-02-22 14:10:00,45.7,44.3,29.80,WNW,292,9.8,9.8,95,0.08,,---,0.41,VWS V14.01,2013-02-22 22:10:00,
2013-02-22 14:11:00,45.7,44.3,29.80,WNW,292,4.0,9.8,95,0.08,,---,0.41,VWS V14.01,2013-02-22 22:11:00,
2013-02-22 14:12:00,45.7,44.3,29.80,WNW,292,4.0,4.0,95,0.08,,---,0.41,VWS V14.01,2013-02-22 22:12:00,
2013-02-22 14:13:00,45.7,44.3,29.80,SE,135,3.8,4.0,95,0.08,,---,0.41,VWS V14.01,2013-02-22 22:13:00,
2013-02-22 14:14:00,45.7,44.3,29.79,ESE,112,4.0,4.0,95,0.08,,---,0.41,VWS V14.01,2013-02-22 22:14:00,
2013-02-22 14:15:00,45.7,44.3,29.80,SSW,202,4.0,4.0,95,0.08,,---,0.41,VWS V14.01,2013-02-22 22:15:00,
2013-02-22 14:16:00,45.7,44.3,29.80,NNW,338,4.9,5.6,95,0.08,,---,0.41,VWS V14.01,2013-02-22 22:16:00,
2013-02-22 14:17:00,45.7,44.3,29.82,WNW,292,0.0,4.9,95,0.08,,---,0.41,VWS V14.01,2013-02-22 22:17:00,
2013-02-22 14:18:00,45.7,44.3,29.82,SE,135,2.5,2.5,95,0.08,,---,0.41,VWS V14.01,2013-02-22 22:18:00,
2013-02-22 14:19:00,45.7,44.3,29.82,SE,135,2.0,6.3,95,0.08,,---,0.41,VWS V14.01,2013-02-22 22:19:00,
2013-02-22 14:20:00,45.7,44.3,29.82,NNW,338,2.0,6.9,95,0.08,,---,0.41,VWS V14.01,2013-02-22 22:20:00,
2013-02-22 14:21:00,45.5,44.2,29.82,NNW,338,2.9,3.6,95,0.08,,---,0.41,VWS V14.01,2013-02-22 22:21:00,
2013-02-22 14:22:00,45.5,44.2,29.82,NNW,338,2.5,4.7,95,0.08,,---,0.41,VWS V14.01,2013-02-22 22:22:00,
2013-02-22 14:23:00,45.5,44.2,29.82,WNW,292,4.7,4.7,95,0.08,,---,0.41,VWS V14.01,2013-02-22 22:23:00,
2013-02-22 14:24:00,45.5,44.2,29.82,WNW,292,0.0,4.7,95,0.08,,---,0.41,VWS V14.01,2013-02-22 22:24:00,
2013-02-22 14:25:00,45.5,44.2,29.82,NNE,22,3.1,3.6,95,0.08,,---,0.41,VWS V14.01,2013-02-22 22:25:00,
2013-02-22 14:26:00,45.7,44.3,29.82,NNW,338,5.4,5.4,95,0.08,,---,0.41,VWS V14.01,2013-02-22 22:26:00,
2013-02-22 14:27:00,45.5,44.2,29.82,ESE,112,5.4,5.4,95,0.08,,---,0.41,VWS V14.01,2013-02-22 22:27:00,
2013-02-22 14:28:00,45.5,44.2,29.82,East,90,3.4,5.4,95,0.08,,---,0.41,VWS V14.01,2013-02-22 22:28:00,
2013-02-22 14:29:00,45.5,44.2,29.82,ENE,68,6.0,6.0,95,0.08,,---,0.41,VWS V14.01,2013-02-22 22:29:00,
2013-02-22 14:30:00,45.5,44.2,29.82,ENE,68,2.5,3.4,95,0.08,,---,0.41,VWS V14.01,2013-02-22 22:30:00,
2013-02-22 14:31:00,45.5,44.2,29.82,ENE,68,3.4,3.4,95,0.08,,---,0.41,VWS V14.01,2013-02-22 22:31:00,
2013-02-22 14:32:00,45.5,44.2,29.80,SE,135,2.9,6.0,95,0.08,,---,0.41,VWS V14.01,2013-02-22 22:32:00,
2013-02-22 14:33:00,45.5,44.2,29.80,West,270,2.7,7.4,95,0.08,,---,0.41,VWS V14.01,2013-02-22 22:33:00,
2013-02-22 14:34:00,45.5,44.2,29.79,NNE,22,1.6,2.7,95,0.08,,---,0.41,VWS V14.01,2013-02-22 22:34:00,
2013-02-22 14:35:00,45.5,44.2,29.80,ESE,112,4.0,4.0,95,0.08,,---,0.41,VWS V14.01,2013-02-22 22:35:00,
2013-02-22 14:36:00,45.5,44.2,29.80,WNW,292,1.3,4.3,95,0.08,,---,0.41,VWS V14.01,2013-02-22 22:36:00,
2013-02-22 14:37:00,45.5,44.2,29.80,WSW,248,1.6,3.6,95,0.08,,---,0.41,VWS V14.01,2013-02-22 22:37:00,
2013-02-22 14:38:00,45.5,44.2,29.80,NNE,22,6.0,6.0,95,0.08,,---,0.41,VWS V14.01,2013-02-22 22:38:00,
2013-02-22 14:39:00,45.5,44.2,29.79,ESE,112,2.2,7.6,95,0.08,,---,0.41,VWS V14.01,2013-02-22 22:39:00,
2013-02-22 14:40:00,45.5,44.2,29.80,WNW,292,2.2,4.3,95,0.08,,---,0.41,VWS V14.01,2013-02-22 22:40:00,
2013-02-22 14:41:00,45.5,44.2,29.80,NW,315,2.0,7.4,95,0.08,,---,0.41,VWS V14.01,2013-02-22 22:41:00,
2013-02-22 14:42:00,45.7,44.3,29.80,NNE,22,2.9,3.4,95,0.08,,---,0.41,VWS V14.01,2013-02-22 22:42:00,
2013-02-22 14:43:00,45.7,44.3,29.80,ENE,68,5.4,5.4,95,0.08,,---,0.41,VWS V14.01,2013-02-22 22:43:00,
2013-02-22 14:44:00,45.7,44.3,29.79,South,180,3.8,5.6,95,0.08,,---,0.41,VWS V14.01,2013-02-22 22:44:00,
2013-02-22 14:45:00,45.7,44.3,29.80,NNE,22,3.1,7.2,95,0.04,,---,0.41,VWS V14.01,2013-02-22 22:45:00,
2013-02-22 14:46:00,45.7,44.3,29.80,NNW,338,2.7,3.4,95,0.04,,---,0.41,VWS V14.01,2013-02-22 22:46:00,
2013-02-22 14:47:00,45.7,44.3,29.80,NNE,22,2.9,5.8,95,0.04,,---,0.41,VWS V14.01,2013-02-22 22:47:00,
2013-02-22 14:48:00,45.7,44.3,29.80,ENE,68,2.7,5.6,95,0.04,,---,0.41,VWS V14.01,2013-02-22 22:48:00,
2013-02-22 14:49:00,45.7,44.3,29.79,NNE,22,6.3,6.3,95,0.04,,---,0.41,VWS V14.01,2013-02-22 22:49:00,
2013-02-22 14:50:00,45.7,44.3,29.80,WSW,248,2.7,4.3,95,0.04,,---,0.41,VWS V14.01,2013-02-22 22:50:00,
2013-02-22 14:51:00,45.7,44.3,29.80,NE,45,4.7,4.7,95,0.04,,---,0.41,VWS V14.01,2013-02-22 22:51:00,
2013-02-22 14:52:00,45.7,44.3,29.80,NE,45,4.7,4.7,95,0.04,,---,0.41,VWS V14.01,2013-02-22 22:52:00,
2013-02-22 14:53:00,45.7,44.3,29.80,ENE,68,2.7,6.5,95,0.04,,---,0.41,VWS V14.01,2013-02-22 22:53:00,
2013-02-22 14:54:00,45.7,44.3,29.79,NNW,338,3.1,3.1,95,0.04,,---,0.41,VWS V14.01,2013-02-22 22:54:00,
2013-02-22 14:55:00,45.7,44.3,29.80,North,0,2.9,3.4,95,0.04,,---,0.41,VWS V14.01,2013-02-22 22:55:00,
2013-02-22 14:56:00,45.5,44.2,29.80,NNW,338,3.4,7.6,95,0.00,,---,0.41,VWS V14.01,2013-02-22 22:56:00,
2013-02-22 14:57:00,45.7,44.3,29.80,NNW,338,4.9,8.7,95,0.00,,---,0.41,VWS V14.01,2013-02-22 22:57:00,
2013-02-22 14:58:00,45.7,44.3,29.79,WNW,292,2.2,2.2,95,0.04,,---,0.45,VWS V14.01,2013-02-22 22:58:00,
2013-02-22 14:59:00,45.7,44.3,29.80,ESE,112,3.6,3.6,95,0.04,,---,0.45,VWS V14.01,2013-02-22 22:59:00,
2013-02-22 15:00:00,45.7,44.3,29.80,ESE,112,3.6,3.6,95,0.04,,---,0.45,VWS V14.01,2013-02-22 23:00:00,
2013-02-22 15:01:00,45.5,44.2,29.80,NE,45,2.7,3.6,95,0.04,,---,0.45,VWS V14.01,2013-02-22 23:01:00,
2013-02-22 15:02:00,45.5,44.2,29.80,ESE,112,2.9,7.8,95,0.04,,---,0.45,VWS V14.01,2013-02-22 23:02:00,
2013-02-22 15:03:00,45.5,44.2,29.79,NNW,338,2.5,3.6,95,0.04,,---,0.45,VWS V14.01,2013-02-22 23:03:00,
2013-02-22 15:04:00,45.5,44.2,29.80,East,90,4.3,4.3,95,0.04,,---,0.45,VWS V14.01,2013-02-22 23:04:00,
2013-02-22 15:05:00,45.5,44.2,29.80,NW,315,9.6,9.6,95,0.04,,---,0.45,VWS V14.01,2013-02-22 23:05:00,
2013-02-22 15:06:00,45.5,44.2,29.80,SSW,202,3.4,9.6,95,0.04,,---,0.45,VWS V14.01,2013-02-22 23:06:00,
2013-02-22 15:07:00,45.5,44.2,29.80,North,0,4.0,4.9,95,0.04,,---,0.45,VWS V14.01,2013-02-22 23:07:00,
2013-02-22 15:08:00,45.5,44.2,29.79,North,0,9.6,9.6,95,0.04,,---,0.45,VWS V14.01,2013-02-22 23:08:00,
2013-02-22 15:09:00,45.5,44.2,29.80,NNW,338,2.0,9.6,95,0.04,,---,0.45,VWS V14.01,2013-02-22 23:09:00,
2013-02-22 15:10:00,45.5,44.2,29.80,NNW,338,2.0,2.0,95,0.04,,---,0.45,VWS V14.01,2013-02-22 23:10:00,
2013-02-22 15:11:00,45.5,44.2,29.80,North,0,6.0,6.0,95,0.04,,---,0.45,VWS V14.01,2013-02-22 23:11:00,
2013-02-22 15:12:00,45.5,44.2,29.80,WNW,292,2.7,6.0,95,0.04,,---,0.45,VWS V14.01,2013-02-22 23:12:00,
2013-02-22 15:13:00,45.5,44.2,29.79,NNE,22,2.5,5.4,95,0.04,,---,0.45,VWS V14.01,2013-02-22 23:13:00,
2013-02-22 15:14:00,45.5,44.2,29.80,North,0,3.8,5.4,95,0.04,,---,0.45,VWS V14.01,2013-02-22 23:14:00,
2013-02-22 15:15:00,45.5,44.2,29.80,East,90,2.9,9.8,95,0.04,,---,0.45,VWS V14.01,2013-02-22 23:15:00,
2013-02-22 15:16:00,45.5,44.2,29.80,NNW,338,2.7,2.9,95,0.04,,---,0.45,VWS V14.01,2013-02-22 23:16:00,
2013-02-22 15:17:00,45.5,44.2,29.80,SW,225,5.8,5.8,95,0.04,,---,0.45,VWS V14.01,2013-02-22 23:17:00,
2013-02-22 15:18:00,45.5,44.2,29.79,SW,225,5.8,5.8,95,0.04,,---,0.45,VWS V14.01,2013-02-22 23:18:00,
2013-02-22 15:19:00,45.5,44.2,29.80,SW,225,5.8,5.8,95,0.04,,---,0.45,VWS V14.01,2013-02-22 23:19:00,
2013-02-22 15:20:00,45.5,44.2,29.80,NNW,338,0.9,5.8,95,0.04,,---,0.45,VWS V14.01,2013-02-22 23:20:00,
2013-02-22 15:21:00,45.5,44.2,29.80,WSW,248,2.5,2.5,95,0.04,,---,0.45,VWS V14.01,2013-02-22 23:21:00,
2013-02-22 15:22:00,46.2,45.2,29.80,WSW,248,0.9,2.0,96,0.00,,---,0.45,VWS V14.01,2013-02-22 23:22:00,
2013-02-22 15:23:00,45.5,44.2,29.79,WSW,248,0.0,2.5,95,0.04,,---,0.45,VWS V14.01,2013-02-22 23:23:00,
2013-02-22 15:24:00,45.5,44.2,29.80,NNW,338,1.3,2.0,95,0.04,,---,0.45,VWS V14.01,2013-02-22 23:24:00,
2013-02-22 15:25:00,45.5,44.2,29.80,WSW,248,2.5,3.8,95,0.04,,---,0.45,VWS V14.01,2013-02-22 23:25:00,
2013-02-22 15:26:00,46.2,45.2,29.80,NE,45,0.0,0.9,96,0.00,,---,0.45,VWS V14.01,2013-02-22 23:26:00,
2013-02-22 15:27:00,45.5,44.2,29.80,NE,45,2.0,2.5,95,0.04,,---,0.45,VWS V14.01,2013-02-22 23:27:00,
2013-02-22 15:28:00,45.5,44.2,29.79,SSE,158,4.0,5.4,95,0.04,,---,0.45,VWS V14.01,2013-02-22 23:28:00,
2013-02-22 15:29:00,45.5,44.2,29.80,ESE,112,2.7,5.4,95,0.04,,---,0.45,VWS V14.01,2013-02-22 23:29:00,
2013-02-22 15:30:00,45.5,44.2,29.80,SSW,202,0.0,2.7,95,0.04,,---,0.45,VWS V14.01,2013-02-22 23:30:00,
2013-02-22 15:31:00,45.5,44.2,29.80,NNW,338,3.8,3.8,95,0.04,,---,0.45,VWS V14.01,2013-02-22 23:31:00,
2013-02-22 15:32:00,45.5,44.2,29.80,SE,135,5.4,5.4,95,0.04,,---,0.45,VWS V14.01,2013-02-22 23:32:00,
2013-02-22 15:33:00,45.5,44.2,29.79,WNW,292,4.3,4.3,95,0.04,,---,0.45,VWS V14.01,2013-02-22 23:33:00,
2013-02-22 15:34:00,45.5,44.2,29.80,NNE,22,2.9,4.3,95,0.04,,---,0.45,VWS V14.01,2013-02-22 23:34:00,
2013-02-22 15:35:00,45.5,44.2,29.80,East,90,4.7,9.4,95,0.04,,---,0.45,VWS V14.01,2013-02-22 23:35:00,
2013-02-22 15:36:00,45.5,44.2,29.80,North,0,6.3,6.3,95,0.04,,---,0.45,VWS V14.01,2013-02-22 23:36:00,
2013-02-22 15:37:00,45.5,44.2,29.80,NNE,22,3.1,9.8,95,0.04,,---,0.45,VWS V14.01,2013-02-22 23:37:00,
2013-02-22 15:38:00,45.5,44.2,29.79,NNW,338,3.4,4.5,95,0.04,,---,0.45,VWS V14.01,2013-02-22 23:38:00,
2013-02-22 15:39:00,45.5,44.2,29.80,NE,45,6.0,6.0,95,0.04,,---,0.45,VWS V14.01,2013-02-22 23:39:00,
2013-02-22 15:40:00,45.5,44.2,29.80,East,90,3.6,6.0,95,0.04,,---,0.45,VWS V14.01,2013-02-22 23:40:00,
2013-02-22 15:41:00,45.5,44.2,29.80,SSE,158,2.0,4.3,95,0.04,,---,0.45,VWS V14.01,2013-02-22 23:41:00,
2013-02-22 15:42:00,45.5,44.2,29.80,North,0,5.8,6.3,95,0.04,,---,0.45,VWS V14.01,2013-02-22 23:42:00,
2013-02-22 15:43:00,45.5,44.4,29.79,NNW,338,2.2,2.7,96,0.04,,---,0.45,VWS V14.01,2013-02-22 23:43:00,
2013-02-22 15:44:00,45.5,44.4,29.80,ENE,68,2.9,4.0,96,0.04,,---,0.45,VWS V14.01,2013-02-22 23:44:00,
2013-02-22 15:45:00,45.5,44.4,29.80,South,180,2.9,7.4,96,0.04,,---,0.45,VWS V14.01,2013-02-22 23:45:00,
2013-02-22 15:46:00,45.5,44.4,29.80,NW,315,2.7,3.4,96,0.04,,---,0.45,VWS V14.01,2013-02-22 23:46:00,
2013-02-22 15:47:00,45.5,44.4,29.80,NNW,338,6.0,6.0,96,0.04,,---,0.45,VWS V14.01,2013-02-22 23:47:00,
2013-02-22 15:48:00,45.5,44.4,29.79,NW,315,2.5,2.7,96,0.04,,---,0.45,VWS V14.01,2013-02-22 23:48:00,
2013-02-22 15:49:00,45.5,44.4,29.80,ENE,68,1.1,2.7,96,0.04,,---,0.45,VWS V14.01,2013-02-22 23:49:00,
2013-02-22 15:50:00,45.5,44.4,29.80,East,90,8.1,8.1,96,0.04,,---,0.45,VWS V14.01,2013-02-22 23:50:00,
2013-02-22 15:51:00,45.5,44.4,29.80,ESE,112,2.2,8.1,96,0.04,,---,0.45,VWS V14.01,2013-02-22 23:51:00,
2013-02-22 15:52:00,45.5,44.4,29.80,SSW,202,4.9,4.9,96,0.04,,---,0.45,VWS V14.01,2013-02-22 23:52:00,
2013-02-22 15:53:00,45.5,44.4,29.79,ESE,112,3.4,3.4,96,0.04,,---,0.45,VWS V14.01,2013-02-22 23:53:00,
2013-02-22 15:54:00,45.5,44.4,29.80,NNE,22,4.0,4.0,96,0.04,,---,0.45,VWS V14.01,2013-02-22 23:54:00,
2013-02-22 15:55:00,45.5,44.4,29.80,SE,135,3.6,4.0,96,0.04,,---,0.45,VWS V14.01,2013-02-22 23:55:00,
2013-02-22 15:56:00,45.5,44.4,29.80,North,0,3.8,4.3,96,0.04,,---,0.45,VWS V14.01,2013-02-22 23:56:00,
2013-02-22 15:57:00,45.5,44.4,29.80,WNW,292,3.8,7.8,96,0.04,,---,0.45,VWS V14.01,2013-02-22 23:57:00,
2013-02-22 15:58:00,45.7,44.6,29.79,SE,135,4.0,7.6,96,0.00,,---,0.45,VWS V14.01,2013-02-22 23:58:00,
2013-02-22 15:59:00,45.7,44.6,29.80,SSE,158,3.6,11.9,96,0.00,,---,0.45,VWS V14.01,2013-02-22 23:59:00,
2013-02-22 16:00:00,45.7,44.6,29.80,ESE,112,3.6,3.6,96,0.00,,---,0.45,VWS V14.01,2013-02-23 00:00:00,
2013-02-22 16:01:00,45.7,44.6,29.80,SE,135,2.5,3.6,96,0.00,,---,0.45,VWS V14.01,2013-02-23 00:01:00,
2013-02-22 16:02:00,45.9,44.8,29.80,WNW,292,3.1,3.1,96,0.00,,---,0.45,VWS V14.01,2013-02-23 00:02:00,
2013-02-22 16:03:00,45.9,44.8,29.79,NE,45,2.0,2.9,96,0.00,,---,0.45,VWS V14.01,2013-02-23 00:03:00,
2013-02-22 16:04:00,46.0,45.0,29.80,WNW,292,4.3,4.3,96,0.00,,---,0.45,VWS V14.01,2013-02-23 00:04:00,
2013-02-22 16:05:00,46.0,45.0,29.80,SE,135,1.3,4.3,96,0.00,,---,0.45,VWS V14.01,2013-02-23 00:05:00,
2013-02-22 16:06:00,46.0,45.0,29.80,North,0,1.3,3.4,96,0.00,,---,0.45,VWS V14.01,2013-02-23 00:06:00,
2013-02-22 16:07:00,46.0,45.0,29.80,NE,45,3.1,4.9,96,0.00,,---,0.45,VWS V14.01,2013-02-23 00:07:00,
2013-02-22 16:08:00,46.0,45.0,29.79,WNW,292,2.0,2.5,96,0.00,,---,0.45,VWS V14.01,2013-02-23 00:08:00,
2013-02-22 16:09:00,46.0,45.0,29.80,ENE,68,3.4,3.4,96,0.00,,---,0.45,VWS V14.01,2013-02-23 00:09:00,
2013-02-22 16:10:00,46.0,45.0,29.80,SE,135,1.1,4.0,96,0.00,,---,0.45,VWS V14.01,2013-02-23 00:10:00,
2013-02-22 16:11:00,46.0,45.0,29.80,SE,135,1.1,1.1,96,0.00,,---,0.45,VWS V14.01,2013-02-23 00:11:00,
2013-02-22 16:12:00,46.0,45.0,29.80,NNW,338,2.0,3.4,96,0.00,,---,0.45,VWS V14.01,2013-02-23 00:12:00,
2013-02-22 16:13:00,46.0,45.0,29.79,South,180,4.3,4.3,96,0.00,,---,0.45,VWS V14.01,2013-02-23 00:13:00,
2013-02-22 16:14:00,46.0,45.0,29.80,WNW,292,0.0,3.1,96,0.00,,---,0.45,VWS V14.01,2013-02-23 00:14:00,
2013-02-22 16:15:00,46.2,45.2,29.80,WNW,292,0.9,2.5,96,0.00,,---,0.45,VWS V14.01,2013-02-23 00:15:00,
2013-02-22 16:16:00,46.2,45.2,29.80,ENE,68,4.7,4.7,96,0.00,,---,0.45,VWS V14.01,2013-02-23 00:16:00,
2013-02-22 16:17:00,46.2,45.2,29.80,East,90,0.0,4.7,96,0.00,,---,0.45,VWS V14.01,2013-02-23 00:17:00,
2013-02-22 16:18:00,46.2,45.2,29.79,ESE,112,4.0,4.0,96,0.00,,---,0.45,VWS V14.01,2013-02-23 00:18:00,
2013-02-22 16:19:00,46.2,45.2,29.80,North,0,1.6,4.0,96,0.00,,---,0.45,VWS V14.01,2013-02-23 00:19:00,
2013-02-22 16:20:00,46.2,45.2,29.80,NE,45,1.3,3.4,96,0.00,,---,0.45,VWS V14.01,2013-02-23 00:20:00,
2013-02-22 16:21:00,46.2,45.2,29.80,SSW,202,1.3,4.3,96,0.00,,---,0.45,VWS V14.01,2013-02-23 00:21:00,
2013-02-22 16:22:00,46.2,45.2,29.80,WSW,248,0.9,2.0,96,0.00,,---,0.45,VWS V14.01,2013-02-23 00:22:00,
2013-02-22 16:23:00,46.2,45.2,29.79,NE,45,2.9,2.9,96,0.00,,---,0.45,VWS V14.01,2013-02-23 00:23:00,
2013-02-22 16:24:00,46.2,45.2,29.80,WNW,292,0.0,3.1,96,0.00,,---,0.45,VWS V14.01,2013-02-23 00:24:00,
2013-02-22 16:25:00,46.2,45.2,29.80,NE,45,0.9,2.2,96,0.00,,---,0.45,VWS V14.01,2013-02-23 00:25:00,
2013-02-22 16:26:00,46.2,45.2,29.80,NE,45,0.0,0.9,96,0.00,,---,0.45,VWS V14.01,2013-02-23 00:26:00,
2013-02-22 16:27:00,46.2,45.2,29.80,WSW,248,2.5,2.5,96,0.00,,---,0.45,VWS V14.01,2013-02-23 00:27:00,
2013-02-22 16:28:00,46.2,45.2,29.79,SSW,202,0.9,3.6,96,0.00,,---,0.45,VWS V14.01,2013-02-23 00:28:00,
2013-02-22 16:29:00,46.2,45.2,29.80,NE,45,3.4,3.6,96,0.00,,---,0.45,VWS V14.01,2013-02-23 00:29:00,
2013-02-22 16:30:00,46.2,45.2,29.80,SE,135,0.9,3.6,96,0.00,,---,0.45,VWS V14.01,2013-02-23 00:30:00,
2013-02-22 16:31:00,46.2,45.2,29.80,WNW,292,1.3,2.7,96,0.00,,---,0.45,VWS V14.01,2013-02-23 00:31:00,
2013-02-22 16:32:00,46.2,45.2,29.80,NE,45,1.1,4.0,96,0.00,,---,0.45,VWS V14.01,2013-02-23 00:32:00,
2013-02-22 16:33:00,46.2,45.2,29.79,NNE,22,0.0,0.0,96,0.00,,---,0.45,VWS V14.01,2013-02-23 00:33:00,
2013-02-22 16:34:00,46.2,45.2,29.80,SW,225,0.0,0.0,96,0.00,,---,0.45,VWS V14.01,2013-02-23 00:34:00,
2013-02-22 16:35:00,46.0,45.0,29.80,SSE,158,2.5,3.6,96,0.00,,---,0.45,VWS V14.01,2013-02-23 00:35:00,
2013-02-22 16:36:00,46.0,45.0,29.80,West,270,2.0,2.9,96,0.00,,---,0.45,VWS V14.01,2013-02-23 00:36:00,
2013-02-22 16:37:00,46.0,45.0,29.80,SSE,158,0.0,2.0,96,0.00,,---,0.45,VWS V14.01,2013-02-23 00:37:00,
2013-02-22 16:38:00,46.0,45.0,29.79,ESE,112,3.1,3.1,96,0.00,,---,0.45,VWS V14.01,2013-02-23 00:38:00,
2013-02-22 16:39:00,46.0,45.0,29.80,North,0,4.0,4.0,96,0.00,,---,0.45,VWS V14.01,2013-02-23 00:39:00,
2013-02-22 16:40:00,46.0,45.0,29.80,SE,135,1.3,4.0,96,0.00,,---,0.45,VWS V14.01,2013-02-23 00:40:00,
2013-02-22 16:41:00,46.0,45.0,29.80,NNE,22,8.1,8.1,96,0.00,,---,0.45,VWS V14.01,2013-02-23 00:41:00,
2013-02-22 16:42:00,46.0,45.0,29.80,East,90,2.5,8.1,96,0.00,,---,0.45,VWS V14.01,2013-02-23 00:42:00,
2013-02-22 16:43:00,46.0,45.0,29.79,West,270,2.5,2.5,96,0.00,,---,0.45,VWS V14.01,2013-02-23 00:43:00,
2013-02-22 16:44:00,46.0,45.0,29.80,ESE,112,1.6,3.4,96,0.00,,---,0.45,VWS V14.01,2013-02-23 00:44:00,
2013-02-22 16:45:00,46.0,45.0,29.80,SE,135,0.0,1.6,96,0.00,,---,0.45,VWS V14.01,2013-02-23 00:45:00,
2013-02-22 16:46:00,46.0,45.0,29.80,SE,135,0.9,2.0,96,0.00,,---,0.45,VWS V14.01,2013-02-23 00:46:00,
2013-02-22 16:47:00,45.9,44.5,29.80,WNW,292,0.9,0.9,95,0.00,,---,0.45,VWS V14.01,2013-02-23 00:47:00,
2013-02-22 16:48:00,45.9,44.5,29.79,East,90,2.2,2.2,95,0.00,,---,0.45,VWS V14.01,2013-02-23 00:48:00,
2013-02-22 16:49:00,45.9,44.5,29.80,WNW,292,2.5,3.8,95,0.00,,---,0.45,VWS V14.01,2013-02-23 00:49:00,
2013-02-22 16:50:00,45.9,44.5,29.80,SSW,202,1.6,4.3,95,0.00,,---,0.45,VWS V14.01,2013-02-23 00:50:00,
2013-02-22 16:51:00,45.9,44.5,29.80,WSW,248,1.1,4.0,95,0.00,,---,0.45,VWS V14.01,2013-02-23 00:51:00,
2013-02-22 16:52:00,45.9,44.5,29.80,WSW,248,3.4,5.4,95,0.00,,---,0.45,VWS V14.01,2013-02-23 00:52:00,
2013-02-22 16:53:00,45.9,44.5,29.79,East,90,1.6,2.5,95,0.00,,---,0.45,VWS V14.01,2013-02-23 00:53:00,
2013-02-22 16:54:00,45.3,43.7,29.82,ESE,112,3.1,3.1,94,0.00,,---,0.45,VWS V14.01,2013-02-23 00:54:00,
2013-02-22 16:55:00,45.9,44.5,29.80,SSW,202,1.1,2.9,95,0.00,,---,0.45,VWS V14.01,2013-02-23 00:55:00,
2013-02-22 16:56:00,45.9,44.5,29.80,East,90,4.3,4.3,95,0.00,,---,0.45,VWS V14.01,2013-02-23 00:56:00,
2013-02-22 16:57:00,45.3,43.7,29.82,NNE,22,1.3,2.7,94,0.00,,---,0.45,VWS V14.01,2013-02-23 00:57:00,
2013-02-22 16:58:00,45.9,44.5,29.79,WSW,248,1.1,1.1,95,0.00,,---,0.45,VWS V14.01,2013-02-23 00:58:00,
2013-02-22 16:59:00,45.9,44.5,29.80,North,0,2.0,2.0,95,0.00,,---,0.45,VWS V14.01,2013-02-23 00:59:00,
2013-02-22 17:00:00,45.9,44.5,29.80,NNE,22,2.7,2.9,95,0.00,,---,0.45,VWS V14.01,2013-02-23 01:00:00,
2013-02-22 17:01:00,45.9,44.5,29.80,NW,315,3.6,3.6,95,0.00,,---,0.45,VWS V14.01,2013-02-23 01:01:00,
2013-02-22 17:02:00,45.9,44.5,29.80,WSW,248,2.5,4.0,95,0.00,,---,0.45,VWS V14.01,2013-02-23 01:02:00,
2013-02-22 17:03:00,45.9,44.5,29.79,NNW,338,3.4,3.4,95,0.00,,---,0.45,VWS V14.01,2013-02-23 01:03:00,
2013-02-22 17:04:00,45.9,44.5,29.80,South,180,1.6,3.4,95,0.00,,---,0.45,VWS V14.01,2013-02-23 01:04:00,
2013-02-22 17:05:00,45.9,44.5,29.80,SW,225,0.0,3.4,95,0.00,,---,0.45,VWS V14.01,2013-02-23 01:05:00,
2013-02-22 17:06:00,44.8,42.3,29.80,West,270,0.0,2.5,91,0.00,,---,0.45,VWS V14.01,2013-02-23 01:06:00,
2013-02-22 17:07:00,45.9,44.5,29.80,NE,45,2.7,2.7,95,0.00,,---,0.45,VWS V14.01,2013-02-23 01:07:00,
2013-02-22 17:08:00,45.7,44.3,29.79,ESE,112,4.3,4.3,95,0.00,,---,0.45,VWS V14.01,2013-02-23 01:08:00,
2013-02-22 17:09:00,45.7,44.3,29.80,ESE,112,4.3,4.3,95,0.00,,---,0.45,VWS V14.01,2013-02-23 01:09:00,
2013-02-22 17:10:00,45.7,44.3,29.80,NNE,22,0.0,5.4,95,0.00,,---,0.45,VWS V14.01,2013-02-23 01:10:00,
2013-02-22 17:11:00,45.5,44.2,29.80,SSW,202,2.7,2.7,95,0.00,,---,0.45,VWS V14.01,2013-02-23 01:11:00,
2013-02-22 17:12:00,45.5,44.2,29.80,SSW,202,2.7,2.7,95,0.00,,---,0.45,VWS V14.01,2013-02-23 01:12:00,
2013-02-22 17:13:00,45.5,44.2,29.79,South,180,2.0,2.0,95,0.00,,---,0.45,VWS V14.01,2013-02-23 01:13:00,
2013-02-22 17:14:00,45.5,44.2,29.80,South,180,2.7,2.9,95,0.00,,---,0.45,VWS V14.01,2013-02-23 01:14:00,
2013-02-22 17:15:00,45.5,44.2,29.80,WNW,292,2.2,2.9,95,0.00,,---,0.45,VWS V14.01,2013-02-23 01:15:00,
2013-02-22 17:16:00,45.5,44.2,29.80,NNW,338,5.4,5.4,95,0.00,,---,0.45,VWS V14.01,2013-02-23 01:16:00,
2013-02-22 17:17:00,45.5,44.2,29.80,ESE,112,3.8,5.4,95,0.00,,---,0.45,VWS V14.01,2013-02-23 01:17:00,
2013-02-22 17:18:00,45.5,44.2,29.79,ESE,112,0.0,3.1,95,0.00,,---,0.45,VWS V14.01,2013-02-23 01:18:00,
2013-02-22 17:19:00,45.5,44.2,29.80,NW,315,0.9,3.1,95,0.00,,---,0.45,VWS V14.01,2013-02-23 01:19:00,
2013-02-22 17:20:00,45.5,44.2,29.80,WSW,248,1.6,1.6,95,0.00,,---,0.45,VWS V14.01,2013-02-23 01:20:00,
2013-02-22 17:21:00,45.5,44.2,29.80,WNW,292,1.6,2.0,95,0.00,,---,0.45,VWS V14.01,2013-02-23 01:21:00,
2013-02-22 17:22:00,45.5,44.2,29.80,SSE,158,1.3,1.6,95,0.00,,---,0.45,VWS V14.01,2013-02-23 01:22:00,
2013-02-22 17:23:00,45.5,44.2,29.79,East,90,2.7,2.7,95,0.00,,---,0.45,VWS V14.01,2013-02-23 01:23:00,
2013-02-22 17:24:00,45.5,44.2,29.80,WNW,292,1.6,2.7,95,0.00,,---,0.45,VWS V14.01,2013-02-23 01:24:00,
2013-02-22 17:25:00,45.5,44.2,29.80,South,180,2.5,3.8,95,0.00,,---,0.45,VWS V14.01,2013-02-23 01:25:00,
2013-02-22 17:26:00,45.7,44.3,29.80,NW,315,1.1,2.7,95,0.00,,---,0.45,VWS V14.01,2013-02-23 01:26:00,
2013-02-22 17:27:00,45.7,44.3,29.80,WNW,292,2.5,7.6,95,0.00,,---,0.45,VWS V14.01,2013-02-23 01:27:00,
2013-02-22 17:28:00,45.7,44.3,29.79,NNW,338,0.0,2.2,95,0.00,,---,0.45,VWS V14.01,2013-02-23 01:28:00,
2013-02-22 17:29:00,45.7,44.3,29.80,SSE,158,2.0,3.4,95,0.00,,---,0.45,VWS V14.01,2013-02-23 01:29:00,
2013-02-22 17:30:00,45.7,44.3,29.80,SSW,202,0.0,2.7,95,0.00,,---,0.45,VWS V14.01,2013-02-23 01:30:00,
2013-02-22 17:31:00,45.7,44.3,29.80,ENE,68,1.1,1.1,95,0.00,,---,0.45,VWS V14.01,2013-02-23 01:31:00,
2013-02-22 17:32:00,45.7,44.3,29.80,NNW,338,1.1,2.2,95,0.00,,---,0.45,VWS V14.01,2013-02-23 01:32:00,
2013-02-22 17:33:00,45.7,44.3,29.79,South,180,0.0,0.0,95,0.00,,---,0.45,VWS V14.01,2013-02-23 01:33:00,
2013-02-22 17:34:00,45.7,44.3,29.80,WNW,292,2.5,2.5,95,0.00,,---,0.45,VWS V14.01,2013-02-23 01:34:00,
2013-02-22 17:35:00,45.7,44.3,29.80,SSW,202,2.0,2.5,95,0.00,,---,0.45,VWS V14.01,2013-02-23 01:35:00,
2013-02-22 17:36:00,45.7,44.3,29.80,SW,225,2.0,2.0,95,0.00,,---,0.45,VWS V14.01,2013-02-23 01:36:00,
2013-02-22 17:37:00,45.7,44.3,29.80,NNE,22,4.0,4.0,95,0.00,,---,0.45,VWS V14.01,2013-02-23 01:37:00,
2013-02-22 17:38:00,45.7,44.3,29.79,West,270,2.9,2.9,95,0.00,,---,0.45,VWS V14.01,2013-02-23 01:38:00,
2013-02-22 17:39:00,45.7,44.3,29.80,South,180,2.2,2.9,95,0.00,,---,0.45,VWS V14.01,2013-02-23 01:39:00,
2013-02-22 17:40:00,45.7,44.3,29.80,SE,135,0.0,2.2,95,0.00,,---,0.45,VWS V14.01,2013-02-23 01:40:00,
2013-02-22 17:41:00,45.7,44.3,29.80,SE,135,0.9,2.9,95,0.00,,---,0.45,VWS V14.01,2013-02-23 01:41:00,
2013-02-22 17:42:00,45.7,44.3,29.80,WSW,248,1.3,2.5,95,0.00,,---,0.45,VWS V14.01,2013-02-23 01:42:00,
2013-02-22 17:43:00,45.7,44.3,29.79,SSW,202,0.0,0.0,95,0.00,,---,0.45,VWS V14.01,2013-02-23 01:43:00,
2013-02-22 17:44:00,45.7,44.3,29.80,North,0,2.0,2.0,95,0.00,,---,0.45,VWS V14.01,2013-02-23 01:44:00,
2013-02-22 17:45:00,45.7,44.3,29.80,East,90,1.6,2.5,95,0.00,,---,0.45,VWS V14.01,2013-02-23 01:45:00,
2013-02-22 17:46:00,45.7,44.3,29.80,NNE,22,1.6,6.0,95,0.00,,---,0.45,VWS V14.01,2013-02-23 01:46:00,
2013-02-22 17:47:00,44.2,41.2,29.80,East,90,4.5,4.5,89,0.00,,---,0.45,VWS V14.01,2013-02-23 01:47:00,
2013-02-22 17:48:00,45.5,44.2,29.82,East,90,2.2,2.2,95,0.00,,---,0.45,VWS V14.01,2013-02-23 01:48:00,
2013-02-22 17:49:00,45.5,44.2,29.82,NE,45,0.0,2.7,95,0.00,,---,0.45,VWS V14.01,2013-02-23 01:49:00,
2013-02-22 17:50:00,45.5,44.2,29.82,SE,135,0.9,1.1,95,0.00,,---,0.45,VWS V14.01,2013-02-23 01:50:00,
2013-02-22 17:51:00,45.5,44.2,29.82,NNE,22,1.3,2.2,95,0.00,,---,0.45,VWS V14.01,2013-02-23 01:51:00,
2013-02-22 17:52:00,45.5,43.9,29.82,WNW,292,0.9,2.7,94,0.00,,---,0.45,VWS V14.01,2013-02-23 01:52:00,
2013-02-22 17:53:00,45.5,43.9,29.82,SW,225,2.7,2.7,94,0.00,,---,0.45,VWS V14.01,2013-02-23 01:53:00,
2013-02-22 17:54:00,45.3,43.7,29.82,ESE,112,3.1,3.1,94,0.00,,---,0.45,VWS V14.01,2013-02-23 01:54:00,
2013-02-22 17:55:00,45.3,43.7,29.82,SE,135,2.5,4.3,94,0.00,,---,0.45,VWS V14.01,2013-02-23 01:55:00,
2013-02-22 17:56:00,45.3,43.7,29.82,North,0,1.3,2.5,94,0.00,,---,0.45,VWS V14.01,2013-02-23 01:56:00,
2013-02-22 17:57:00,45.3,43.7,29.82,NNE,22,1.3,2.7,94,0.00,,---,0.45,VWS V14.01,2013-02-23 01:57:00,
2013-02-22 17:58:00,45.3,43.4,29.82,East,90,4.9,4.9,93,0.00,,---,0.45,VWS V14.01,2013-02-23 01:58:00,
2013-02-22 17:59:00,45.1,43.2,29.82,WNW,292,1.3,6.3,93,0.00,,---,0.45,VWS V14.01,2013-02-23 01:59:00,
2013-02-22 18:00:00,45.1,43.2,29.82,SW,225,0.0,1.6,93,0.00,,---,0.45,VWS V14.01,2013-02-23 02:00:00,
2013-02-22 18:01:00,45.1,43.0,29.82,East,90,3.8,4.9,92,0.00,,---,0.45,VWS V14.01,2013-02-23 02:01:00,
2013-02-22 18:02:00,45.1,43.0,29.80,ESE,112,1.1,6.5,92,0.00,,---,0.45,VWS V14.01,2013-02-23 02:02:00,
2013-02-22 18:03:00,45.0,42.8,29.79,West,270,1.1,1.3,92,0.00,,---,0.45,VWS V14.01,2013-02-23 02:03:00,
2013-02-22 18:04:00,45.0,42.8,29.80,West,270,0.0,1.1,92,0.00,,---,0.45,VWS V14.01,2013-02-23 02:04:00,
2013-02-22 18:05:00,45.0,42.5,29.80,NNW,338,1.1,1.1,91,0.00,,---,0.45,VWS V14.01,2013-02-23 02:05:00,
2013-02-22 18:06:00,44.8,42.3,29.80,West,270,0.0,2.5,91,0.00,,---,0.45,VWS V14.01,2013-02-23 02:06:00,
2013-02-22 18:07:00,44.8,42.3,29.80,NNW,338,1.6,2.0,91,0.00,,---,0.45,VWS V14.01,2013-02-23 02:07:00,
2013-02-22 18:08:00,44.8,42.0,29.79,East,90,2.0,2.0,90,0.00,,---,0.45,VWS V14.01,2013-02-23 02:08:00,
2013-02-22 18:09:00,44.6,41.8,29.80,WNW,292,0.9,2.0,90,0.00,,---,0.45,VWS V14.01,2013-02-23 02:09:00,
2013-02-22 18:10:00,43.7,40.1,29.82,SE,135,1.1,3.8,87,0.00,,---,0.45,VWS V14.01,2013-02-23 02:10:00,
2013-02-22 18:11:00,44.6,41.8,29.80,SE,135,0.0,2.5,90,0.00,,---,0.45,VWS V14.01,2013-02-23 02:11:00,
2013-02-22 18:12:00,44.6,41.6,29.80,East,90,1.6,2.5,89,0.00,,---,0.45,VWS V14.01,2013-02-23 02:12:00,
2013-02-22 18:13:00,44.4,41.4,29.79,NNE,22,3.1,3.1,89,0.00,,---,0.45,VWS V14.01,2013-02-23 02:13:00,
2013-02-22 18:14:00,44.4,41.4,29.80,WSW,248,0.0,3.1,89,0.00,,---,0.45,VWS V14.01,2013-02-23 02:14:00,
2013-02-22 18:15:00,44.4,41.4,29.80,WNW,292,0.0,0.9,89,0.00,,---,0.45,VWS V14.01,2013-02-23 02:15:00,
2013-02-22 18:16:00,44.2,41.2,29.80,WNW,292,2.2,2.2,89,0.00,,---,0.45,VWS V14.01,2013-02-23 02:16:00,
2013-02-22 18:17:00,44.2,41.2,29.80,ENE,68,4.9,4.9,89,0.00,,---,0.45,VWS V14.01,2013-02-23 02:17:00,
2013-02-22 18:18:00,44.2,41.2,29.79,NNW,338,1.3,1.3,89,0.00,,---,0.45,VWS V14.01,2013-02-23 02:18:00,
2013-02-22 18:19:00,44.2,41.2,29.80,SSE,158,2.5,2.5,89,0.00,,---,0.45,VWS V14.01,2013-02-23 02:19:00,
2013-02-22 18:20:00,44.2,41.2,29.80,South,180,1.6,2.9,89,0.00,,---,0.45,VWS V14.01,2013-02-23 02:20:00,
2013-02-22 18:21:00,44.2,41.2,29.80,SW,225,0.0,1.6,89,0.00,,---,0.45,VWS V14.01,2013-02-23 02:21:00,
2013-02-22 18:22:00,44.2,41.2,29.80,SE,135,0.0,0.0,89,0.00,,---,0.45,VWS V14.01,2013-02-23 02:22:00,
2013-02-22 18:23:00,44.2,41.2,29.79,SW,225,2.5,2.5,89,0.00,,---,0.45,VWS V14.01,2013-02-23 02:23:00,
2013-02-22 18:24:00,44.2,41.2,29.80,SSW,202,0.0,2.5,89,0.00,,---,0.45,VWS V14.01,2013-02-23 02:24:00,
2013-02-22 18:25:00,44.2,41.2,29.80,ENE,68,0.9,0.9,89,0.00,,---,0.45,VWS V14.01,2013-02-23 02:25:00,
2013-02-22 18:26:00,44.2,41.2,29.80,WNW,292,3.6,3.6,89,0.00,,---,0.45,VWS V14.01,2013-02-23 02:26:00,
2013-02-22 18:27:00,44.2,41.2,29.80,SE,135,0.0,3.6,89,0.00,,---,0.45,VWS V14.01,2013-02-23 02:27:00,
2013-02-22 18:28:00,44.1,41.0,29.79,SE,135,2.0,2.0,89,0.00,,---,0.45,VWS V14.01,2013-02-23 02:28:00,
2013-02-22 18:29:00,44.1,41.0,29.80,ESE,112,1.1,6.0,89,0.00,,---,0.45,VWS V14.01,2013-02-23 02:29:00,
2013-02-22 18:30:00,44.1,41.0,29.80,SE,135,3.6,3.6,89,0.00,,---,0.45,VWS V14.01,2013-02-23 02:30:00,
2013-02-22 18:31:00,44.2,41.2,29.80,ESE,112,2.5,3.6,89,0.00,,---,0.45,VWS V14.01,2013-02-23 02:31:00,
2013-02-22 18:32:00,44.2,41.2,29.82,East,90,1.3,2.9,89,0.00,,---,0.45,VWS V14.01,2013-02-23 02:32:00,
2013-02-22 18:33:00,44.2,41.2,29.82,ESE,112,3.8,3.8,89,0.00,,---,0.45,VWS V14.01,2013-02-23 02:33:00,
2013-02-22 18:34:00,44.2,41.2,29.82,SE,135,1.6,4.3,89,0.00,,---,0.45,VWS V14.01,2013-02-23 02:34:00,
2013-02-22 18:35:00,44.2,41.2,29.82,NE,45,2.7,3.1,89,0.00,,---,0.45,VWS V14.01,2013-02-23 02:35:00,
2013-02-22 18:36:00,44.2,41.2,29.82,NE,45,3.4,3.4,89,0.00,,---,0.45,VWS V14.01,2013-02-23 02:36:00,
2013-02-22 18:37:00,44.2,41.2,29.82,NNW,338,2.0,3.4,89,0.00,,---,0.45,VWS V14.01,2013-02-23 02:37:00,
2013-02-22 18:38:00,44.2,41.2,29.82,WNW,292,4.3,4.3,89,0.00,,---,0.45,VWS V14.01,2013-02-23 02:38:00,
2013-02-22 18:39:00,44.2,41.2,29.82,SSE,158,2.5,4.9,89,0.00,,---,0.45,VWS V14.01,2013-02-23 02:39:00,
2013-02-22 18:40:00,44.2,41.2,29.82,ENE,68,2.0,6.0,89,0.00,,---,0.45,VWS V14.01,2013-02-23 02:40:00,
2013-02-22 18:41:00,44.2,41.2,29.82,East,90,2.7,3.6,89,0.00,,---,0.45,VWS V14.01,2013-02-23 02:41:00,
2013-02-22 18:42:00,44.2,41.2,29.82,ESE,112,5.6,5.6,89,0.00,,---,0.45,VWS V14.01,2013-02-23 02:42:00,
2013-02-22 18:43:00,44.2,41.2,29.82,ESE,112,2.7,2.7,89,0.00,,---,0.45,VWS V14.01,2013-02-23 02:43:00,
2013-02-22 18:44:00,44.2,41.2,29.82,NW,315,0.0,2.7,89,0.00,,---,0.45,VWS V14.01,2013-02-23 02:44:00,
2013-02-22 18:45:00,44.2,41.2,29.82,WNW,292,1.1,1.1,89,0.00,,---,0.45,VWS V14.01,2013-02-23 02:45:00,
2013-02-22 18:46:00,44.2,41.2,29.82,ESE,112,0.0,1.1,89,0.00,,---,0.45,VWS V14.01,2013-02-23 02:46:00,
2013-02-22 18:47:00,44.2,41.2,29.80,East,90,4.5,4.5,89,0.00,,---,0.45,VWS V14.01,2013-02-23 02:47:00,
2013-02-22 18:48:00,44.2,41.2,29.79,East,90,4.5,4.5,89,0.00,,---,0.45,VWS V14.01,2013-02-23 02:48:00,
2013-02-22 18:49:00,44.2,41.2,29.80,SE,135,2.5,7.6,89,0.00,,---,0.45,VWS V14.01,2013-02-23 02:49:00,
2013-02-22 18:50:00,44.2,41.2,29.80,NNE,22,3.6,5.8,89,0.00,,---,0.45,VWS V14.01,2013-02-23 02:50:00,
2013-02-22 18:51:00,44.2,41.2,29.80,SE,135,1.6,8.7,89,0.00,,---,0.45,VWS V14.01,2013-02-23 02:51:00,
2013-02-22 18:52:00,44.2,41.2,29.80,East,90,3.6,3.6,89,0.00,,---,0.45,VWS V14.01,2013-02-23 02:52:00,
2013-02-22 18:53:00,44.2,41.2,29.79,SE,135,3.8,7.4,89,0.00,,---,0.45,VWS V14.01,2013-02-23 02:53:00,
2013-02-22 18:54:00,44.2,40.9,29.80,East,90,0.9,3.8,88,0.00,,---,0.45,VWS V14.01,2013-02-23 02:54:00,
2013-02-22 18:55:00,44.2,40.9,29.80,ENE,68,0.9,8.1,88,0.00,,---,0.45,VWS V14.01,2013-02-23 02:55:00,
2013-02-22 18:56:00,44.2,40.9,29.80,ENE,68,0.9,0.9,88,0.00,,---,0.45,VWS V14.01,2013-02-23 02:56:00,
2013-02-22 18:57:00,42.8,38.6,29.82,ESE,112,2.7,4.3,85,0.00,,---,0.45,VWS V14.01,2013-02-23 02:57:00,
2013-02-22 18:58:00,44.2,40.9,29.79,ESE,112,4.3,4.3,88,0.00,,---,0.45,VWS V14.01,2013-02-23 02:58:00,
2013-02-22 18:59:00,44.1,40.5,29.80,NNW,338,3.1,4.7,87,0.00,,---,0.45,VWS V14.01,2013-02-23 02:59:00,
2013-02-22 19:00:00,44.1,40.5,29.80,ESE,112,2.5,3.1,87,0.00,,---,0.45,VWS V14.01,2013-02-23 03:00:00,
2013-02-22 19:01:00,44.1,40.5,29.80,ENE,68,0.9,2.5,87,0.00,,---,0.45,VWS V14.01,2013-02-23 03:01:00,
2013-02-22 19:02:00,44.1,40.5,29.82,SE,135,4.0,4.0,87,0.00,,---,0.45,VWS V14.01,2013-02-23 03:02:00,
2013-02-22 19:03:00,44.1,40.5,29.82,East,90,3.6,4.0,87,0.00,,---,0.45,VWS V14.01,2013-02-23 03:03:00,
2013-02-22 19:04:00,44.1,40.5,29.82,SE,135,3.6,3.6,87,0.00,,---,0.45,VWS V14.01,2013-02-23 03:04:00,
2013-02-22 19:05:00,44.1,40.5,29.82,North,0,0.0,3.6,87,0.00,,---,0.45,VWS V14.01,2013-02-23 03:05:00,
2013-02-22 19:06:00,43.9,40.3,29.82,SE,135,3.1,3.1,87,0.00,,---,0.45,VWS V14.01,2013-02-23 03:06:00,
2013-02-22 19:07:00,43.9,40.3,29.82,SSE,158,2.2,4.7,87,0.00,,---,0.45,VWS V14.01,2013-02-23 03:07:00,
2013-02-22 19:08:00,43.9,40.3,29.82,ENE,68,0.0,3.6,87,0.00,,---,0.45,VWS V14.01,2013-02-23 03:08:00,
2013-02-22 19:09:00,43.9,40.3,29.82,NE,45,2.9,2.9,87,0.00,,---,0.45,VWS V14.01,2013-02-23 03:09:00,
2013-02-22 19:10:00,43.7,40.1,29.82,SE,135,1.1,3.8,87,0.00,,---,0.45,VWS V14.01,2013-02-23 03:10:00,
2013-02-22 19:11:00,43.7,40.1,29.82,North,0,2.5,5.8,87,0.00,,---,0.45,VWS V14.01,2013-02-23 03:11:00,
2013-02-22 19:12:00,43.7,40.1,29.82,East,90,1.6,2.5,87,0.00,,---,0.45,VWS V14.01,2013-02-23 03:12:00,
2013-02-22 19:13:00,43.7,40.1,29.82,NNE,22,2.7,4.3,87,0.00,,---,0.45,VWS V14.01,2013-02-23 03:13:00,
2013-02-22 19:14:00,43.7,40.1,29.82,North,0,2.7,2.7,87,0.00,,---,0.45,VWS V14.01,2013-02-23 03:14:00,
2013-02-22 19:15:00,43.7,40.1,29.82,SSW,202,1.3,3.4,87,0.00,,---,0.45,VWS V14.01,2013-02-23 03:15:00,
2013-02-22 19:16:00,43.7,40.1,29.82,ENE,68,3.4,3.4,87,0.00,,---,0.45,VWS V14.01,2013-02-23 03:16:00,
2013-02-22 19:17:00,43.5,39.9,29.82,SE,135,2.2,4.3,87,0.00,,---,0.45,VWS V14.01,2013-02-23 03:17:00,
2013-02-22 19:18:00,43.5,39.9,29.82,East,90,3.6,3.6,87,0.00,,---,0.45,VWS V14.01,2013-02-23 03:18:00,
2013-02-22 19:19:00,43.5,39.9,29.82,East,90,4.0,4.0,87,0.00,,---,0.45,VWS V14.01,2013-02-23 03:19:00,
2013-02-22 19:20:00,43.5,39.9,29.82,NNE,22,2.2,4.0,87,0.00,,---,0.45,VWS V14.01,2013-02-23 03:20:00,
2013-02-22 19:21:00,43.5,39.9,29.82,SE,135,0.0,2.2,87,0.00,,---,0.45,VWS V14.01,2013-02-23 03:21:00,
2013-02-22 19:22:00,43.5,39.9,29.82,SE,135,0.0,0.0,87,0.00,,---,0.45,VWS V14.01,2013-02-23 03:22:00,
2013-02-22 19:23:00,43.5,39.9,29.82,ENE,68,2.5,2.5,87,0.00,,---,0.45,VWS V14.01,2013-02-23 03:23:00,
2013-02-22 19:24:00,43.5,39.9,29.82,SSE,158,5.4,5.4,87,0.00,,---,0.45,VWS V14.01,2013-02-23 03:24:00,
2013-02-22 19:25:00,43.5,39.9,29.82,NE,45,2.7,5.4,87,0.00,,---,0.45,VWS V14.01,2013-02-23 03:25:00,
2013-02-22 19:26:00,43.5,39.9,29.82,NE,45,2.2,2.7,87,0.00,,---,0.45,VWS V14.01,2013-02-23 03:26:00,
2013-02-22 19:27:00,43.5,39.9,29.82,SE,135,1.1,2.2,87,0.00,,---,0.45,VWS V14.01,2013-02-23 03:27:00,
2013-02-22 19:28:00,43.5,39.9,29.82,ENE,68,4.9,4.9,87,0.00,,---,0.45,VWS V14.01,2013-02-23 03:28:00,
2013-02-22 19:29:00,43.5,39.9,29.82,East,90,4.9,5.6,87,0.00,,---,0.45,VWS V14.01,2013-02-23 03:29:00,
2013-02-22 19:30:00,43.5,39.9,29.82,South,180,0.0,4.9,87,0.00,,---,0.45,VWS V14.01,2013-02-23 03:30:00,
2013-02-22 19:31:00,43.5,39.9,29.82,NE,45,4.3,4.3,87,0.00,,---,0.45,VWS V14.01,2013-02-23 03:31:00,
2013-02-22 19:32:00,43.5,39.9,29.82,East,90,5.8,7.4,87,0.00,,---,0.45,VWS V14.01,2013-02-23 03:32:00,
2013-02-22 19:33:00,43.3,39.4,29.82,SE,135,2.2,5.8,86,0.00,,---,0.45,VWS V14.01,2013-02-23 03:33:00,
2013-02-22 19:35:00,43.3,39.4,29.82,SE,135,2.2,3.4,86,0.00,,---,0.45,VWS V14.01,2013-02-23 03:35:00,
2013-02-22 19:36:00,42.3,37.8,29.82,East,90,0.0,0.0,84,0.00,,---,0.45,VWS V14.01,2013-02-23 03:36:00,
2013-02-22 19:37:00,43.3,39.4,29.82,ESE,112,4.3,4.3,86,0.00,,---,0.45,VWS V14.01,2013-02-23 03:37:00,
2013-02-22 19:38:00,43.3,39.4,29.82,NNE,22,1.1,4.3,86,0.00,,---,0.45,VWS V14.01,2013-02-23 03:38:00,
2013-02-22 19:39:00,43.3,39.4,29.82,NNE,22,1.1,4.3,86,0.00,,---,0.45,VWS V14.01,2013-02-23 03:39:00,
2013-02-22 19:40:00,43.2,39.3,29.82,ESE,112,4.3,6.5,86,0.00,,---,0.45,VWS V14.01,2013-02-23 03:40:00,
2013-02-22 19:41:00,43.2,39.3,29.82,East,90,1.3,4.3,86,0.00,,---,0.45,VWS V14.01,2013-02-23 03:41:00,
2013-02-22 19:42:00,43.2,39.3,29.82,SW,225,0.0,1.3,86,0.00,,---,0.45,VWS V14.01,2013-02-23 03:42:00,
2013-02-22 19:43:00,43.0,39.1,29.82,WSW,248,0.0,0.0,86,0.00,,---,0.45,VWS V14.01,2013-02-23 03:43:00,
2013-02-22 19:44:00,43.0,39.1,29.82,ESE,112,2.7,2.7,86,0.00,,---,0.45,VWS V14.01,2013-02-23 03:44:00,
2013-02-22 19:45:00,43.0,39.1,29.82,East,90,4.7,5.6,86,0.00,,---,0.45,VWS V14.01,2013-02-23 03:45:00,
2013-02-22 19:46:00,43.0,39.1,29.82,SSW,202,2.7,4.7,86,0.00,,---,0.45,VWS V14.01,2013-02-23 03:46:00,
2013-02-22 19:47:00,43.0,39.1,29.82,NNW,338,2.7,2.7,86,0.00,,---,0.45,VWS V14.01,2013-02-23 03:47:00,
2013-02-22 19:48:00,43.0,39.1,29.82,South,180,2.7,7.4,86,0.00,,---,0.45,VWS V14.01,2013-02-23 03:48:00,
2013-02-22 19:49:00,43.0,39.1,29.82,East,90,2.9,3.1,86,0.00,,---,0.45,VWS V14.01,2013-02-23 03:49:00,
2013-02-22 19:50:00,43.0,39.1,29.82,South,180,0.0,2.9,86,0.00,,---,0.45,VWS V14.01,2013-02-23 03:50:00,
2013-02-22 19:51:00,43.0,39.1,29.82,SE,135,0.0,0.0,86,0.00,,---,0.45,VWS V14.01,2013-02-23 03:51:00,
2013-02-22 19:52:00,43.0,39.1,29.82,ESE,112,1.1,2.2,86,0.00,,---,0.45,VWS V14.01,2013-02-23 03:52:00,
2013-02-22 19:53:00,43.0,39.1,29.82,ESE,112,3.4,3.4,86,0.00,,---,0.45,VWS V14.01,2013-02-23 03:53:00,
2013-02-22 19:54:00,43.0,39.1,29.82,ENE,68,2.7,3.4,86,0.00,,---,0.45,VWS V14.01,2013-02-23 03:54:00,
2013-02-22 19:55:00,42.8,38.6,29.82,SE,135,0.0,2.7,85,0.00,,---,0.45,VWS V14.01,2013-02-23 03:55:00,
2013-02-22 19:56:00,42.8,38.6,29.82,SE,135,3.1,3.8,85,0.00,,---,0.45,VWS V14.01,2013-02-23 03:56:00,
2013-02-22 19:57:00,42.8,38.6,29.82,ESE,112,2.7,4.3,85,0.00,,---,0.45,VWS V14.01,2013-02-23 03:57:00,
2013-02-22 19:58:00,42.8,38.6,29.82,SE,135,2.2,4.0,85,0.00,,---,0.45,VWS V14.01,2013-02-23 03:58:00,
2013-02-22 19:59:00,42.8,38.6,29.82,NNW,338,2.0,3.4,85,0.00,,---,0.45,VWS V14.01,2013-02-23 03:59:00,
2013-02-22 20:00:00,42.8,38.6,29.82,ESE,112,5.4,5.4,85,0.00,,---,0.45,VWS V14.01,2013-02-23 04:00:00,
2013-02-22 20:01:00,42.8,38.6,29.82,NE,45,2.0,5.4,85,0.00,,---,0.45,VWS V14.01,2013-02-23 04:01:00,
2013-02-22 20:02:00,42.8,38.6,29.85,East,90,2.0,3.6,85,0.00,,---,0.45,VWS V14.01,2013-02-23 04:02:00,
2013-02-22 20:03:00,42.8,38.6,29.85,WSW,248,3.4,3.4,85,0.00,,---,0.45,VWS V14.01,2013-02-23 04:03:00,
2013-02-22 20:04:00,42.8,38.6,29.85,SE,135,1.1,3.4,85,0.00,,---,0.45,VWS V14.01,2013-02-23 04:04:00,
2013-02-22 20:05:00,42.8,38.6,29.85,SSE,158,3.4,3.8,85,0.00,,---,0.45,VWS V14.01,2013-02-23 04:05:00,
2013-02-22 20:06:00,42.8,38.6,29.85,East,90,2.5,3.4,85,0.00,,---,0.45,VWS V14.01,2013-02-23 04:06:00,
2013-02-22 20:07:00,42.8,38.6,29.85,SSE,158,2.0,2.5,85,0.00,,---,0.45,VWS V14.01,2013-02-23 04:07:00,
2013-02-22 20:08:00,42.6,38.4,29.85,SSE,158,0.9,2.0,85,0.00,,---,0.45,VWS V14.01,2013-02-23 04:08:00,
2013-02-22 20:09:00,42.6,38.4,29.85,SE,135,3.4,3.4,85,0.00,,---,0.45,VWS V14.01,2013-02-23 04:09:00,
2013-02-22 20:10:00,42.4,38.3,29.85,ESE,112,3.6,3.6,85,0.00,,---,0.45,VWS V14.01,2013-02-23 04:10:00,
2013-02-22 20:11:00,42.4,38.3,29.85,SSE,158,0.9,3.6,85,0.00,,---,0.45,VWS V14.01,2013-02-23 04:11:00,
2013-02-22 20:12:00,42.4,38.3,29.85,SE,135,2.7,2.9,85,0.00,,---,0.45,VWS V14.01,2013-02-23 04:12:00,
2013-02-22 20:13:00,42.4,38.3,29.85,SSW,202,0.0,2.7,85,0.00,,---,0.45,VWS V14.01,2013-02-23 04:13:00,
2013-02-22 20:14:00,42.4,38.3,29.85,SE,135,3.4,3.4,85,0.00,,---,0.45,VWS V14.01,2013-02-23 04:14:00,
2013-02-22 20:15:00,42.4,38.3,29.85,SE,135,2.7,3.4,85,0.00,,---,0.45,VWS V14.01,2013-02-23 04:15:00,
2013-02-22 20:16:00,42.4,38.3,29.85,SSE,158,2.9,3.8,85,0.00,,---,0.45,VWS V14.01,2013-02-23 04:16:00,
2013-02-22 20:17:00,42.4,38.3,29.85,SE,135,2.5,2.9,85,0.00,,---,0.45,VWS V14.01,2013-02-23 04:17:00,
2013-02-22 20:18:00,42.4,38.0,29.82,SSE,158,0.9,2.9,84,0.00,,---,0.45,VWS V14.01,2013-02-23 04:18:00,
2013-02-22 20:19:00,42.4,38.0,29.82,ESE,112,2.2,2.2,84,0.00,,---,0.45,VWS V14.01,2013-02-23 04:19:00,
2013-02-22 20:20:00,42.4,38.0,29.82,SSE,158,2.0,2.2,84,0.00,,---,0.45,VWS V14.01,2013-02-23 04:20:00,
2013-02-22 20:21:00,42.4,38.3,29.82,East,90,0.0,2.0,85,0.00,,---,0.45,VWS V14.01,2013-02-23 04:21:00,
2013-02-22 20:22:00,42.4,38.3,29.82,SE,135,0.0,1.1,85,0.00,,---,0.45,VWS V14.01,2013-02-23 04:22:00,
2013-02-22 20:23:00,42.4,38.3,29.82,SE,135,0.9,0.9,85,0.00,,---,0.45,VWS V14.01,2013-02-23 04:23:00,
2013-02-22 20:24:00,42.3,37.8,29.82,South,180,0.0,0.9,84,0.00,,---,0.45,VWS V14.01,2013-02-23 04:24:00,
2013-02-22 20:25:00,42.3,37.8,29.82,SSE,158,0.0,0.0,84,0.00,,---,0.45,VWS V14.01,2013-02-23 04:25:00,
2013-02-22 20:26:00,41.5,36.2,29.85,East,90,2.2,2.9,81,0.00,,---,0.45,VWS V14.01,2013-02-23 04:26:00,
2013-02-22 20:27:00,42.4,38.0,29.82,SW,225,2.2,2.2,84,0.00,,---,0.45,VWS V14.01,2013-02-23 04:27:00,
2013-02-22 20:28:00,42.4,38.0,29.82,ENE,68,0.0,2.2,84,0.00,,---,0.45,VWS V14.01,2013-02-23 04:28:00,
2013-02-22 20:29:00,42.4,38.0,29.82,ESE,112,0.0,2.2,84,0.00,,---,0.45,VWS V14.01,2013-02-23 04:29:00,
2013-02-22 20:30:00,42.4,38.3,29.82,SE,135,0.0,2.5,85,0.00,,---,0.45,VWS V14.01,2013-02-23 04:30:00,
2013-02-22 20:31:00,42.4,38.3,29.82,ESE,112,1.3,1.3,85,0.00,,---,0.45,VWS V14.01,2013-02-23 04:31:00,
2013-02-22 20:32:00,42.4,38.0,29.82,ENE,68,0.0,3.4,84,0.00,,---,0.45,VWS V14.01,2013-02-23 04:32:00,
2013-02-22 20:33:00,42.4,38.0,29.82,WSW,248,0.0,0.0,84,0.00,,---,0.45,VWS V14.01,2013-02-23 04:33:00,
2013-02-22 20:34:00,41.7,36.3,29.88,SSE,158,4.5,6.3,81,0.00,,---,0.45,VWS V14.01,2013-02-23 04:34:00,
2013-02-22 20:35:00,42.4,38.0,29.82,NE,45,0.0,2.5,84,0.00,,---,0.45,VWS V14.01,2013-02-23 04:35:00,
2013-02-22 20:36:00,42.3,37.8,29.82,East,90,0.0,0.0,84,0.00,,---,0.45,VWS V14.01,2013-02-23 04:36:00,
2013-02-22 20:37:00,42.3,37.8,29.82,ENE,68,2.7,3.4,84,0.00,,---,0.45,VWS V14.01,2013-02-23 04:37:00,
2013-02-22 20:38:00,42.3,37.8,29.82,East,90,0.0,2.7,84,0.00,,---,0.45,VWS V14.01,2013-02-23 04:38:00,
2013-02-22 20:39:00,42.3,37.8,29.82,SSW,202,1.3,1.3,84,0.00,,---,0.45,VWS V14.01,2013-02-23 04:39:00,
2013-02-22 20:40:00,42.3,37.8,29.82,NNE,22,2.2,2.7,84,0.00,,---,0.45,VWS V14.01,2013-02-23 04:40:00,
2013-02-22 20:41:00,42.3,37.8,29.82,SSW,202,2.7,2.7,84,0.00,,---,0.45,VWS V14.01,2013-02-23 04:41:00,
2013-02-22 20:42:00,42.3,37.8,29.82,East,90,0.9,2.7,84,0.00,,---,0.45,VWS V14.01,2013-02-23 04:42:00,
2013-02-22 20:43:00,42.3,37.8,29.82,SE,135,2.7,2.7,84,0.00,,---,0.45,VWS V14.01,2013-02-23 04:43:00,
2013-02-22 20:44:00,42.1,37.6,29.82,SE,135,1.1,3.1,84,0.00,,---,0.45,VWS V14.01,2013-02-23 04:44:00,
2013-02-22 20:45:00,42.1,37.6,29.82,SE,135,2.5,2.7,84,0.00,,---,0.45,VWS V14.01,2013-02-23 04:45:00,
2013-02-22 20:46:00,42.1,37.3,29.82,SSE,158,0.0,2.5,83,0.00,,---,0.45,VWS V14.01,2013-02-23 04:46:00,
2013-02-22 20:47:00,42.1,37.6,29.85,East,90,1.6,2.5,84,0.00,,---,0.45,VWS V14.01,2013-02-23 04:47:00,
2013-02-22 20:48:00,42.1,37.3,29.85,ESE,112,2.9,3.4,83,0.00,,---,0.45,VWS V14.01,2013-02-23 04:48:00,
2013-02-22 20:49:00,42.1,37.3,29.85,ESE,112,3.6,5.8,83,0.00,,---,0.45,VWS V14.01,2013-02-23 04:49:00,
2013-02-22 20:50:00,42.1,37.3,29.85,ESE,112,0.0,3.6,83,0.00,,---,0.45,VWS V14.01,2013-02-23 04:50:00,
2013-02-22 20:51:00,42.1,37.3,29.85,SE,135,0.0,1.6,83,0.00,,---,0.45,VWS V14.01,2013-02-23 04:51:00,
2013-02-22 20:52:00,41.9,37.1,29.85,WNW,292,0.0,1.6,83,0.00,,---,0.45,VWS V14.01,2013-02-23 04:52:00,
2013-02-22 20:53:00,41.9,37.1,29.85,NNW,338,0.0,0.9,83,0.00,,---,0.45,VWS V14.01,2013-02-23 04:53:00,
2013-02-22 20:54:00,41.9,37.1,29.85,NW,315,1.6,1.6,83,0.00,,---,0.45,VWS V14.01,2013-02-23 04:54:00,
2013-02-22 20:55:00,41.9,36.8,29.85,South,180,0.0,1.6,82,0.00,,---,0.45,VWS V14.01,2013-02-23 04:55:00,
2013-02-22 20:56:00,41.5,35.5,29.91,East,90,2.9,4.9,79,0.00,,---,0.45,VWS V14.01,2013-02-23 04:56:00,
2013-02-22 20:57:00,41.9,36.8,29.85,WSW,248,0.0,1.6,82,0.00,,---,0.45,VWS V14.01,2013-02-23 04:57:00,
2013-02-22 20:58:00,41.7,36.6,29.85,SSW,202,0.0,0.0,82,0.00,,---,0.45,VWS V14.01,2013-02-23 04:58:00,
2013-02-22 20:59:00,41.7,36.6,29.85,NNE,22,0.0,1.3,82,0.00,,---,0.45,VWS V14.01,2013-02-23 04:59:00,
2013-02-22 21:00:00,41.7,36.6,29.85,SSE,158,1.1,1.1,82,0.00,,---,0.45,VWS V14.01,2013-02-23 05:00:00,
2013-02-22 21:01:00,41.7,36.6,29.85,WSW,248,0.0,3.4,82,0.00,,---,0.45,VWS V14.01,2013-02-23 05:01:00,
2013-02-22 21:02:00,41.7,36.6,29.85,WSW,248,0.0,0.0,82,0.00,,---,0.45,VWS V14.01,2013-02-23 05:02:00,
2013-02-22 21:03:00,41.5,36.5,29.85,NNE,22,0.0,0.0,82,0.00,,---,0.45,VWS V14.01,2013-02-23 05:03:00,
2013-02-22 21:04:00,41.5,36.5,29.85,West,270,0.0,0.0,82,0.00,,---,0.45,VWS V14.01,2013-02-23 05:04:00,
2013-02-22 21:05:00,41.5,36.5,29.85,SSW,202,0.0,0.0,82,0.00,,---,0.45,VWS V14.01,2013-02-23 05:05:00,
2013-02-22 21:06:00,41.4,35.7,29.88,ESE,112,2.7,2.7,80,0.00,,---,0.45,VWS V14.01,2013-02-23 05:06:00,
2013-02-22 21:07:00,41.5,36.5,29.85,ESE,112,2.5,2.5,82,0.00,,---,0.45,VWS V14.01,2013-02-23 05:07:00,
2013-02-22 21:08:00,41.5,36.2,29.85,ESE,112,0.0,2.5,81,0.00,,---,0.45,VWS V14.01,2013-02-23 05:08:00,
2013-02-22 21:09:00,41.5,36.5,29.85,East,90,0.0,1.6,82,0.00,,---,0.45,VWS V14.01,2013-02-23 05:09:00,
2013-02-22 21:10:00,41.5,36.5,29.85,North,0,3.4,4.0,82,0.00,,---,0.45,VWS V14.01,2013-02-23 05:10:00,
2013-02-22 21:11:00,41.4,35.7,29.88,ESE,112,4.0,4.0,80,0.00,,---,0.45,VWS V14.01,2013-02-23 05:11:00,
2013-02-22 21:12:00,41.5,36.5,29.85,East,90,1.1,3.4,82,0.00,,---,0.45,VWS V14.01,2013-02-23 05:12:00,
2013-02-22 21:13:00,41.5,36.2,29.85,ESE,112,2.2,2.2,81,0.00,,---,0.45,VWS V14.01,2013-02-23 05:13:00,
2013-02-22 21:14:00,41.4,36.0,29.85,SSE,158,3.8,3.8,81,0.00,,---,0.45,VWS V14.01,2013-02-23 05:14:00,
2013-02-22 21:15:00,41.4,36.0,29.85,SSE,158,2.5,3.8,81,0.00,,---,0.45,VWS V14.01,2013-02-23 05:15:00,
2013-02-22 21:16:00,41.5,36.2,29.85,SSE,158,1.6,2.7,81,0.00,,---,0.45,VWS V14.01,2013-02-23 05:16:00,
2013-02-22 21:17:00,41.5,36.2,29.85,SSE,158,0.0,1.6,81,0.00,,---,0.45,VWS V14.01,2013-02-23 05:17:00,
2013-02-22 21:18:00,41.5,36.2,29.85,SW,225,0.0,0.0,81,0.00,,---,0.45,VWS V14.01,2013-02-23 05:18:00,
2013-02-22 21:19:00,41.5,36.2,29.85,SSW,202,0.0,0.0,81,0.00,,---,0.45,VWS V14.01,2013-02-23 05:19:00,
2013-02-22 21:20:00,41.5,36.2,29.85,South,180,0.0,0.9,81,0.00,,---,0.45,VWS V14.01,2013-02-23 05:20:00,
2013-02-22 21:21:00,41.5,36.2,29.85,East,90,0.0,0.0,81,0.00,,---,0.45,VWS V14.01,2013-02-23 05:21:00,
2013-02-22 21:22:00,41.5,36.2,29.85,NE,45,0.0,3.1,81,0.00,,---,0.45,VWS V14.01,2013-02-23 05:22:00,
2013-02-22 21:23:00,41.4,36.0,29.85,East,90,1.3,4.0,81,0.00,,---,0.45,VWS V14.01,2013-02-23 05:23:00,
2013-02-22 21:24:00,41.4,36.0,29.85,North,0,1.3,6.3,81,0.00,,---,0.45,VWS V14.01,2013-02-23 05:24:00,
2013-02-22 21:25:00,41.4,36.0,29.85,East,90,2.9,2.9,81,0.00,,---,0.45,VWS V14.01,2013-02-23 05:25:00,
2013-02-22 21:26:00,41.5,36.2,29.85,East,90,2.2,2.9,81,0.00,,---,0.45,VWS V14.01,2013-02-23 05:26:00,
2013-02-22 21:27:00,41.5,36.2,29.85,SE,135,1.1,3.4,81,0.00,,---,0.45,VWS V14.01,2013-02-23 05:27:00,
2013-02-22 21:28:00,41.5,36.2,29.85,North,0,2.5,2.5,81,0.00,,---,0.45,VWS V14.01,2013-02-23 05:28:00,
2013-02-22 21:29:00,41.5,36.2,29.85,East,90,2.9,2.9,81,0.00,,---,0.45,VWS V14.01,2013-02-23 05:29:00,
2013-02-22 21:30:00,41.5,36.2,29.85,WNW,292,2.0,2.9,81,0.00,,---,0.45,VWS V14.01,2013-02-23 05:30:00,
2013-02-22 21:31:00,41.7,36.3,29.85,SE,135,3.6,3.6,81,0.00,,---,0.45,VWS V14.01,2013-02-23 05:31:00,
2013-02-22 21:32:00,41.7,36.3,29.88,SE,135,1.1,3.6,81,0.00,,---,0.45,VWS V14.01,2013-02-23 05:32:00,
2013-02-22 21:33:00,41.7,36.3,29.88,NNW,338,5.4,5.4,81,0.00,,---,0.45,VWS V14.01,2013-02-23 05:33:00,
2013-02-22 21:34:00,41.7,36.3,29.88,SSE,158,4.5,6.3,81,0.00,,---,0.45,VWS V14.01,2013-02-23 05:34:00,
2013-02-22 21:35:00,41.7,36.3,29.88,SE,135,3.6,4.5,81,0.00,,---,0.45,VWS V14.01,2013-02-23 05:35:00,
2013-02-22 21:36:00,41.7,36.3,29.88,SE,135,4.3,4.3,81,0.00,,---,0.45,VWS V14.01,2013-02-23 05:36:00,
2013-02-22 21:37:00,41.7,36.3,29.88,SSE,158,4.7,4.7,81,0.00,,---,0.45,VWS V14.01,2013-02-23 05:37:00,
2013-02-22 21:38:00,41.7,36.3,29.88,SE,135,4.9,8.1,81,0.00,,---,0.45,VWS V14.01,2013-02-23 05:38:00,
2013-02-22 21:39:00,41.7,36.3,29.88,SE,135,3.1,5.4,81,0.00,,---,0.45,VWS V14.01,2013-02-23 05:39:00,
2013-02-22 21:40:00,41.7,36.0,29.88,ESE,112,2.7,6.5,80,0.00,,---,0.45,VWS V14.01,2013-02-23 05:40:00,
2013-02-22 21:41:00,41.7,36.0,29.88,South,180,1.6,3.1,80,0.00,,---,0.45,VWS V14.01,2013-02-23 05:41:00,
2013-02-22 21:42:00,41.7,36.0,29.88,ESE,112,6.5,6.5,80,0.00,,---,0.45,VWS V14.01,2013-02-23 05:42:00,
2013-02-22 21:43:00,41.7,36.0,29.88,SE,135,6.3,6.5,80,0.00,,---,0.45,VWS V14.01,2013-02-23 05:43:00,
2013-02-22 21:44:00,41.7,36.0,29.88,ESE,112,4.7,6.3,80,0.00,,---,0.45,VWS V14.01,2013-02-23 05:44:00,
2013-02-22 21:45:00,41.7,36.0,29.88,SSE,158,4.0,4.7,80,0.00,,---,0.45,VWS V14.01,2013-02-23 05:45:00,
2013-02-22 21:46:00,41.7,36.0,29.88,SE,135,2.9,4.7,80,0.00,,---,0.45,VWS V14.01,2013-02-23 05:46:00,
2013-02-22 21:47:00,41.7,36.0,29.88,SE,135,2.9,2.9,80,0.00,,---,0.45,VWS V14.01,2013-02-23 05:47:00,
2013-02-22 21:48:00,41.5,35.8,29.91,SE,135,3.8,8.1,80,0.00,,---,0.45,VWS V14.01,2013-02-23 05:48:00,
2013-02-22 21:49:00,41.5,35.8,29.91,ESE,112,3.1,4.7,80,0.00,,---,0.45,VWS V14.01,2013-02-23 05:49:00,
2013-02-22 21:50:00,41.5,35.8,29.91,SSE,158,4.3,5.6,80,0.00,,---,0.45,VWS V14.01,2013-02-23 05:50:00,
2013-02-22 21:51:00,41.5,35.5,29.91,SE,135,3.8,4.9,79,0.00,,---,0.45,VWS V14.01,2013-02-23 05:51:00,
2013-02-22 21:52:00,41.5,35.5,29.91,ESE,112,4.0,4.3,79,0.00,,---,0.45,VWS V14.01,2013-02-23 05:52:00,
2013-02-22 21:53:00,41.5,35.5,29.91,SE,135,2.5,4.9,79,0.00,,---,0.45,VWS V14.01,2013-02-23 05:53:00,
2013-02-22 21:54:00,41.5,35.5,29.91,South,180,12.1,12.1,79,0.00,,---,0.45,VWS V14.01,2013-02-23 05:54:00,
2013-02-22 21:55:00,41.5,35.5,29.91,South,180,3.6,12.1,79,0.00,,---,0.45,VWS V14.01,2013-02-23 05:55:00,
2013-02-22 21:56:00,41.5,35.5,29.91,East,90,2.9,4.9,79,0.00,,---,0.45,VWS V14.01,2013-02-23 05:56:00,
2013-02-22 21:57:00,41.4,35.3,29.91,SSE,158,2.7,5.6,79,0.00,,---,0.45,VWS V14.01,2013-02-23 05:57:00,
2013-02-22 21:58:00,41.4,35.3,29.91,ESE,112,1.6,2.7,79,0.00,,---,0.45,VWS V14.01,2013-02-23 05:58:00,
2013-02-22 21:59:00,41.4,35.7,29.91,ESE,112,4.0,4.0,80,0.00,,---,0.45,VWS V14.01,2013-02-23 05:59:00,
2013-02-22 22:00:00,41.4,35.7,29.91,SE,135,2.9,4.0,80,0.00,,---,0.45,VWS V14.01,2013-02-23 06:00:00,
2013-02-22 22:01:00,41.4,35.7,29.91,SE,135,5.8,5.8,80,0.00,,---,0.45,VWS V14.01,2013-02-23 06:01:00,
2013-02-22 22:02:00,41.4,35.7,29.88,SE,135,3.1,7.4,80,0.00,,---,0.45,VWS V14.01,2013-02-23 06:02:00,
2013-02-22 22:03:00,41.4,35.7,29.88,East,90,2.0,4.3,80,0.00,,---,0.45,VWS V14.01,2013-02-23 06:03:00,
2013-02-22 22:04:00,41.4,35.7,29.88,ESE,112,5.4,5.4,80,0.00,,---,0.45,VWS V14.01,2013-02-23 06:04:00,
2013-02-22 22:05:00,41.4,35.7,29.88,ESE,112,2.5,5.4,80,0.00,,---,0.45,VWS V14.01,2013-02-23 06:05:00,
2013-02-22 22:06:00,41.4,35.7,29.88,ESE,112,2.7,2.7,80,0.00,,---,0.45,VWS V14.01,2013-02-23 06:06:00,
2013-02-22 22:07:00,41.4,35.7,29.88,ESE,112,2.7,2.7,80,0.00,,---,0.45,VWS V14.01,2013-02-23 06:07:00,
2013-02-22 22:08:00,41.4,35.7,29.88,SSE,158,3.1,3.1,80,0.00,,---,0.45,VWS V14.01,2013-02-23 06:08:00,
2013-02-22 22:09:00,41.4,35.7,29.88,South,180,3.8,4.0,80,0.00,,---,0.45,VWS V14.01,2013-02-23 06:09:00,
2013-02-22 22:10:00,41.4,35.7,29.88,ESE,112,4.0,4.0,80,0.00,,---,0.45,VWS V14.01,2013-02-23 06:10:00,
2013-02-22 22:11:00,41.4,35.7,29.88,ESE,112,4.0,4.0,80,0.00,,---,0.45,VWS V14.01,2013-02-23 06:11:00,
2013-02-22 22:12:00,41.4,36.0,29.88,SSE,158,2.9,4.0,81,0.00,,---,0.45,VWS V14.01,2013-02-23 06:12:00,
2013-02-22 22:13:00,41.2,35.8,29.88,SSE,158,2.9,4.0,81,0.00,,---,0.45,VWS V14.01,2013-02-23 06:13:00,
2013-02-22 22:14:00,41.4,36.0,29.88,SE,135,2.7,3.1,81,0.00,,---,0.45,VWS V14.01,2013-02-23 06:14:00,
2013-02-22 22:15:00,41.4,36.0,29.88,SSE,158,2.5,2.7,81,0.00,,---,0.45,VWS V14.01,2013-02-23 06:15:00,
2013-02-22 22:16:00,41.4,36.0,29.88,ESE,112,4.0,4.9,81,0.00,,---,0.45,VWS V14.01,2013-02-23 06:16:00,
2013-02-22 22:17:00,41.4,36.0,29.91,SSE,158,2.0,4.0,81,0.00,,---,0.45,VWS V14.01,2013-02-23 06:17:00,
2013-02-22 22:18:00,41.2,35.8,29.91,SE,135,2.7,4.0,81,0.00,,---,0.45,VWS V14.01,2013-02-23 06:18:00,
2013-02-22 22:19:00,41.2,35.8,29.91,South,180,1.3,3.6,81,0.00,,---,0.45,VWS V14.01,2013-02-23 06:19:00,
2013-02-22 22:20:00,41.2,35.8,29.91,SE,135,1.1,2.0,81,0.00,,---,0.45,VWS V14.01,2013-02-23 06:20:00,
2013-02-22 22:21:00,41.2,35.8,29.91,SE,135,3.8,3.8,81,0.00,,---,0.45,VWS V14.01,2013-02-23 06:21:00,
2013-02-22 22:22:00,40.3,35.8,29.94,NW,315,1.1,2.5,84,0.00,,---,0.45,VWS V14.01,2013-02-23 06:22:00,
2013-02-22 22:23:00,40.3,35.8,29.94,NNW,338,0.0,1.1,84,0.00,,---,0.45,VWS V14.01,2013-02-23 06:23:00,
2013-02-22 22:24:00,40.3,35.8,29.94,NNW,338,0.0,1.3,84,0.00,,---,0.45,VWS V14.01,2013-02-23 06:24:00,
2013-02-22 22:25:00,41.2,36.1,29.91,East,90,3.6,3.6,82,0.00,,---,0.45,VWS V14.01,2013-02-23 06:25:00,
2013-02-22 22:26:00,41.2,36.1,29.91,SE,135,2.0,3.6,82,0.00,,---,0.45,VWS V14.01,2013-02-23 06:26:00,
2013-02-22 22:27:00,41.2,36.1,29.91,ESE,112,2.7,2.9,82,0.00,,---,0.45,VWS V14.01,2013-02-23 06:27:00,
2013-02-22 22:28:00,41.2,36.1,29.91,SE,135,2.0,3.8,82,0.00,,---,0.45,VWS V14.01,2013-02-23 06:28:00,
2013-02-22 22:29:00,41.2,36.1,29.91,ESE,112,2.5,2.7,82,0.00,,---,0.45,VWS V14.01,2013-02-23 06:29:00,
2013-02-22 22:30:00,41.2,36.1,29.91,East,90,1.3,2.7,82,0.00,,---,0.45,VWS V14.01,2013-02-23 06:30:00,
2013-02-22 22:31:00,41.2,36.1,29.91,SW,225,0.0,2.0,82,0.00,,---,0.45,VWS V14.01,2013-02-23 06:31:00,
2013-02-22 22:32:00,41.2,36.1,29.91,NNW,338,0.0,0.0,82,0.00,,---,0.45,VWS V14.01,2013-02-23 06:32:00,
2013-02-22 22:33:00,41.0,36.2,29.91,SE,135,0.0,0.0,83,0.00,,---,0.45,VWS V14.01,2013-02-23 06:33:00,
2013-02-22 22:34:00,41.0,36.2,29.91,SSE,158,1.1,1.1,83,0.00,,---,0.45,VWS V14.01,2013-02-23 06:34:00,
2013-02-22 22:35:00,41.0,36.2,29.91,SE,135,2.2,2.2,83,0.00,,---,0.45,VWS V14.01,2013-02-23 06:35:00,
2013-02-22 22:36:00,41.0,36.2,29.91,ESE,112,0.0,2.2,83,0.00,,---,0.45,VWS V14.01,2013-02-23 06:36:00,
2013-02-22 22:37:00,41.0,36.2,29.91,ESE,112,2.0,2.7,83,0.00,,---,0.45,VWS V14.01,2013-02-23 06:37:00,
2013-02-22 22:38:00,41.0,36.2,29.91,SE,135,1.3,2.0,83,0.00,,---,0.45,VWS V14.01,2013-02-23 06:38:00,
2013-02-22 22:39:00,41.0,36.2,29.91,SE,135,0.0,1.3,83,0.00,,---,0.45,VWS V14.01,2013-02-23 06:39:00,
2013-02-22 22:40:00,41.0,36.2,29.91,SE,135,1.3,1.3,83,0.00,,---,0.45,VWS V14.01,2013-02-23 06:40:00,
2013-02-22 22:41:00,41.0,36.5,29.91,SE,135,2.0,2.0,84,0.00,,---,0.45,VWS V14.01,2013-02-23 06:41:00,
2013-02-22 22:42:00,41.0,36.5,29.91,East,90,1.3,4.0,84,0.00,,---,0.45,VWS V14.01,2013-02-23 06:42:00,
2013-02-22 22:43:00,41.0,36.5,29.91,East,90,1.3,1.3,84,0.00,,---,0.45,VWS V14.01,2013-02-23 06:43:00,
2013-02-22 22:44:00,41.0,36.5,29.91,East,90,0.0,1.3,84,0.00,,---,0.45,VWS V14.01,2013-02-23 06:44:00,
2013-02-22 22:45:00,41.0,36.5,29.91,NNW,338,0.9,0.9,84,0.00,,---,0.45,VWS V14.01,2013-02-23 06:45:00,
2013-02-22 22:46:00,41.0,36.5,29.91,NNE,22,0.0,0.9,84,0.00,,---,0.45,VWS V14.01,2013-02-23 06:46:00,
2013-02-22 22:47:00,41.0,36.5,29.94,NE,45,0.0,0.0,84,0.00,,---,0.45,VWS V14.01,2013-02-23 06:47:00,
2013-02-22 22:48:00,41.0,36.5,29.94,NE,45,0.0,0.0,84,0.00,,---,0.45,VWS V14.01,2013-02-23 06:48:00,
2013-02-22 22:49:00,41.0,36.5,29.94,East,90,0.0,0.0,84,0.00,,---,0.45,VWS V14.01,2013-02-23 06:49:00,
2013-02-22 22:50:00,40.8,36.7,29.94,SE,135,2.9,2.9,85,0.00,,---,0.45,VWS V14.01,2013-02-23 06:50:00,
2013-02-22 22:51:00,40.8,36.7,29.94,SE,135,3.8,3.8,85,0.00,,---,0.45,VWS V14.01,2013-02-23 06:51:00,
2013-02-22 22:52:00,40.8,36.7,29.94,East,90,0.0,3.8,85,0.00,,---,0.45,VWS V14.01,2013-02-23 06:52:00,
2013-02-22 22:53:00,40.8,36.7,29.94,WNW,292,0.0,1.6,85,0.00,,---,0.45,VWS V14.01,2013-02-23 06:53:00,
2013-02-22 22:54:00,40.8,36.7,29.94,North,0,0.0,0.0,85,0.00,,---,0.45,VWS V14.01,2013-02-23 06:54:00,
2013-02-22 22:55:00,40.8,36.7,29.94,SSE,158,0.0,0.0,85,0.00,,---,0.45,VWS V14.01,2013-02-23 06:55:00,
2013-02-22 22:56:00,40.6,36.5,29.94,SE,135,0.0,0.0,85,0.00,,---,0.45,VWS V14.01,2013-02-23 06:56:00,
2013-02-22 22:57:00,40.6,36.5,29.94,East,90,2.0,2.0,85,0.00,,---,0.45,VWS V14.01,2013-02-23 06:57:00,
2013-02-22 22:58:00,40.6,36.5,29.94,South,180,0.0,2.0,85,0.00,,---,0.45,VWS V14.01,2013-02-23 06:58:00,
2013-02-22 22:59:00,40.6,36.5,29.94,WSW,248,0.0,0.0,85,0.00,,---,0.45,VWS V14.01,2013-02-23 06:59:00,
2013-02-22 23:00:00,40.6,36.5,29.94,WSW,248,0.0,0.0,85,0.00,,---,0.45,VWS V14.01,2013-02-23 07:00:00,
2013-02-22 23:01:00,40.6,36.5,29.94,SSE,158,1.3,1.3,85,0.00,,---,0.45,VWS V14.01,2013-02-23 07:01:00,
2013-02-22 23:02:00,40.6,36.5,29.94,ENE,68,0.0,3.1,85,0.00,,---,0.45,VWS V14.01,2013-02-23 07:02:00,
2013-02-22 23:03:00,40.6,36.5,29.94,WNW,292,0.0,0.9,85,0.00,,---,0.45,VWS V14.01,2013-02-23 07:03:00,
2013-02-22 23:04:00,40.6,36.5,29.94,WNW,292,0.0,0.0,85,0.00,,---,0.45,VWS V14.01,2013-02-23 07:04:00,
2013-02-22 23:05:00,40.5,36.3,29.94,WNW,292,0.0,0.0,85,0.00,,---,0.45,VWS V14.01,2013-02-23 07:05:00,
2013-02-22 23:06:00,40.5,36.3,29.94,WNW,292,0.0,0.0,85,0.00,,---,0.45,VWS V14.01,2013-02-23 07:06:00,
2013-02-22 23:07:00,40.5,36.3,29.94,WNW,292,0.0,0.0,85,0.00,,---,0.45,VWS V14.01,2013-02-23 07:07:00,
2013-02-22 23:08:00,40.5,36.3,29.94,West,270,0.0,0.0,85,0.00,,---,0.45,VWS V14.01,2013-02-23 07:08:00,
2013-02-22 23:09:00,40.5,36.3,29.94,WNW,292,0.0,1.6,85,0.00,,---,0.45,VWS V14.01,2013-02-23 07:09:00,
2013-02-22 23:10:00,40.5,36.3,29.94,NNW,338,0.0,0.0,85,0.00,,---,0.45,VWS V14.01,2013-02-23 07:10:00,
2013-02-22 23:11:00,40.5,36.3,29.94,NNW,338,1.6,1.6,85,0.00,,---,0.45,VWS V14.01,2013-02-23 07:11:00,
2013-02-22 23:12:00,40.5,36.3,29.94,NNW,338,1.6,1.6,85,0.00,,---,0.45,VWS V14.01,2013-02-23 07:12:00,
2013-02-22 23:13:00,40.5,36.3,29.94,WSW,248,1.3,1.6,85,0.00,,---,0.45,VWS V14.01,2013-02-23 07:13:00,
2013-02-22 23:14:00,40.5,36.3,29.94,NW,315,1.3,2.9,85,0.00,,---,0.45,VWS V14.01,2013-02-23 07:14:00,
2013-02-22 23:15:00,40.5,36.3,29.94,WNW,292,0.0,1.3,85,0.00,,---,0.45,VWS V14.01,2013-02-23 07:15:00,
2013-02-22 23:16:00,40.5,36.3,29.94,WNW,292,1.1,1.1,85,0.00,,---,0.45,VWS V14.01,2013-02-23 07:16:00,
2013-02-22 23:17:00,40.5,36.3,29.94,WNW,292,2.7,2.9,85,0.00,,---,0.45,VWS V14.01,2013-02-23 07:17:00,
2013-02-22 23:18:00,40.5,36.3,29.94,NW,315,0.9,3.1,85,0.00,,---,0.45,VWS V14.01,2013-02-23 07:18:00,
2013-02-22 23:19:00,40.3,35.8,29.94,WNW,292,2.0,2.9,84,0.00,,---,0.45,VWS V14.01,2013-02-23 07:19:00,
2013-02-22 23:20:00,40.3,35.8,29.94,NNW,338,3.1,3.4,84,0.00,,---,0.45,VWS V14.01,2013-02-23 07:20:00,
2013-02-22 23:21:00,40.3,35.8,29.94,NNW,338,1.3,3.1,84,0.00,,---,0.45,VWS V14.01,2013-02-23 07:21:00,
2013-02-22 23:22:00,40.3,35.8,29.94,NW,315,1.1,2.5,84,0.00,,---,0.45,VWS V14.01,2013-02-23 07:22:00,
2013-02-22 23:23:00,40.3,35.8,29.94,NNW,338,0.0,1.1,84,0.00,,---,0.45,VWS V14.01,2013-02-23 07:23:00,
2013-02-22 23:24:00,40.3,35.8,29.94,NNW,338,0.0,1.3,84,0.00,,---,0.45,VWS V14.01,2013-02-23 07:24:00,
2013-02-22 23:25:00,40.3,35.8,29.94,NNW,338,0.9,0.9,84,0.00,,---,0.45,VWS V14.01,2013-02-23 07:25:00,
2013-02-22 23:26:00,40.3,35.8,29.94,WNW,292,2.0,2.0,84,0.00,,---,0.45,VWS V14.01,2013-02-23 07:26:00,
2013-02-22 23:27:00,40.3,35.8,29.94,NNW,338,0.0,2.0,84,0.00,,---,0.45,VWS V14.01,2013-02-23 07:27:00,
2013-02-22 23:28:00,40.3,35.8,29.94,NNW,338,3.4,3.4,84,0.00,,---,0.45,VWS V14.01,2013-02-23 07:28:00,
2013-02-22 23:29:00,40.1,35.7,29.94,NNW,338,2.9,4.3,84,0.00,,---,0.45,VWS V14.01,2013-02-23 07:29:00,
2013-02-22 23:30:00,40.1,35.7,29.94,NNW,338,1.6,2.9,84,0.00,,---,0.45,VWS V14.01,2013-02-23 07:30:00,
2013-02-22 23:31:00,40.1,35.7,29.94,NNW,338,1.3,2.2,84,0.00,,---,0.45,VWS V14.01,2013-02-23 07:31:00,
2013-02-22 23:32:00,39.0,34.9,29.97,West,270,1.3,2.5,85,0.05,,---,0.05,VWS V14.01,2013-02-23 07:32:00,
2013-02-22 23:33:00,40.1,35.7,29.94,North,0,3.1,3.6,84,0.00,,---,0.45,VWS V14.01,2013-02-23 07:33:00,
2013-02-22 23:34:00,40.1,35.7,29.94,NNW,338,0.0,3.1,84,0.00,,---,0.45,VWS V14.01,2013-02-23 07:34:00,
2013-02-22 23:35:00,40.1,35.7,29.94,NNW,338,1.3,1.3,84,0.00,,---,0.45,VWS V14.01,2013-02-23 07:35:00,
2013-02-22 23:36:00,40.1,35.7,29.94,ESE,112,0.0,2.7,84,0.00,,---,0.45,VWS V14.01,2013-02-23 07:36:00,
2013-02-22 23:37:00,40.1,35.7,29.94,NNW,338,0.0,0.0,84,0.00,,---,0.45,VWS V14.01,2013-02-23 07:37:00,
2013-02-22 23:38:00,40.1,35.7,29.94,NNW,338,1.6,1.6,84,0.00,,---,0.45,VWS V14.01,2013-02-23 07:38:00,
2013-02-22 23:39:00,40.1,35.7,29.94,NNW,338,0.0,1.6,84,0.00,,---,0.45,VWS V14.01,2013-02-23 07:39:00,
2013-02-22 23:40:00,40.1,35.7,29.94,NNW,338,0.0,1.3,84,0.00,,---,0.45,VWS V14.01,2013-02-23 07:40:00,
2013-02-22 23:41:00,40.1,35.7,29.94,NNW,338,0.9,0.9,84,0.00,,---,0.45,VWS V14.01,2013-02-23 07:41:00,
2013-02-22 23:42:00,40.1,35.7,29.94,NNW,338,2.5,2.5,84,0.00,,---,0.45,VWS V14.01,2013-02-23 07:42:00,
2013-02-22 23:43:00,40.1,35.7,29.94,NNW,338,1.3,2.5,84,0.00,,---,0.45,VWS V14.01,2013-02-23 07:43:00,
2013-02-22 23:44:00,39.9,35.5,29.94,NNW,338,2.0,2.0,84,0.00,,---,0.45,VWS V14.01,2013-02-23 07:44:00,
2013-02-22 23:45:00,39.9,35.5,29.94,NW,315,0.9,2.0,84,0.00,,---,0.45,VWS V14.01,2013-02-23 07:45:00,
2013-02-22 23:46:00,39.9,35.5,29.94,NNW,338,0.0,1.3,84,0.00,,---,0.45,VWS V14.01,2013-02-23 07:46:00,
2013-02-22 23:47:00,39.9,35.5,29.94,NNW,338,0.0,0.9,84,0.00,,---,0.45,VWS V14.01,2013-02-23 07:47:00,
2013-02-22 23:48:00,39.9,35.5,29.94,NNW,338,2.7,2.7,84,0.00,,---,0.45,VWS V14.01,2013-02-23 07:48:00,
2013-02-22 23:49:00,39.9,35.5,29.94,WNW,292,2.0,2.7,84,0.00,,---,0.45,VWS V14.01,2013-02-23 07:49:00,
2013-02-22 23:50:00,39.9,35.5,29.94,NNE,22,0.9,2.7,84,0.00,,---,0.45,VWS V14.01,2013-02-23 07:50:00,
2013-02-22 23:51:00,39.9,35.5,29.94,NNW,338,2.9,2.9,84,0.00,,---,0.45,VWS V14.01,2013-02-23 07:51:00,
2013-02-22 23:52:00,39.7,35.3,29.94,NW,315,0.0,2.9,84,0.00,,---,0.45,VWS V14.01,2013-02-23 07:52:00,
2013-02-22 23:53:00,39.7,35.3,29.94,WNW,292,3.1,3.1,84,0.00,,---,0.45,VWS V14.01,2013-02-23 07:53:00,
2013-02-22 23:54:00,39.7,35.3,29.94,WNW,292,0.0,3.1,84,0.00,,---,0.45,VWS V14.01,2013-02-23 07:54:00,
2013-02-22 23:55:00,39.7,35.3,29.94,WNW,292,0.0,0.0,84,0.00,,---,0.45,VWS V14.01,2013-02-23 07:55:00,
2013-02-22 23:56:00,39.7,35.3,29.94,West,270,1.1,1.6,84,0.00,,---,0.45,VWS V14.01,2013-02-23 07:56:00,
2013-02-22 23:57:00,39.7,35.3,29.94,WNW,292,0.0,1.3,84,0.00,,---,0.45,VWS V14.01,2013-02-23 07:57:00,
2013-02-22 23:58:00,39.7,35.3,29.94,WNW,292,1.6,1.6,84,0.00,,---,0.45,VWS V14.01,2013-02-23 07:58:00,
2013-02-22 23:59:00,39.6,35.1,29.94,WNW,292,0.0,1.6,84,0.00,,---,0.45,VWS V14.01,2013-02-23 07:59:00,